<?xml version='1.0' encoding='UTF-8'?>
<gpx version="1.1" creator="https://www.komoot.de" xmlns="http://www.topografix.com/GPX/1/1" xmlns:xsi="http://www.w3.org/2001/XMLSchema-instance" xsi:schemaLocation="http://www.topografix.com/GPX/1/1 http://www.topografix.com/GPX/1/1/gpx.xsd">
  <metadata>
    <name>73_1250Wiesenbergrunde</name>
    <author>
      <link href="https://www.komoot.de">
        <text>komoot</text>
        <type>text/html</type>
      </link>
    </author>
  </metadata>
  <trk>
    <name>73_1250Wiesenbergrunde</name>
    <trkseg>
      <trkpt lat="47.540517" lon="7.871539">
        <ele>344.809743</ele>
        <time>2021-11-21T06:47:40.770Z</time>
      </trkpt>
      <trkpt lat="47.540463" lon="7.871584">
        <ele>344.809743</ele>
        <time>2021-11-21T06:47:42.378Z</time>
      </trkpt>
      <trkpt lat="47.540265" lon="7.871808">
        <ele>344.809743</ele>
        <time>2021-11-21T06:47:46.963Z</time>
      </trkpt>
      <trkpt lat="47.540216" lon="7.871851">
        <ele>344.809743</ele>
        <time>2021-11-21T06:47:48.220Z</time>
      </trkpt>
      <trkpt lat="47.540034" lon="7.871970">
        <ele>344.809743</ele>
        <time>2021-11-21T06:47:52.488Z</time>
      </trkpt>
      <trkpt lat="47.539930" lon="7.872041">
        <ele>344.809743</ele>
        <time>2021-11-21T06:47:54.441Z</time>
      </trkpt>
      <trkpt lat="47.539841" lon="7.872151">
        <ele>344.809743</ele>
        <time>2021-11-21T06:47:57.299Z</time>
      </trkpt>
      <trkpt lat="47.539678" lon="7.872430">
        <ele>344.976261</ele>
        <time>2021-11-21T06:48:01.898Z</time>
      </trkpt>
      <trkpt lat="47.539222" lon="7.873416">
        <ele>345.889119</ele>
        <time>2021-11-21T06:48:18.863Z</time>
      </trkpt>
      <trkpt lat="47.538278" lon="7.874319">
        <ele>347.166216</ele>
        <time>2021-11-21T06:48:38.517Z</time>
      </trkpt>
      <trkpt lat="47.537716" lon="7.874966">
        <ele>347.986113</ele>
        <time>2021-11-21T06:48:52.492Z</time>
      </trkpt>
      <trkpt lat="47.537261" lon="7.875237">
        <ele>348.551011</ele>
        <time>2021-11-21T06:49:02.009Z</time>
      </trkpt>
      <trkpt lat="47.537182" lon="7.875293">
        <ele>348.651894</ele>
        <time>2021-11-21T06:49:03.997Z</time>
      </trkpt>
      <trkpt lat="47.536921" lon="7.875537">
        <ele>349.191679</ele>
        <time>2021-11-21T06:49:09.964Z</time>
      </trkpt>
      <trkpt lat="47.536757" lon="7.875759">
        <ele>349.966692</ele>
        <time>2021-11-21T06:49:14.566Z</time>
      </trkpt>
      <trkpt lat="47.536632" lon="7.875912">
        <ele>350.532356</ele>
        <time>2021-11-21T06:49:17.734Z</time>
      </trkpt>
      <trkpt lat="47.536444" lon="7.876177">
        <ele>351.437673</ele>
        <time>2021-11-21T06:49:24.696Z</time>
      </trkpt>
      <trkpt lat="47.535851" lon="7.877319">
        <ele>354.830722</ele>
        <time>2021-11-21T06:49:56.010Z</time>
      </trkpt>
      <trkpt lat="47.535770" lon="7.877432">
        <ele>355.234116</ele>
        <time>2021-11-21T06:50:00.189Z</time>
      </trkpt>
      <trkpt lat="47.535635" lon="7.877484">
        <ele>355.986293</ele>
        <time>2021-11-21T06:50:06.057Z</time>
      </trkpt>
      <trkpt lat="47.535551" lon="7.877487">
        <ele>356.439380</ele>
        <time>2021-11-21T06:50:07.965Z</time>
      </trkpt>
      <trkpt lat="47.535322" lon="7.877590">
        <ele>357.729902</ele>
        <time>2021-11-21T06:50:18.017Z</time>
      </trkpt>
      <trkpt lat="47.535088" lon="7.877742">
        <ele>359.107715</ele>
        <time>2021-11-21T06:50:25.849Z</time>
      </trkpt>
      <trkpt lat="47.534855" lon="7.878090">
        <ele>360.891997</ele>
        <time>2021-11-21T06:50:37.832Z</time>
      </trkpt>
      <trkpt lat="47.534778" lon="7.878270">
        <ele>361.667771</ele>
        <time>2021-11-21T06:50:45.139Z</time>
      </trkpt>
      <trkpt lat="47.534825" lon="7.878414">
        <ele>362.250064</ele>
        <time>2021-11-21T06:50:47.765Z</time>
      </trkpt>
      <trkpt lat="47.534946" lon="7.878790">
        <ele>363.766473</ele>
        <time>2021-11-21T06:50:59.813Z</time>
      </trkpt>
      <trkpt lat="47.534908" lon="7.878975">
        <ele>364.470462</ele>
        <time>2021-11-21T06:51:03.871Z</time>
      </trkpt>
      <trkpt lat="47.534616" lon="7.879490">
        <ele>366.289850</ele>
        <time>2021-11-21T06:51:20.818Z</time>
      </trkpt>
      <trkpt lat="47.533892" lon="7.880353">
        <ele>369.747645</ele>
        <time>2021-11-21T06:51:48.557Z</time>
      </trkpt>
      <trkpt lat="47.533606" lon="7.880961">
        <ele>371.589519</ele>
        <time>2021-11-21T06:52:00.866Z</time>
      </trkpt>
      <trkpt lat="47.533374" lon="7.881639">
        <ele>372.113848</ele>
        <time>2021-11-21T06:52:11.911Z</time>
      </trkpt>
      <trkpt lat="47.533014" lon="7.882949">
        <ele>373.089493</ele>
        <time>2021-11-21T06:52:29.826Z</time>
      </trkpt>
      <trkpt lat="47.532859" lon="7.883508">
        <ele>373.330387</ele>
        <time>2021-11-21T06:52:35.704Z</time>
      </trkpt>
      <trkpt lat="47.532713" lon="7.884122">
        <ele>372.866806</ele>
        <time>2021-11-21T06:52:41.402Z</time>
      </trkpt>
      <trkpt lat="47.532699" lon="7.884224">
        <ele>372.792682</ele>
        <time>2021-11-21T06:52:42.356Z</time>
      </trkpt>
      <trkpt lat="47.532670" lon="7.884773">
        <ele>372.400520</ele>
        <time>2021-11-21T06:52:46.849Z</time>
      </trkpt>
      <trkpt lat="47.532658" lon="7.884989">
        <ele>372.246177</ele>
        <time>2021-11-21T06:52:48.461Z</time>
      </trkpt>
      <trkpt lat="47.532650" lon="7.885569">
        <ele>371.833047</ele>
        <time>2021-11-21T06:52:52.964Z</time>
      </trkpt>
      <trkpt lat="47.532505" lon="7.887120">
        <ele>370.185836</ele>
        <time>2021-11-21T06:53:04.915Z</time>
      </trkpt>
      <trkpt lat="47.532288" lon="7.887728">
        <ele>369.372189</ele>
        <time>2021-11-21T06:53:10.092Z</time>
      </trkpt>
      <trkpt lat="47.532011" lon="7.888896">
        <ele>368.128864</ele>
        <time>2021-11-21T06:53:19.321Z</time>
      </trkpt>
      <trkpt lat="47.531843" lon="7.889349">
        <ele>367.809473</ele>
        <time>2021-11-21T06:53:23.358Z</time>
      </trkpt>
      <trkpt lat="47.531560" lon="7.889776">
        <ele>367.439714</ele>
        <time>2021-11-21T06:53:28.298Z</time>
      </trkpt>
      <trkpt lat="47.531265" lon="7.889937">
        <ele>367.151961</ele>
        <time>2021-11-21T06:53:32.266Z</time>
      </trkpt>
      <trkpt lat="47.531076" lon="7.890029">
        <ele>366.969872</ele>
        <time>2021-11-21T06:53:35.108Z</time>
      </trkpt>
      <trkpt lat="47.530606" lon="7.890373">
        <ele>366.920890</ele>
        <time>2021-11-21T06:53:42.956Z</time>
      </trkpt>
      <trkpt lat="47.530322" lon="7.890690">
        <ele>367.193204</ele>
        <time>2021-11-21T06:53:48.950Z</time>
      </trkpt>
      <trkpt lat="47.529972" lon="7.891210">
        <ele>367.572823</ele>
        <time>2021-11-21T06:53:58.112Z</time>
      </trkpt>
      <trkpt lat="47.529714" lon="7.891609">
        <ele>367.858459</ele>
        <time>2021-11-21T06:54:05.445Z</time>
      </trkpt>
      <trkpt lat="47.529695" lon="7.891638">
        <ele>367.879351</ele>
        <time>2021-11-21T06:54:06.432Z</time>
      </trkpt>
      <trkpt lat="47.529235" lon="7.892158">
        <ele>368.414583</ele>
        <time>2021-11-21T06:54:17.365Z</time>
      </trkpt>
      <trkpt lat="47.528331" lon="7.892682">
        <ele>369.468379</ele>
        <time>2021-11-21T06:54:36.068Z</time>
      </trkpt>
      <trkpt lat="47.528003" lon="7.892732">
        <ele>369.826311</ele>
        <time>2021-11-21T06:54:41.774Z</time>
      </trkpt>
      <trkpt lat="47.527498" lon="7.892650">
        <ele>370.742151</ele>
        <time>2021-11-21T06:54:51.247Z</time>
      </trkpt>
      <trkpt lat="47.527011" lon="7.893061">
        <ele>372.036139</ele>
        <time>2021-11-21T06:55:04.439Z</time>
      </trkpt>
      <trkpt lat="47.526709" lon="7.893617">
        <ele>373.148449</ele>
        <time>2021-11-21T06:55:16.971Z</time>
      </trkpt>
      <trkpt lat="47.526504" lon="7.894030">
        <ele>373.947472</ele>
        <time>2021-11-21T06:55:27.152Z</time>
      </trkpt>
      <trkpt lat="47.526451" lon="7.893983">
        <ele>374.090083</ele>
        <time>2021-11-21T06:55:28.541Z</time>
      </trkpt>
      <trkpt lat="47.526401" lon="7.893964">
        <ele>374.209471</ele>
        <time>2021-11-21T06:55:29.359Z</time>
      </trkpt>
      <trkpt lat="47.526335" lon="7.893960">
        <ele>374.374797</ele>
        <time>2021-11-21T06:55:31.433Z</time>
      </trkpt>
      <trkpt lat="47.526257" lon="7.894278">
        <ele>374.946592</ele>
        <time>2021-11-21T06:55:37.644Z</time>
      </trkpt>
      <trkpt lat="47.525725" lon="7.895110">
        <ele>376.883117</ele>
        <time>2021-11-21T06:55:56.727Z</time>
      </trkpt>
      <trkpt lat="47.525603" lon="7.895265">
        <ele>377.285435</ele>
        <time>2021-11-21T06:56:02.343Z</time>
      </trkpt>
      <trkpt lat="47.525631" lon="7.895442">
        <ele>377.592677</ele>
        <time>2021-11-21T06:56:05.192Z</time>
      </trkpt>
      <trkpt lat="47.525631" lon="7.895583">
        <ele>377.830977</ele>
        <time>2021-11-21T06:56:06.384Z</time>
      </trkpt>
      <trkpt lat="47.525622" lon="7.895944">
        <ele>378.441509</ele>
        <time>2021-11-21T06:56:13.819Z</time>
      </trkpt>
      <trkpt lat="47.525590" lon="7.896117">
        <ele>378.714269</ele>
        <time>2021-11-21T06:56:15.372Z</time>
      </trkpt>
      <trkpt lat="47.525518" lon="7.896336">
        <ele>378.781620</ele>
        <time>2021-11-21T06:56:20.179Z</time>
      </trkpt>
      <trkpt lat="47.524834" lon="7.897636">
        <ele>379.237322</ele>
        <time>2021-11-21T06:56:37.103Z</time>
      </trkpt>
      <trkpt lat="47.524617" lon="7.898216">
        <ele>379.420671</ele>
        <time>2021-11-21T06:56:43.276Z</time>
      </trkpt>
      <trkpt lat="47.524360" lon="7.898951">
        <ele>379.668300</ele>
        <time>2021-11-21T06:56:50.817Z</time>
      </trkpt>
      <trkpt lat="47.524309" lon="7.899115">
        <ele>379.722802</ele>
        <time>2021-11-21T06:56:52.731Z</time>
      </trkpt>
      <trkpt lat="47.523896" lon="7.900001">
        <ele>380.047782</ele>
        <time>2021-11-21T06:57:04.654Z</time>
      </trkpt>
      <trkpt lat="47.523861" lon="7.900049">
        <ele>380.069106</ele>
        <time>2021-11-21T06:57:05.633Z</time>
      </trkpt>
      <trkpt lat="47.523890" lon="7.900131">
        <ele>380.097048</ele>
        <time>2021-11-21T06:57:06.588Z</time>
      </trkpt>
      <trkpt lat="47.523945" lon="7.900256">
        <ele>380.142084</ele>
        <time>2021-11-21T06:57:08.179Z</time>
      </trkpt>
      <trkpt lat="47.523989" lon="7.900340">
        <ele>380.174174</ele>
        <time>2021-11-21T06:57:09.229Z</time>
      </trkpt>
      <trkpt lat="47.523957" lon="7.900371">
        <ele>380.191267</ele>
        <time>2021-11-21T06:57:09.934Z</time>
      </trkpt>
      <trkpt lat="47.523878" lon="7.900445">
        <ele>380.233053</ele>
        <time>2021-11-21T06:57:12.050Z</time>
      </trkpt>
      <trkpt lat="47.523739" lon="7.900557">
        <ele>380.649312</ele>
        <time>2021-11-21T06:57:14.982Z</time>
      </trkpt>
      <trkpt lat="47.523648" lon="7.900606">
        <ele>380.964860</ele>
        <time>2021-11-21T06:57:17.161Z</time>
      </trkpt>
      <trkpt lat="47.523620" lon="7.900698">
        <ele>381.186930</ele>
        <time>2021-11-21T06:57:19.124Z</time>
      </trkpt>
      <trkpt lat="47.523567" lon="7.900820">
        <ele>381.506165</ele>
        <time>2021-11-21T06:57:21.221Z</time>
      </trkpt>
      <trkpt lat="47.523433" lon="7.901043">
        <ele>382.163064</ele>
        <time>2021-11-21T06:57:26.465Z</time>
      </trkpt>
      <trkpt lat="47.523340" lon="7.901197">
        <ele>382.617710</ele>
        <time>2021-11-21T06:57:30.508Z</time>
      </trkpt>
      <trkpt lat="47.523036" lon="7.901580">
        <ele>383.918415</ele>
        <time>2021-11-21T06:57:42.203Z</time>
      </trkpt>
      <trkpt lat="47.522688" lon="7.901843">
        <ele>385.191633</ele>
        <time>2021-11-21T06:57:54.521Z</time>
      </trkpt>
      <trkpt lat="47.522554" lon="7.901999">
        <ele>385.747103</ele>
        <time>2021-11-21T06:58:00.842Z</time>
      </trkpt>
      <trkpt lat="47.522260" lon="7.902356">
        <ele>387.152491</ele>
        <time>2021-11-21T06:58:13.216Z</time>
      </trkpt>
      <trkpt lat="47.522132" lon="7.902476">
        <ele>387.739966</ele>
        <time>2021-11-21T06:58:17.773Z</time>
      </trkpt>
      <trkpt lat="47.522065" lon="7.902526">
        <ele>388.030910</ele>
        <time>2021-11-21T06:58:19.968Z</time>
      </trkpt>
      <trkpt lat="47.522038" lon="7.902562">
        <ele>388.171800</ele>
        <time>2021-11-21T06:58:21.472Z</time>
      </trkpt>
      <trkpt lat="47.522013" lon="7.902637">
        <ele>388.390828</ele>
        <time>2021-11-21T06:58:23.605Z</time>
      </trkpt>
      <trkpt lat="47.521792" lon="7.903347">
        <ele>390.438132</ele>
        <time>2021-11-21T06:58:39.674Z</time>
      </trkpt>
      <trkpt lat="47.521297" lon="7.904312">
        <ele>393.315441</ele>
        <time>2021-11-21T06:59:03.676Z</time>
      </trkpt>
      <trkpt lat="47.520989" lon="7.905130">
        <ele>394.388390</ele>
        <time>2021-11-21T06:59:19.090Z</time>
      </trkpt>
      <trkpt lat="47.520678" lon="7.906050">
        <ele>395.567052</ele>
        <time>2021-11-21T06:59:32.561Z</time>
      </trkpt>
      <trkpt lat="47.520566" lon="7.906668">
        <ele>396.143026</ele>
        <time>2021-11-21T06:59:39.580Z</time>
      </trkpt>
      <trkpt lat="47.520528" lon="7.906930">
        <ele>396.155419</ele>
        <time>2021-11-21T06:59:42.840Z</time>
      </trkpt>
      <trkpt lat="47.520515" lon="7.907103">
        <ele>396.163470</ele>
        <time>2021-11-21T06:59:44.638Z</time>
      </trkpt>
      <trkpt lat="47.520506" lon="7.907236">
        <ele>396.169651</ele>
        <time>2021-11-21T06:59:45.714Z</time>
      </trkpt>
      <trkpt lat="47.520551" lon="7.907422">
        <ele>396.178789</ele>
        <time>2021-11-21T06:59:48.124Z</time>
      </trkpt>
      <trkpt lat="47.520733" lon="7.907655">
        <ele>396.195265</ele>
        <time>2021-11-21T06:59:51.311Z</time>
      </trkpt>
      <trkpt lat="47.520738" lon="7.907839">
        <ele>396.203781</ele>
        <time>2021-11-21T06:59:53.454Z</time>
      </trkpt>
      <trkpt lat="47.520493" lon="7.908683">
        <ele>396.246267</ele>
        <time>2021-11-21T07:00:01.633Z</time>
      </trkpt>
      <trkpt lat="47.519997" lon="7.910833">
        <ele>397.138875</ele>
        <time>2021-11-21T07:00:27.578Z</time>
      </trkpt>
      <trkpt lat="47.519973" lon="7.910901">
        <ele>397.172881</ele>
        <time>2021-11-21T07:00:28.819Z</time>
      </trkpt>
      <trkpt lat="47.519891" lon="7.911129">
        <ele>397.287372</ele>
        <time>2021-11-21T07:00:32.168Z</time>
      </trkpt>
      <trkpt lat="47.519891" lon="7.911129">
        <ele>397.287372</ele>
        <time>2021-11-21T07:00:32.220Z</time>
      </trkpt>
      <trkpt lat="47.519891" lon="7.911129">
        <ele>397.287372</ele>
        <time>2021-11-21T07:00:32.224Z</time>
      </trkpt>
      <trkpt lat="47.519720" lon="7.911522">
        <ele>397.531095</ele>
        <time>2021-11-21T07:00:38.359Z</time>
      </trkpt>
      <trkpt lat="47.519421" lon="7.912098">
        <ele>398.068660</ele>
        <time>2021-11-21T07:00:47.875Z</time>
      </trkpt>
      <trkpt lat="47.517688" lon="7.914418">
        <ele>400.545424</ele>
        <time>2021-11-21T07:01:32.453Z</time>
      </trkpt>
      <trkpt lat="47.517281" lon="7.915238">
        <ele>401.247109</ele>
        <time>2021-11-21T07:01:45.467Z</time>
      </trkpt>
      <trkpt lat="47.517140" lon="7.915259">
        <ele>401.376591</ele>
        <time>2021-11-21T07:01:47.967Z</time>
      </trkpt>
      <trkpt lat="47.516806" lon="7.914896">
        <ele>401.755152</ele>
        <time>2021-11-21T07:01:55.543Z</time>
      </trkpt>
      <trkpt lat="47.516748" lon="7.914873">
        <ele>401.810014</ele>
        <time>2021-11-21T07:01:56.714Z</time>
      </trkpt>
      <trkpt lat="47.516662" lon="7.914835">
        <ele>401.892017</ele>
        <time>2021-11-21T07:01:58.506Z</time>
      </trkpt>
      <trkpt lat="47.516626" lon="7.914830">
        <ele>401.925054</ele>
        <time>2021-11-21T07:01:59.200Z</time>
      </trkpt>
      <trkpt lat="47.516590" lon="7.914840">
        <ele>401.958521</ele>
        <time>2021-11-21T07:01:59.795Z</time>
      </trkpt>
      <trkpt lat="47.516569" lon="7.914864">
        <ele>401.982760</ele>
        <time>2021-11-21T07:02:00.330Z</time>
      </trkpt>
      <trkpt lat="47.516544" lon="7.914936">
        <ele>402.032718</ele>
        <time>2021-11-21T07:02:01.177Z</time>
      </trkpt>
      <trkpt lat="47.516436" lon="7.915153">
        <ele>402.199059</ele>
        <time>2021-11-21T07:02:04.566Z</time>
      </trkpt>
      <trkpt lat="47.516391" lon="7.915243">
        <ele>402.268161</ele>
        <time>2021-11-21T07:02:05.969Z</time>
      </trkpt>
      <trkpt lat="47.515014" lon="7.917030">
        <ele>404.073708</ele>
        <time>2021-11-21T07:02:39.746Z</time>
      </trkpt>
      <trkpt lat="47.514635" lon="7.917349">
        <ele>404.522281</ele>
        <time>2021-11-21T07:02:47.864Z</time>
      </trkpt>
      <trkpt lat="47.514561" lon="7.917409">
        <ele>404.609092</ele>
        <time>2021-11-21T07:02:49.756Z</time>
      </trkpt>
      <trkpt lat="47.514255" lon="7.917714">
        <ele>405.157161</ele>
        <time>2021-11-21T07:02:57.225Z</time>
      </trkpt>
      <trkpt lat="47.513378" lon="7.918393">
        <ele>406.868999</ele>
        <time>2021-11-21T07:03:18.952Z</time>
      </trkpt>
      <trkpt lat="47.513160" lon="7.918764">
        <ele>407.443497</ele>
        <time>2021-11-21T07:03:26.453Z</time>
      </trkpt>
      <trkpt lat="47.513058" lon="7.918896">
        <ele>407.677824</ele>
        <time>2021-11-21T07:03:29.609Z</time>
      </trkpt>
      <trkpt lat="47.512938" lon="7.919052">
        <ele>407.966914</ele>
        <time>2021-11-21T07:03:32.734Z</time>
      </trkpt>
      <trkpt lat="47.512664" lon="7.919306">
        <ele>408.596827</ele>
        <time>2021-11-21T07:03:40.652Z</time>
      </trkpt>
      <trkpt lat="47.512255" lon="7.919538">
        <ele>409.450261</ele>
        <time>2021-11-21T07:03:50.718Z</time>
      </trkpt>
      <trkpt lat="47.512085" lon="7.919732">
        <ele>409.868490</ele>
        <time>2021-11-21T07:03:55.816Z</time>
      </trkpt>
      <trkpt lat="47.511964" lon="7.919989">
        <ele>410.280792</ele>
        <time>2021-11-21T07:04:00.656Z</time>
      </trkpt>
      <trkpt lat="47.511883" lon="7.920133">
        <ele>410.527425</ele>
        <time>2021-11-21T07:04:03.780Z</time>
      </trkpt>
      <trkpt lat="47.511949" lon="7.920152">
        <ele>410.658436</ele>
        <time>2021-11-21T07:04:05.707Z</time>
      </trkpt>
      <trkpt lat="47.512022" lon="7.920171">
        <ele>410.802859</ele>
        <time>2021-11-21T07:04:07.713Z</time>
      </trkpt>
      <trkpt lat="47.512192" lon="7.920204">
        <ele>411.136943</ele>
        <time>2021-11-21T07:04:12.262Z</time>
      </trkpt>
      <trkpt lat="47.512269" lon="7.920234">
        <ele>411.292088</ele>
        <time>2021-11-21T07:04:14.080Z</time>
      </trkpt>
      <trkpt lat="47.512331" lon="7.920282">
        <ele>411.405876</ele>
        <time>2021-11-21T07:04:16.177Z</time>
      </trkpt>
      <trkpt lat="47.512197" lon="7.920511">
        <ele>411.678726</ele>
        <time>2021-11-21T07:04:20.200Z</time>
      </trkpt>
      <trkpt lat="47.511767" lon="7.921389">
        <ele>412.655380</ele>
        <time>2021-11-21T07:04:35.149Z</time>
      </trkpt>
      <trkpt lat="47.511415" lon="7.922417">
        <ele>413.693309</ele>
        <time>2021-11-21T07:04:50.556Z</time>
      </trkpt>
      <trkpt lat="47.511246" lon="7.922736">
        <ele>414.054225</ele>
        <time>2021-11-21T07:04:55.468Z</time>
      </trkpt>
      <trkpt lat="47.511213" lon="7.922782">
        <ele>414.113822</ele>
        <time>2021-11-21T07:04:56.400Z</time>
      </trkpt>
      <trkpt lat="47.511001" lon="7.923070">
        <ele>414.492146</ele>
        <time>2021-11-21T07:05:01.777Z</time>
      </trkpt>
      <trkpt lat="47.510052" lon="7.924017">
        <ele>415.996956</ele>
        <time>2021-11-21T07:05:25.082Z</time>
      </trkpt>
      <trkpt lat="47.509886" lon="7.924134">
        <ele>416.274867</ele>
        <time>2021-11-21T07:05:29.221Z</time>
      </trkpt>
      <trkpt lat="47.509806" lon="7.924174">
        <ele>416.419759</ele>
        <time>2021-11-21T07:05:30.926Z</time>
      </trkpt>
      <trkpt lat="47.509676" lon="7.924247">
        <ele>416.658337</ele>
        <time>2021-11-21T07:05:33.789Z</time>
      </trkpt>
      <trkpt lat="47.509605" lon="7.924290">
        <ele>416.789968</ele>
        <time>2021-11-21T07:05:35.413Z</time>
      </trkpt>
      <trkpt lat="47.509572" lon="7.924311">
        <ele>416.851603</ele>
        <time>2021-11-21T07:05:36.389Z</time>
      </trkpt>
      <trkpt lat="47.509223" lon="7.924628">
        <ele>417.554192</ele>
        <time>2021-11-21T07:05:45.244Z</time>
      </trkpt>
      <trkpt lat="47.509032" lon="7.924863">
        <ele>417.980344</ele>
        <time>2021-11-21T07:05:50.751Z</time>
      </trkpt>
      <trkpt lat="47.509016" lon="7.924882">
        <ele>418.015540</ele>
        <time>2021-11-21T07:05:51.195Z</time>
      </trkpt>
      <trkpt lat="47.508667" lon="7.925295">
        <ele>418.782209</ele>
        <time>2021-11-21T07:06:01.136Z</time>
      </trkpt>
      <trkpt lat="47.508355" lon="7.925609">
        <ele>419.509749</ele>
        <time>2021-11-21T07:06:09.255Z</time>
      </trkpt>
      <trkpt lat="47.508106" lon="7.925799">
        <ele>420.163168</ele>
        <time>2021-11-21T07:06:15.355Z</time>
      </trkpt>
      <trkpt lat="47.508002" lon="7.925879">
        <ele>420.436548</ele>
        <time>2021-11-21T07:06:17.621Z</time>
      </trkpt>
      <trkpt lat="47.507856" lon="7.925990">
        <ele>420.819385</ele>
        <time>2021-11-21T07:06:21.347Z</time>
      </trkpt>
      <trkpt lat="47.506112" lon="7.927414">
        <ele>426.541997</ele>
        <time>2021-11-21T07:07:12.471Z</time>
      </trkpt>
      <trkpt lat="47.505881" lon="7.927601">
        <ele>427.476661</ele>
        <time>2021-11-21T07:07:21.060Z</time>
      </trkpt>
      <trkpt lat="47.505868" lon="7.927611">
        <ele>427.528670</ele>
        <time>2021-11-21T07:07:22.450Z</time>
      </trkpt>
      <trkpt lat="47.505814" lon="7.927657">
        <ele>427.749846</ele>
        <time>2021-11-21T07:07:24.344Z</time>
      </trkpt>
      <trkpt lat="47.505253" lon="7.928170">
        <ele>430.006914</ele>
        <time>2021-11-21T07:07:46.218Z</time>
      </trkpt>
      <trkpt lat="47.504799" lon="7.928777">
        <ele>431.578986</ele>
        <time>2021-11-21T07:08:02.052Z</time>
      </trkpt>
      <trkpt lat="47.504724" lon="7.928871">
        <ele>431.831517</ele>
        <time>2021-11-21T07:08:05.588Z</time>
      </trkpt>
      <trkpt lat="47.504724" lon="7.928871">
        <ele>431.831517</ele>
        <time>2021-11-21T07:08:05.817Z</time>
      </trkpt>
      <trkpt lat="47.504650" lon="7.928941">
        <ele>432.057188</ele>
        <time>2021-11-21T07:08:07.789Z</time>
      </trkpt>
      <trkpt lat="47.504005" lon="7.929312">
        <ele>433.835402</ele>
        <time>2021-11-21T07:08:23.127Z</time>
      </trkpt>
      <trkpt lat="47.503815" lon="7.929426">
        <ele>434.362236</ele>
        <time>2021-11-21T07:08:25.964Z</time>
      </trkpt>
      <trkpt lat="47.503598" lon="7.929585">
        <ele>434.604346</ele>
        <time>2021-11-21T07:08:31.417Z</time>
      </trkpt>
      <trkpt lat="47.503528" lon="7.929650">
        <ele>434.676381</ele>
        <time>2021-11-21T07:08:32.476Z</time>
      </trkpt>
      <trkpt lat="47.503485" lon="7.929688">
        <ele>434.720037</ele>
        <time>2021-11-21T07:08:33.831Z</time>
      </trkpt>
      <trkpt lat="47.503014" lon="7.930220">
        <ele>435.236508</ele>
        <time>2021-11-21T07:08:44.105Z</time>
      </trkpt>
      <trkpt lat="47.502761" lon="7.930610">
        <ele>435.554932</ele>
        <time>2021-11-21T07:08:50.458Z</time>
      </trkpt>
      <trkpt lat="47.502613" lon="7.930856">
        <ele>435.748926</ele>
        <time>2021-11-21T07:08:54.256Z</time>
      </trkpt>
      <trkpt lat="47.502400" lon="7.931256">
        <ele>436.049133</ele>
        <time>2021-11-21T07:09:01.060Z</time>
      </trkpt>
      <trkpt lat="47.502023" lon="7.932158">
        <ele>436.676030</ele>
        <time>2021-11-21T07:09:14.077Z</time>
      </trkpt>
      <trkpt lat="47.501901" lon="7.932351">
        <ele>436.832250</ele>
        <time>2021-11-21T07:09:17.929Z</time>
      </trkpt>
      <trkpt lat="47.501794" lon="7.932466">
        <ele>436.947936</ele>
        <time>2021-11-21T07:09:19.749Z</time>
      </trkpt>
      <trkpt lat="47.501463" lon="7.932668">
        <ele>437.261168</ele>
        <time>2021-11-21T07:09:25.889Z</time>
      </trkpt>
      <trkpt lat="47.501075" lon="7.932885">
        <ele>437.685444</ele>
        <time>2021-11-21T07:09:33.708Z</time>
      </trkpt>
      <trkpt lat="47.500990" lon="7.932950">
        <ele>437.839282</ele>
        <time>2021-11-21T07:09:36.172Z</time>
      </trkpt>
      <trkpt lat="47.500843" lon="7.933102">
        <ele>438.127611</ele>
        <time>2021-11-21T07:09:39.043Z</time>
      </trkpt>
      <trkpt lat="47.500435" lon="7.933872">
        <ele>439.190647</ele>
        <time>2021-11-21T07:09:52.323Z</time>
      </trkpt>
      <trkpt lat="47.500386" lon="7.933937">
        <ele>439.296447</ele>
        <time>2021-11-21T07:09:53.497Z</time>
      </trkpt>
      <trkpt lat="47.500352" lon="7.933976">
        <ele>439.365611</ele>
        <time>2021-11-21T07:09:54.300Z</time>
      </trkpt>
      <trkpt lat="47.500275" lon="7.934029">
        <ele>439.502155</ele>
        <time>2021-11-21T07:09:56.621Z</time>
      </trkpt>
      <trkpt lat="47.500208" lon="7.934071">
        <ele>439.619151</ele>
        <time>2021-11-21T07:09:58.335Z</time>
      </trkpt>
      <trkpt lat="47.500193" lon="7.934023">
        <ele>439.676602</ele>
        <time>2021-11-21T07:09:58.951Z</time>
      </trkpt>
      <trkpt lat="47.500169" lon="7.933984">
        <ele>439.733910</ele>
        <time>2021-11-21T07:09:59.456Z</time>
      </trkpt>
      <trkpt lat="47.500138" lon="7.933956">
        <ele>439.792304</ele>
        <time>2021-11-21T07:10:00.230Z</time>
      </trkpt>
      <trkpt lat="47.500067" lon="7.933946">
        <ele>439.906984</ele>
        <time>2021-11-21T07:10:01.432Z</time>
      </trkpt>
      <trkpt lat="47.500034" lon="7.933965">
        <ele>439.963919</ele>
        <time>2021-11-21T07:10:02.393Z</time>
      </trkpt>
      <trkpt lat="47.500007" lon="7.933994">
        <ele>440.017559</ele>
        <time>2021-11-21T07:10:03.482Z</time>
      </trkpt>
      <trkpt lat="47.499971" lon="7.934127">
        <ele>440.173204</ele>
        <time>2021-11-21T07:10:06.007Z</time>
      </trkpt>
      <trkpt lat="47.499976" lon="7.934175">
        <ele>440.225963</ele>
        <time>2021-11-21T07:10:06.873Z</time>
      </trkpt>
      <trkpt lat="47.499991" lon="7.934221">
        <ele>440.281450</ele>
        <time>2021-11-21T07:10:07.363Z</time>
      </trkpt>
      <trkpt lat="47.500077" lon="7.934300">
        <ele>440.445600</ele>
        <time>2021-11-21T07:10:09.509Z</time>
      </trkpt>
      <trkpt lat="47.500111" lon="7.934299">
        <ele>440.559082</ele>
        <time>2021-11-21T07:10:10.143Z</time>
      </trkpt>
      <trkpt lat="47.500121" lon="7.934400">
        <ele>440.789216</ele>
        <time>2021-11-21T07:10:12.336Z</time>
      </trkpt>
      <trkpt lat="47.500647" lon="7.936766">
        <ele>446.404651</ele>
        <time>2021-11-21T07:11:00.379Z</time>
      </trkpt>
      <trkpt lat="47.500700" lon="7.936982">
        <ele>447.121615</ele>
        <time>2021-11-21T07:11:05.342Z</time>
      </trkpt>
      <trkpt lat="47.500786" lon="7.937295">
        <ele>448.200539</ele>
        <time>2021-11-21T07:11:12.411Z</time>
      </trkpt>
      <trkpt lat="47.500922" lon="7.937675">
        <ele>449.573646</ele>
        <time>2021-11-21T07:11:21.825Z</time>
      </trkpt>
      <trkpt lat="47.501302" lon="7.938421">
        <ele>452.556881</ele>
        <time>2021-11-21T07:11:43.699Z</time>
      </trkpt>
      <trkpt lat="47.503196" lon="7.941586">
        <ele>468.087229</ele>
        <time>2021-11-21T07:13:27.507Z</time>
      </trkpt>
      <trkpt lat="47.503525" lon="7.942511">
        <ele>472.469669</ele>
        <time>2021-11-21T07:13:56.391Z</time>
      </trkpt>
      <trkpt lat="47.503757" lon="7.943678">
        <ele>477.653537</ele>
        <time>2021-11-21T07:14:30.647Z</time>
      </trkpt>
      <trkpt lat="47.503877" lon="7.944221">
        <ele>480.163921</ele>
        <time>2021-11-21T07:14:46.712Z</time>
      </trkpt>
      <trkpt lat="47.504206" lon="7.945339">
        <ele>485.522292</ele>
        <time>2021-11-21T07:15:20.139Z</time>
      </trkpt>
      <trkpt lat="47.504339" lon="7.946127">
        <ele>489.092075</ele>
        <time>2021-11-21T07:15:41.741Z</time>
      </trkpt>
      <trkpt lat="47.504360" lon="7.947339">
        <ele>494.422331</ele>
        <time>2021-11-21T07:16:16.508Z</time>
      </trkpt>
      <trkpt lat="47.504516" lon="7.948210">
        <ele>498.383941</ele>
        <time>2021-11-21T07:16:40.889Z</time>
      </trkpt>
      <trkpt lat="47.504564" lon="7.948438">
        <ele>499.418607</ele>
        <time>2021-11-21T07:16:48.015Z</time>
      </trkpt>
      <trkpt lat="47.504637" lon="7.948756">
        <ele>500.786150</ele>
        <time>2021-11-21T07:16:56.646Z</time>
      </trkpt>
      <trkpt lat="47.504833" lon="7.949650">
        <ele>504.613213</ele>
        <time>2021-11-21T07:17:21.417Z</time>
      </trkpt>
      <trkpt lat="47.505078" lon="7.950674">
        <ele>509.036470</ele>
        <time>2021-11-21T07:17:50.893Z</time>
      </trkpt>
      <trkpt lat="47.505298" lon="7.951312">
        <ele>511.739126</ele>
        <time>2021-11-21T07:18:08.163Z</time>
      </trkpt>
      <trkpt lat="47.505561" lon="7.951903">
        <ele>514.293560</ele>
        <time>2021-11-21T07:18:24.542Z</time>
      </trkpt>
      <trkpt lat="47.505724" lon="7.952248">
        <ele>515.813154</ele>
        <time>2021-11-21T07:18:34.439Z</time>
      </trkpt>
      <trkpt lat="47.506242" lon="7.953373">
        <ele>520.314263</ele>
        <time>2021-11-21T07:19:08.902Z</time>
      </trkpt>
      <trkpt lat="47.506403" lon="7.953752">
        <ele>521.293622</ele>
        <time>2021-11-21T07:19:20.331Z</time>
      </trkpt>
      <trkpt lat="47.506539" lon="7.954325">
        <ele>522.622161</ele>
        <time>2021-11-21T07:19:34.202Z</time>
      </trkpt>
      <trkpt lat="47.506555" lon="7.954505">
        <ele>523.019299</ele>
        <time>2021-11-21T07:19:38.569Z</time>
      </trkpt>
      <trkpt lat="47.506559" lon="7.954699">
        <ele>523.443865</ele>
        <time>2021-11-21T07:19:42.452Z</time>
      </trkpt>
      <trkpt lat="47.506560" lon="7.954845">
        <ele>523.763251</ele>
        <time>2021-11-21T07:19:44.715Z</time>
      </trkpt>
      <trkpt lat="47.506539" lon="7.955130">
        <ele>524.390377</ele>
        <time>2021-11-21T07:19:50.454Z</time>
      </trkpt>
      <trkpt lat="47.506484" lon="7.955438">
        <ele>525.087260</ele>
        <time>2021-11-21T07:19:52.853Z</time>
      </trkpt>
      <trkpt lat="47.506190" lon="7.956344">
        <ele>523.180399</ele>
        <time>2021-11-21T07:20:00.558Z</time>
      </trkpt>
      <trkpt lat="47.506053" lon="7.957072">
        <ele>521.026141</ele>
        <time>2021-11-21T07:20:05.722Z</time>
      </trkpt>
      <trkpt lat="47.506050" lon="7.957299">
        <ele>520.378931</ele>
        <time>2021-11-21T07:20:07.166Z</time>
      </trkpt>
      <trkpt lat="47.506050" lon="7.957397">
        <ele>520.099572</ele>
        <time>2021-11-21T07:20:07.716Z</time>
      </trkpt>
      <trkpt lat="47.506128" lon="7.958087">
        <ele>518.105309</ele>
        <time>2021-11-21T07:20:11.991Z</time>
      </trkpt>
      <trkpt lat="47.506363" lon="7.959196">
        <ele>512.296406</ele>
        <time>2021-11-21T07:20:18.899Z</time>
      </trkpt>
      <trkpt lat="47.506641" lon="7.959810">
        <ele>508.504534</ele>
        <time>2021-11-21T07:20:23.285Z</time>
      </trkpt>
      <trkpt lat="47.506874" lon="7.960127">
        <ele>506.101319</ele>
        <time>2021-11-21T07:20:26.146Z</time>
      </trkpt>
      <trkpt lat="47.507319" lon="7.960495">
        <ele>502.416965</ele>
        <time>2021-11-21T07:20:30.774Z</time>
      </trkpt>
      <trkpt lat="47.509248" lon="7.961556">
        <ele>487.569208</ele>
        <time>2021-11-21T07:20:49.291Z</time>
      </trkpt>
      <trkpt lat="47.509385" lon="7.961632">
        <ele>486.376581</ele>
        <time>2021-11-21T07:20:50.572Z</time>
      </trkpt>
      <trkpt lat="47.509788" lon="7.961854">
        <ele>482.871355</ele>
        <time>2021-11-21T07:20:54.333Z</time>
      </trkpt>
      <trkpt lat="47.510127" lon="7.962072">
        <ele>479.858455</ele>
        <time>2021-11-21T07:20:57.579Z</time>
      </trkpt>
      <trkpt lat="47.510301" lon="7.962209">
        <ele>478.251925</ele>
        <time>2021-11-21T07:20:59.290Z</time>
      </trkpt>
      <trkpt lat="47.510406" lon="7.962296">
        <ele>477.271054</ele>
        <time>2021-11-21T07:21:00.361Z</time>
      </trkpt>
      <trkpt lat="47.510552" lon="7.962453">
        <ele>475.863310</ele>
        <time>2021-11-21T07:21:01.950Z</time>
      </trkpt>
      <trkpt lat="47.510679" lon="7.962576">
        <ele>474.682389</ele>
        <time>2021-11-21T07:21:03.252Z</time>
      </trkpt>
      <trkpt lat="47.510706" lon="7.962606">
        <ele>474.419702</ele>
        <time>2021-11-21T07:21:03.551Z</time>
      </trkpt>
      <trkpt lat="47.510909" lon="7.962826">
        <ele>472.462072</ele>
        <time>2021-11-21T07:21:05.727Z</time>
      </trkpt>
      <trkpt lat="47.511697" lon="7.963783">
        <ele>464.531185</ele>
        <time>2021-11-21T07:21:14.799Z</time>
      </trkpt>
      <trkpt lat="47.511807" lon="7.963896">
        <ele>463.489358</ele>
        <time>2021-11-21T07:21:15.993Z</time>
      </trkpt>
      <trkpt lat="47.511885" lon="7.963977">
        <ele>462.968448</ele>
        <time>2021-11-21T07:21:16.891Z</time>
      </trkpt>
      <trkpt lat="47.512076" lon="7.964120">
        <ele>462.122501</ele>
        <time>2021-11-21T07:21:18.824Z</time>
      </trkpt>
      <trkpt lat="47.512806" lon="7.964495">
        <ele>459.068498</ele>
        <time>2021-11-21T07:21:26.166Z</time>
      </trkpt>
      <trkpt lat="47.513069" lon="7.964710">
        <ele>457.881083</ele>
        <time>2021-11-21T07:21:29.150Z</time>
      </trkpt>
      <trkpt lat="47.513387" lon="7.965176">
        <ele>456.112674</ele>
        <time>2021-11-21T07:21:34.130Z</time>
      </trkpt>
      <trkpt lat="47.513439" lon="7.965284">
        <ele>456.296975</ele>
        <time>2021-11-21T07:21:35.097Z</time>
      </trkpt>
      <trkpt lat="47.513496" lon="7.965435">
        <ele>456.592172</ele>
        <time>2021-11-21T07:21:36.859Z</time>
      </trkpt>
      <trkpt lat="47.513552" lon="7.965694">
        <ele>457.056253</ele>
        <time>2021-11-21T07:21:40.221Z</time>
      </trkpt>
      <trkpt lat="47.513574" lon="7.965795">
        <ele>457.237352</ele>
        <time>2021-11-21T07:21:41.254Z</time>
      </trkpt>
      <trkpt lat="47.513607" lon="7.966067">
        <ele>457.708951</ele>
        <time>2021-11-21T07:21:45.805Z</time>
      </trkpt>
      <trkpt lat="47.513677" lon="7.966493">
        <ele>458.457127</ele>
        <time>2021-11-21T07:21:52.203Z</time>
      </trkpt>
      <trkpt lat="47.513719" lon="7.966609">
        <ele>458.681730</ele>
        <time>2021-11-21T07:21:55.105Z</time>
      </trkpt>
      <trkpt lat="47.513963" lon="7.966968">
        <ele>459.550857</ele>
        <time>2021-11-21T07:22:05.378Z</time>
      </trkpt>
      <trkpt lat="47.514175" lon="7.967361">
        <ele>460.409159</ele>
        <time>2021-11-21T07:22:16.277Z</time>
      </trkpt>
      <trkpt lat="47.514265" lon="7.967596">
        <ele>461.371887</ele>
        <time>2021-11-21T07:22:24.527Z</time>
      </trkpt>
      <trkpt lat="47.514175" lon="7.967704">
        <ele>462.279869</ele>
        <time>2021-11-21T07:22:29.357Z</time>
      </trkpt>
      <trkpt lat="47.514050" lon="7.967928">
        <ele>463.818017</ele>
        <time>2021-11-21T07:22:39.096Z</time>
      </trkpt>
      <trkpt lat="47.513954" lon="7.968241">
        <ele>465.637768</ele>
        <time>2021-11-21T07:22:48.449Z</time>
      </trkpt>
      <trkpt lat="47.513956" lon="7.968306">
        <ele>465.982213</ele>
        <time>2021-11-21T07:22:51.145Z</time>
      </trkpt>
      <trkpt lat="47.514063" lon="7.968503">
        <ele>467.320435</ele>
        <time>2021-11-21T07:22:59.763Z</time>
      </trkpt>
      <trkpt lat="47.514192" lon="7.968881">
        <ele>469.562361</ele>
        <time>2021-11-21T07:23:14.575Z</time>
      </trkpt>
      <trkpt lat="47.514252" lon="7.969247">
        <ele>471.556084</ele>
        <time>2021-11-21T07:23:26.614Z</time>
      </trkpt>
      <trkpt lat="47.514251" lon="7.969369">
        <ele>472.201954</ele>
        <time>2021-11-21T07:23:32.099Z</time>
      </trkpt>
      <trkpt lat="47.514175" lon="7.969716">
        <ele>474.133012</ele>
        <time>2021-11-21T07:23:46.576Z</time>
      </trkpt>
      <trkpt lat="47.514100" lon="7.970085">
        <ele>477.178903</ele>
        <time>2021-11-21T07:24:03.377Z</time>
      </trkpt>
      <trkpt lat="47.514096" lon="7.970598">
        <ele>481.786517</ele>
        <time>2021-11-21T07:24:28.177Z</time>
      </trkpt>
      <trkpt lat="47.514085" lon="7.970901">
        <ele>484.511720</ele>
        <time>2021-11-21T07:24:43.495Z</time>
      </trkpt>
      <trkpt lat="47.514065" lon="7.971024">
        <ele>485.647958</ele>
        <time>2021-11-21T07:24:50.051Z</time>
      </trkpt>
      <trkpt lat="47.513918" lon="7.971521">
        <ele>490.520816</ele>
        <time>2021-11-21T07:25:18.245Z</time>
      </trkpt>
      <trkpt lat="47.513879" lon="7.971681">
        <ele>492.048513</ele>
        <time>2021-11-21T07:25:27.060Z</time>
      </trkpt>
      <trkpt lat="47.513840" lon="7.971891">
        <ele>494.004552</ele>
        <time>2021-11-21T07:25:38.697Z</time>
      </trkpt>
      <trkpt lat="47.513818" lon="7.972354">
        <ele>498.173102</ele>
        <time>2021-11-21T07:26:03.343Z</time>
      </trkpt>
      <trkpt lat="47.513785" lon="7.972598">
        <ele>500.532661</ele>
        <time>2021-11-21T07:26:16.686Z</time>
      </trkpt>
      <trkpt lat="47.513724" lon="7.972836">
        <ele>502.980626</ele>
        <time>2021-11-21T07:26:31.045Z</time>
      </trkpt>
      <trkpt lat="47.513109" lon="7.975074">
        <ele>525.555354</ele>
        <time>2021-11-21T07:28:39.000Z</time>
      </trkpt>
      <trkpt lat="47.512725" lon="7.975715">
        <ele>531.020952</ele>
        <time>2021-11-21T07:29:15.094Z</time>
      </trkpt>
      <trkpt lat="47.512616" lon="7.975859">
        <ele>532.400657</ele>
        <time>2021-11-21T07:29:24.015Z</time>
      </trkpt>
      <trkpt lat="47.512412" lon="7.976165">
        <ele>535.143368</ele>
        <time>2021-11-21T07:29:40.107Z</time>
      </trkpt>
      <trkpt lat="47.512200" lon="7.976779">
        <ele>539.542260</ele>
        <time>2021-11-21T07:30:03.488Z</time>
      </trkpt>
      <trkpt lat="47.512118" lon="7.977012">
        <ele>541.218266</ele>
        <time>2021-11-21T07:30:12.050Z</time>
      </trkpt>
      <trkpt lat="47.511857" lon="7.977310">
        <ele>542.381809</ele>
        <time>2021-11-21T07:30:26.832Z</time>
      </trkpt>
      <trkpt lat="47.511169" lon="7.978482">
        <ele>546.036645</ele>
        <time>2021-11-21T07:31:03.055Z</time>
      </trkpt>
      <trkpt lat="47.511094" lon="7.978570">
        <ele>546.370127</ele>
        <time>2021-11-21T07:31:06.327Z</time>
      </trkpt>
      <trkpt lat="47.511058" lon="7.978612">
        <ele>546.529848</ele>
        <time>2021-11-21T07:31:07.518Z</time>
      </trkpt>
      <trkpt lat="47.510754" lon="7.979067">
        <ele>547.307215</ele>
        <time>2021-11-21T07:31:16.550Z</time>
      </trkpt>
      <trkpt lat="47.510721" lon="7.979135">
        <ele>547.231364</ele>
        <time>2021-11-21T07:31:17.331Z</time>
      </trkpt>
      <trkpt lat="47.510628" lon="7.979350">
        <ele>547.000084</ele>
        <time>2021-11-21T07:31:21.239Z</time>
      </trkpt>
      <trkpt lat="47.510553" lon="7.979575">
        <ele>546.772791</ele>
        <time>2021-11-21T07:31:24.209Z</time>
      </trkpt>
      <trkpt lat="47.510427" lon="7.979928">
        <ele>546.411109</ele>
        <time>2021-11-21T07:31:29.570Z</time>
      </trkpt>
      <trkpt lat="47.510411" lon="7.979962">
        <ele>546.373570</ele>
        <time>2021-11-21T07:31:30.080Z</time>
      </trkpt>
      <trkpt lat="47.510389" lon="7.979980">
        <ele>546.339859</ele>
        <time>2021-11-21T07:31:30.545Z</time>
      </trkpt>
      <trkpt lat="47.510337" lon="7.979978">
        <ele>546.270096</ele>
        <time>2021-11-21T07:31:31.233Z</time>
      </trkpt>
      <trkpt lat="47.509027" lon="7.978788">
        <ele>541.702385</ele>
        <time>2021-11-21T07:31:54.637Z</time>
      </trkpt>
      <trkpt lat="47.508948" lon="7.978799">
        <ele>541.295845</ele>
        <time>2021-11-21T07:31:55.686Z</time>
      </trkpt>
      <trkpt lat="47.508881" lon="7.978903">
        <ele>540.798473</ele>
        <time>2021-11-21T07:31:57.007Z</time>
      </trkpt>
      <trkpt lat="47.508750" lon="7.979260">
        <ele>539.392439</ele>
        <time>2021-11-21T07:32:00.608Z</time>
      </trkpt>
      <trkpt lat="47.508546" lon="7.979750">
        <ele>537.400426</ele>
        <time>2021-11-21T07:32:05.640Z</time>
      </trkpt>
      <trkpt lat="47.508298" lon="7.980362">
        <ele>534.196934</ele>
        <time>2021-11-21T07:32:11.785Z</time>
      </trkpt>
      <trkpt lat="47.508160" lon="7.980614">
        <ele>532.208857</ele>
        <time>2021-11-21T07:32:14.488Z</time>
      </trkpt>
      <trkpt lat="47.507123" lon="7.982752">
        <ele>516.239259</ele>
        <time>2021-11-21T07:32:36.301Z</time>
      </trkpt>
      <trkpt lat="47.507055" lon="7.982858">
        <ele>515.384687</ele>
        <time>2021-11-21T07:32:37.533Z</time>
      </trkpt>
      <trkpt lat="47.507011" lon="7.982902">
        <ele>514.925169</ele>
        <time>2021-11-21T07:32:38.173Z</time>
      </trkpt>
      <trkpt lat="47.506875" lon="7.982899">
        <ele>513.748073</ele>
        <time>2021-11-21T07:32:39.887Z</time>
      </trkpt>
      <trkpt lat="47.506692" lon="7.982561">
        <ele>511.215804</ele>
        <time>2021-11-21T07:32:43.533Z</time>
      </trkpt>
      <trkpt lat="47.506233" lon="7.982148">
        <ele>506.567359</ele>
        <time>2021-11-21T07:32:50.280Z</time>
      </trkpt>
      <trkpt lat="47.505601" lon="7.981812">
        <ele>500.479473</ele>
        <time>2021-11-21T07:32:58.672Z</time>
      </trkpt>
      <trkpt lat="47.505399" lon="7.981833">
        <ele>498.577626</ele>
        <time>2021-11-21T07:33:01.216Z</time>
      </trkpt>
      <trkpt lat="47.505275" lon="7.981948">
        <ele>497.203351</ele>
        <time>2021-11-21T07:33:03.043Z</time>
      </trkpt>
      <trkpt lat="47.505164" lon="7.982187">
        <ele>495.363221</ele>
        <time>2021-11-21T07:33:05.466Z</time>
      </trkpt>
      <trkpt lat="47.505153" lon="7.982527">
        <ele>493.203622</ele>
        <time>2021-11-21T07:33:08.299Z</time>
      </trkpt>
      <trkpt lat="47.505235" lon="7.983158">
        <ele>489.126849</ele>
        <time>2021-11-21T07:33:13.581Z</time>
      </trkpt>
      <trkpt lat="47.505169" lon="7.983598">
        <ele>486.125112</ele>
        <time>2021-11-21T07:33:17.245Z</time>
      </trkpt>
      <trkpt lat="47.505014" lon="7.983996">
        <ele>482.716160</ele>
        <time>2021-11-21T07:33:20.978Z</time>
      </trkpt>
      <trkpt lat="47.504558" lon="7.985032">
        <ele>473.540729</ele>
        <time>2021-11-21T07:33:31.060Z</time>
      </trkpt>
      <trkpt lat="47.504408" lon="7.985264">
        <ele>471.157743</ele>
        <time>2021-11-21T07:33:33.654Z</time>
      </trkpt>
      <trkpt lat="47.503784" lon="7.986110">
        <ele>462.177306</ele>
        <time>2021-11-21T07:33:43.866Z</time>
      </trkpt>
      <trkpt lat="47.502975" lon="7.987226">
        <ele>450.726308</ele>
        <time>2021-11-21T07:33:57.330Z</time>
      </trkpt>
      <trkpt lat="47.502461" lon="7.987886">
        <ele>444.203555</ele>
        <time>2021-11-21T07:34:05.661Z</time>
      </trkpt>
      <trkpt lat="47.501201" lon="7.989503">
        <ele>429.068337</ele>
        <time>2021-11-21T07:34:26.263Z</time>
      </trkpt>
      <trkpt lat="47.498444" lon="7.993225">
        <ele>399.285081</ele>
        <time>2021-11-21T07:35:13.114Z</time>
      </trkpt>
      <trkpt lat="47.498171" lon="7.993563">
        <ele>396.885200</ele>
        <time>2021-11-21T07:35:17.655Z</time>
      </trkpt>
      <trkpt lat="47.497169" lon="7.994210">
        <ele>389.893875</ele>
        <time>2021-11-21T07:35:31.937Z</time>
      </trkpt>
      <trkpt lat="47.495891" lon="7.995038">
        <ele>384.256167</ele>
        <time>2021-11-21T07:35:51.641Z</time>
      </trkpt>
      <trkpt lat="47.495297" lon="7.995227">
        <ele>382.296259</ele>
        <time>2021-11-21T07:36:00.609Z</time>
      </trkpt>
      <trkpt lat="47.494770" lon="7.995288">
        <ele>380.919893</ele>
        <time>2021-11-21T07:36:08.347Z</time>
      </trkpt>
      <trkpt lat="47.494663" lon="7.995312">
        <ele>380.638110</ele>
        <time>2021-11-21T07:36:09.999Z</time>
      </trkpt>
      <trkpt lat="47.494655" lon="7.995343">
        <ele>380.579731</ele>
        <time>2021-11-21T07:36:10.249Z</time>
      </trkpt>
      <trkpt lat="47.494627" lon="7.995447">
        <ele>380.382779</ele>
        <time>2021-11-21T07:36:11.033Z</time>
      </trkpt>
      <trkpt lat="47.494368" lon="7.995845">
        <ele>379.410651</ele>
        <time>2021-11-21T07:36:15.084Z</time>
      </trkpt>
      <trkpt lat="47.494293" lon="7.995952">
        <ele>379.139414</ele>
        <time>2021-11-21T07:36:16.232Z</time>
      </trkpt>
      <trkpt lat="47.494203" lon="7.996025">
        <ele>378.872193</ele>
        <time>2021-11-21T07:36:17.325Z</time>
      </trkpt>
      <trkpt lat="47.493967" lon="7.996177">
        <ele>378.398041</ele>
        <time>2021-11-21T07:36:20.241Z</time>
      </trkpt>
      <trkpt lat="47.493868" lon="7.996295">
        <ele>378.277454</ele>
        <time>2021-11-21T07:36:21.644Z</time>
      </trkpt>
      <trkpt lat="47.493757" lon="7.996428">
        <ele>378.141970</ele>
        <time>2021-11-21T07:36:23.304Z</time>
      </trkpt>
      <trkpt lat="47.493684" lon="7.996562">
        <ele>378.031638</ele>
        <time>2021-11-21T07:36:24.596Z</time>
      </trkpt>
      <trkpt lat="47.493652" lon="7.996488">
        <ele>377.975323</ele>
        <time>2021-11-21T07:36:25.264Z</time>
      </trkpt>
      <trkpt lat="47.493567" lon="7.996156">
        <ele>377.747751</ele>
        <time>2021-11-21T07:36:28.055Z</time>
      </trkpt>
      <trkpt lat="47.493524" lon="7.995985">
        <ele>377.630798</ele>
        <time>2021-11-21T07:36:29.437Z</time>
      </trkpt>
      <trkpt lat="47.493430" lon="7.995894">
        <ele>377.524242</ele>
        <time>2021-11-21T07:36:30.887Z</time>
      </trkpt>
      <trkpt lat="47.492867" lon="7.995700">
        <ele>376.975862</ele>
        <time>2021-11-21T07:36:38.483Z</time>
      </trkpt>
      <trkpt lat="47.492390" lon="7.995213">
        <ele>377.122071</ele>
        <time>2021-11-21T07:36:48.421Z</time>
      </trkpt>
      <trkpt lat="47.492344" lon="7.995171">
        <ele>377.165210</ele>
        <time>2021-11-21T07:36:49.432Z</time>
      </trkpt>
      <trkpt lat="47.492271" lon="7.995104">
        <ele>377.233768</ele>
        <time>2021-11-21T07:36:51.047Z</time>
      </trkpt>
      <trkpt lat="47.492156" lon="7.994971">
        <ele>377.350255</ele>
        <time>2021-11-21T07:36:53.576Z</time>
      </trkpt>
      <trkpt lat="47.491996" lon="7.994807">
        <ele>377.505593</ele>
        <time>2021-11-21T07:36:58.256Z</time>
      </trkpt>
      <trkpt lat="47.491759" lon="7.994592">
        <ele>377.727460</ele>
        <time>2021-11-21T07:37:04.751Z</time>
      </trkpt>
      <trkpt lat="47.491577" lon="7.994479">
        <ele>377.884985</ele>
        <time>2021-11-21T07:37:09.508Z</time>
      </trkpt>
      <trkpt lat="47.491370" lon="7.994298">
        <ele>378.076881</ele>
        <time>2021-11-21T07:37:15.437Z</time>
      </trkpt>
      <trkpt lat="47.490495" lon="7.993473">
        <ele>379.300573</ele>
        <time>2021-11-21T07:37:41.667Z</time>
      </trkpt>
      <trkpt lat="47.489739" lon="7.992457">
        <ele>380.607113</ele>
        <time>2021-11-21T07:38:07.616Z</time>
      </trkpt>
      <trkpt lat="47.489640" lon="7.992334">
        <ele>380.787264</ele>
        <time>2021-11-21T07:38:10.885Z</time>
      </trkpt>
      <trkpt lat="47.489544" lon="7.992214">
        <ele>380.962398</ele>
        <time>2021-11-21T07:38:14.199Z</time>
      </trkpt>
      <trkpt lat="47.489090" lon="7.991643">
        <ele>381.792765</ele>
        <time>2021-11-21T07:38:29.223Z</time>
      </trkpt>
      <trkpt lat="47.488771" lon="7.991233">
        <ele>382.381613</ele>
        <time>2021-11-21T07:38:39.986Z</time>
      </trkpt>
      <trkpt lat="47.488698" lon="7.991149">
        <ele>382.510488</ele>
        <time>2021-11-21T07:38:42.468Z</time>
      </trkpt>
      <trkpt lat="47.487359" lon="7.989771">
        <ele>385.080723</ele>
        <time>2021-11-21T07:39:26.081Z</time>
      </trkpt>
      <trkpt lat="47.487298" lon="7.989709">
        <ele>385.201395</ele>
        <time>2021-11-21T07:39:28.391Z</time>
      </trkpt>
      <trkpt lat="47.487127" lon="7.989547">
        <ele>385.532484</ele>
        <time>2021-11-21T07:39:33.551Z</time>
      </trkpt>
      <trkpt lat="47.486511" lon="7.989012">
        <ele>386.668679</ele>
        <time>2021-11-21T07:39:52.760Z</time>
      </trkpt>
      <trkpt lat="47.486162" lon="7.988596">
        <ele>387.370845</ele>
        <time>2021-11-21T07:40:04.688Z</time>
      </trkpt>
      <trkpt lat="47.485848" lon="7.988106">
        <ele>388.085851</ele>
        <time>2021-11-21T07:40:16.841Z</time>
      </trkpt>
      <trkpt lat="47.485496" lon="7.987549">
        <ele>388.904715</ele>
        <time>2021-11-21T07:40:29.769Z</time>
      </trkpt>
      <trkpt lat="47.484679" lon="7.986270">
        <ele>390.967471</ele>
        <time>2021-11-21T07:41:01.903Z</time>
      </trkpt>
      <trkpt lat="47.484546" lon="7.985963">
        <ele>391.394882</ele>
        <time>2021-11-21T07:41:08.483Z</time>
      </trkpt>
      <trkpt lat="47.484451" lon="7.985647">
        <ele>391.800249</ele>
        <time>2021-11-21T07:41:15.518Z</time>
      </trkpt>
      <trkpt lat="47.484583" lon="7.985536">
        <ele>392.105191</ele>
        <time>2021-11-21T07:41:19.529Z</time>
      </trkpt>
      <trkpt lat="47.484655" lon="7.985405">
        <ele>392.355476</ele>
        <time>2021-11-21T07:41:22.935Z</time>
      </trkpt>
      <trkpt lat="47.484722" lon="7.985147">
        <ele>392.765156</ele>
        <time>2021-11-21T07:41:28.313Z</time>
      </trkpt>
      <trkpt lat="47.484873" lon="7.984557">
        <ele>393.700288</ele>
        <time>2021-11-21T07:41:40.542Z</time>
      </trkpt>
      <trkpt lat="47.484873" lon="7.984557">
        <ele>393.700288</ele>
        <time>2021-11-21T07:41:40.702Z</time>
      </trkpt>
      <trkpt lat="47.484805" lon="7.984493">
        <ele>393.877048</ele>
        <time>2021-11-21T07:41:42.543Z</time>
      </trkpt>
      <trkpt lat="47.484576" lon="7.984269">
        <ele>394.479144</ele>
        <time>2021-11-21T07:41:50.442Z</time>
      </trkpt>
      <trkpt lat="47.484503" lon="7.984189">
        <ele>394.678387</ele>
        <time>2021-11-21T07:41:53.175Z</time>
      </trkpt>
      <trkpt lat="47.484416" lon="7.984084">
        <ele>394.924629</ele>
        <time>2021-11-21T07:41:56.733Z</time>
      </trkpt>
      <trkpt lat="47.484093" lon="7.983526">
        <ele>396.001187</ele>
        <time>2021-11-21T07:42:10.843Z</time>
      </trkpt>
      <trkpt lat="47.483684" lon="7.982650">
        <ele>397.458124</ele>
        <time>2021-11-21T07:42:32.152Z</time>
      </trkpt>
      <trkpt lat="47.483271" lon="7.981947">
        <ele>398.732753</ele>
        <time>2021-11-21T07:42:50.003Z</time>
      </trkpt>
      <trkpt lat="47.483215" lon="7.981778">
        <ele>398.990311</ele>
        <time>2021-11-21T07:42:53.493Z</time>
      </trkpt>
      <trkpt lat="47.483163" lon="7.981476">
        <ele>399.416764</ele>
        <time>2021-11-21T07:42:59.151Z</time>
      </trkpt>
      <trkpt lat="47.483098" lon="7.981098">
        <ele>399.792849</ele>
        <time>2021-11-21T07:43:06.028Z</time>
      </trkpt>
      <trkpt lat="47.483044" lon="7.980941">
        <ele>399.950799</ele>
        <time>2021-11-21T07:43:09.192Z</time>
      </trkpt>
      <trkpt lat="47.482783" lon="7.980278">
        <ele>400.638754</ele>
        <time>2021-11-21T07:43:22.475Z</time>
      </trkpt>
      <trkpt lat="47.482652" lon="7.979991">
        <ele>400.949277</ele>
        <time>2021-11-21T07:43:28.590Z</time>
      </trkpt>
      <trkpt lat="47.482390" lon="7.979412">
        <ele>401.574046</ele>
        <time>2021-11-21T07:43:40.417Z</time>
      </trkpt>
      <trkpt lat="47.482365" lon="7.979348">
        <ele>401.640325</ele>
        <time>2021-11-21T07:43:41.594Z</time>
      </trkpt>
      <trkpt lat="47.482313" lon="7.979212">
        <ele>401.780429</ele>
        <time>2021-11-21T07:43:44.265Z</time>
      </trkpt>
      <trkpt lat="47.482213" lon="7.978952">
        <ele>402.025900</ele>
        <time>2021-11-21T07:43:49.029Z</time>
      </trkpt>
      <trkpt lat="47.481951" lon="7.978276">
        <ele>402.630583</ele>
        <time>2021-11-21T07:44:01.394Z</time>
      </trkpt>
      <trkpt lat="47.481746" lon="7.977834">
        <ele>403.046555</ele>
        <time>2021-11-21T07:44:09.942Z</time>
      </trkpt>
      <trkpt lat="47.481502" lon="7.977310">
        <ele>403.540329</ele>
        <time>2021-11-21T07:44:20.675Z</time>
      </trkpt>
      <trkpt lat="47.481386" lon="7.977048">
        <ele>403.783374</ele>
        <time>2021-11-21T07:44:25.968Z</time>
      </trkpt>
      <trkpt lat="47.481273" lon="7.976833">
        <ele>404.044739</ele>
        <time>2021-11-21T07:44:31.218Z</time>
      </trkpt>
      <trkpt lat="47.481229" lon="7.976752">
        <ele>404.206003</ele>
        <time>2021-11-21T07:44:32.968Z</time>
      </trkpt>
      <trkpt lat="47.481197" lon="7.976691">
        <ele>404.325833</ele>
        <time>2021-11-21T07:44:34.434Z</time>
      </trkpt>
      <trkpt lat="47.480897" lon="7.976328">
        <ele>405.215668</ele>
        <time>2021-11-21T07:44:45.390Z</time>
      </trkpt>
      <trkpt lat="47.480855" lon="7.976234">
        <ele>405.390534</ele>
        <time>2021-11-21T07:44:47.868Z</time>
      </trkpt>
      <trkpt lat="47.480771" lon="7.976044">
        <ele>405.742859</ele>
        <time>2021-11-21T07:44:52.127Z</time>
      </trkpt>
      <trkpt lat="47.480745" lon="7.975905">
        <ele>405.966669</ele>
        <time>2021-11-21T07:44:55.002Z</time>
      </trkpt>
      <trkpt lat="47.480690" lon="7.975603">
        <ele>406.452033</ele>
        <time>2021-11-21T07:45:01.606Z</time>
      </trkpt>
      <trkpt lat="47.480667" lon="7.975614">
        <ele>406.507534</ele>
        <time>2021-11-21T07:45:02.184Z</time>
      </trkpt>
      <trkpt lat="47.480598" lon="7.975631">
        <ele>406.668148</ele>
        <time>2021-11-21T07:45:03.908Z</time>
      </trkpt>
      <trkpt lat="47.480480" lon="7.975668">
        <ele>406.945107</ele>
        <time>2021-11-21T07:45:07.838Z</time>
      </trkpt>
      <trkpt lat="47.480410" lon="7.975696">
        <ele>407.111606</ele>
        <time>2021-11-21T07:45:10.332Z</time>
      </trkpt>
      <trkpt lat="47.480206" lon="7.975838">
        <ele>407.629259</ele>
        <time>2021-11-21T07:45:16.472Z</time>
      </trkpt>
      <trkpt lat="47.480120" lon="7.975940">
        <ele>407.882335</ele>
        <time>2021-11-21T07:45:20.156Z</time>
      </trkpt>
      <trkpt lat="47.480019" lon="7.976061">
        <ele>408.258814</ele>
        <time>2021-11-21T07:45:24.061Z</time>
      </trkpt>
      <trkpt lat="47.479744" lon="7.975611">
        <ele>409.892938</ele>
        <time>2021-11-21T07:45:35.076Z</time>
      </trkpt>
      <trkpt lat="47.479662" lon="7.975458">
        <ele>410.418902</ele>
        <time>2021-11-21T07:45:39.105Z</time>
      </trkpt>
      <trkpt lat="47.479650" lon="7.975428">
        <ele>410.512800</ele>
        <time>2021-11-21T07:45:39.893Z</time>
      </trkpt>
      <trkpt lat="47.479548" lon="7.975187">
        <ele>411.278727</ele>
        <time>2021-11-21T07:45:45.636Z</time>
      </trkpt>
      <trkpt lat="47.479521" lon="7.975122">
        <ele>411.484233</ele>
        <time>2021-11-21T07:45:47.237Z</time>
      </trkpt>
      <trkpt lat="47.479256" lon="7.974388">
        <ele>413.725718</ele>
        <time>2021-11-21T07:46:05.911Z</time>
      </trkpt>
      <trkpt lat="47.479198" lon="7.974266">
        <ele>414.127490</ele>
        <time>2021-11-21T07:46:09.669Z</time>
      </trkpt>
      <trkpt lat="47.479172" lon="7.974215">
        <ele>414.299561</ele>
        <time>2021-11-21T07:46:11.443Z</time>
      </trkpt>
      <trkpt lat="47.479095" lon="7.974066">
        <ele>414.804783</ele>
        <time>2021-11-21T07:46:15.720Z</time>
      </trkpt>
      <trkpt lat="47.479061" lon="7.974014">
        <ele>414.999668</ele>
        <time>2021-11-21T07:46:16.919Z</time>
      </trkpt>
      <trkpt lat="47.478952" lon="7.973850">
        <ele>415.624982</ele>
        <time>2021-11-21T07:46:21.996Z</time>
      </trkpt>
      <trkpt lat="47.478606" lon="7.973396">
        <ele>417.496263</ele>
        <time>2021-11-21T07:46:37.760Z</time>
      </trkpt>
      <trkpt lat="47.478494" lon="7.973191">
        <ele>418.217163</ele>
        <time>2021-11-21T07:46:42.635Z</time>
      </trkpt>
      <trkpt lat="47.478424" lon="7.973015">
        <ele>418.775646</ele>
        <time>2021-11-21T07:46:48.238Z</time>
      </trkpt>
      <trkpt lat="47.478295" lon="7.972689">
        <ele>419.808762</ele>
        <time>2021-11-21T07:46:55.582Z</time>
      </trkpt>
      <trkpt lat="47.478213" lon="7.972508">
        <ele>420.404682</ele>
        <time>2021-11-21T07:47:00.850Z</time>
      </trkpt>
      <trkpt lat="47.478198" lon="7.972475">
        <ele>420.513442</ele>
        <time>2021-11-21T07:47:01.644Z</time>
      </trkpt>
      <trkpt lat="47.478083" lon="7.972275">
        <ele>421.231569</ele>
        <time>2021-11-21T07:47:05.952Z</time>
      </trkpt>
      <trkpt lat="47.477778" lon="7.971876">
        <ele>422.651353</ele>
        <time>2021-11-21T07:47:18.057Z</time>
      </trkpt>
      <trkpt lat="47.477698" lon="7.971759">
        <ele>422.817174</ele>
        <time>2021-11-21T07:47:21.552Z</time>
      </trkpt>
      <trkpt lat="47.477623" lon="7.971640">
        <ele>422.979289</ele>
        <time>2021-11-21T07:47:23.800Z</time>
      </trkpt>
      <trkpt lat="47.477553" lon="7.971461">
        <ele>423.185335</ele>
        <time>2021-11-21T07:47:27.461Z</time>
      </trkpt>
      <trkpt lat="47.477522" lon="7.971381">
        <ele>423.277214</ele>
        <time>2021-11-21T07:47:29.450Z</time>
      </trkpt>
      <trkpt lat="47.477370" lon="7.970827">
        <ele>423.872934</ele>
        <time>2021-11-21T07:47:37.830Z</time>
      </trkpt>
      <trkpt lat="47.477322" lon="7.970682">
        <ele>424.033801</ele>
        <time>2021-11-21T07:47:39.953Z</time>
      </trkpt>
      <trkpt lat="47.477284" lon="7.970600">
        <ele>424.132862</ele>
        <time>2021-11-21T07:47:40.892Z</time>
      </trkpt>
      <trkpt lat="47.477262" lon="7.970548">
        <ele>424.193985</ele>
        <time>2021-11-21T07:47:41.687Z</time>
      </trkpt>
      <trkpt lat="47.477203" lon="7.970445">
        <ele>424.328507</ele>
        <time>2021-11-21T07:47:43.499Z</time>
      </trkpt>
      <trkpt lat="47.477135" lon="7.970342">
        <ele>424.471964</ele>
        <time>2021-11-21T07:47:45.190Z</time>
      </trkpt>
      <trkpt lat="47.477029" lon="7.970212">
        <ele>424.674927</ele>
        <time>2021-11-21T07:47:46.953Z</time>
      </trkpt>
      <trkpt lat="47.476944" lon="7.970103">
        <ele>424.840743</ele>
        <time>2021-11-21T07:47:48.855Z</time>
      </trkpt>
      <trkpt lat="47.476670" lon="7.969631">
        <ele>425.478322</ele>
        <time>2021-11-21T07:47:54.585Z</time>
      </trkpt>
      <trkpt lat="47.476396" lon="7.969182">
        <ele>426.117954</ele>
        <time>2021-11-21T07:48:01.825Z</time>
      </trkpt>
      <trkpt lat="47.476327" lon="7.969094">
        <ele>426.260466</ele>
        <time>2021-11-21T07:48:03.378Z</time>
      </trkpt>
      <trkpt lat="47.476103" lon="7.968806">
        <ele>426.724720</ele>
        <time>2021-11-21T07:48:09.277Z</time>
      </trkpt>
      <trkpt lat="47.475871" lon="7.968576">
        <ele>427.161606</ele>
        <time>2021-11-21T07:48:15.914Z</time>
      </trkpt>
      <trkpt lat="47.475729" lon="7.968403">
        <ele>427.449374</ele>
        <time>2021-11-21T07:48:20.148Z</time>
      </trkpt>
      <trkpt lat="47.475684" lon="7.968334">
        <ele>427.550759</ele>
        <time>2021-11-21T07:48:21.602Z</time>
      </trkpt>
      <trkpt lat="47.475616" lon="7.968229">
        <ele>427.704522</ele>
        <time>2021-11-21T07:48:23.800Z</time>
      </trkpt>
      <trkpt lat="47.475312" lon="7.968548">
        <ele>429.145100</ele>
        <time>2021-11-21T07:48:33.922Z</time>
      </trkpt>
      <trkpt lat="47.474879" lon="7.968783">
        <ele>431.919435</ele>
        <time>2021-11-21T07:48:48.679Z</time>
      </trkpt>
      <trkpt lat="47.474555" lon="7.968862">
        <ele>433.894677</ele>
        <time>2021-11-21T07:49:01.581Z</time>
      </trkpt>
      <trkpt lat="47.474238" lon="7.968922">
        <ele>435.817063</ele>
        <time>2021-11-21T07:49:15.883Z</time>
      </trkpt>
      <trkpt lat="47.473628" lon="7.969058">
        <ele>439.638465</ele>
        <time>2021-11-21T07:49:45.993Z</time>
      </trkpt>
      <trkpt lat="47.472626" lon="7.969301">
        <ele>446.681861</ele>
        <time>2021-11-21T07:50:34.670Z</time>
      </trkpt>
      <trkpt lat="47.471877" lon="7.969497">
        <ele>451.319825</ele>
        <time>2021-11-21T07:51:02.672Z</time>
      </trkpt>
      <trkpt lat="47.471196" lon="7.969654">
        <ele>451.585523</ele>
        <time>2021-11-21T07:51:20.204Z</time>
      </trkpt>
      <trkpt lat="47.469542" lon="7.970235">
        <ele>450.674687</ele>
        <time>2021-11-21T07:51:38.528Z</time>
      </trkpt>
      <trkpt lat="47.469339" lon="7.970255">
        <ele>450.289976</ele>
        <time>2021-11-21T07:51:40.546Z</time>
      </trkpt>
      <trkpt lat="47.469022" lon="7.970240">
        <ele>449.690243</ele>
        <time>2021-11-21T07:51:43.879Z</time>
      </trkpt>
      <trkpt lat="47.468142" lon="7.970113">
        <ele>448.820317</ele>
        <time>2021-11-21T07:51:54.966Z</time>
      </trkpt>
      <trkpt lat="47.467469" lon="7.970226">
        <ele>449.386284</ele>
        <time>2021-11-21T07:52:05.494Z</time>
      </trkpt>
      <trkpt lat="47.467356" lon="7.970255">
        <ele>449.482117</ele>
        <time>2021-11-21T07:52:08.858Z</time>
      </trkpt>
      <trkpt lat="47.467243" lon="7.970284">
        <ele>449.577950</ele>
        <time>2021-11-21T07:52:11.092Z</time>
      </trkpt>
      <trkpt lat="47.466575" lon="7.970455">
        <ele>450.231963</ele>
        <time>2021-11-21T07:52:26.637Z</time>
      </trkpt>
      <trkpt lat="47.466209" lon="7.970465">
        <ele>450.937757</ele>
        <time>2021-11-21T07:52:35.315Z</time>
      </trkpt>
      <trkpt lat="47.465838" lon="7.970388">
        <ele>451.660077</ele>
        <time>2021-11-21T07:52:44.433Z</time>
      </trkpt>
      <trkpt lat="47.465273" lon="7.970155">
        <ele>452.790979</ele>
        <time>2021-11-21T07:52:56.587Z</time>
      </trkpt>
      <trkpt lat="47.464851" lon="7.969824">
        <ele>453.702120</ele>
        <time>2021-11-21T07:53:07.451Z</time>
      </trkpt>
      <trkpt lat="47.463869" lon="7.968734">
        <ele>455.929785</ele>
        <time>2021-11-21T07:53:34.280Z</time>
      </trkpt>
      <trkpt lat="47.463713" lon="7.968547">
        <ele>456.294118</ele>
        <time>2021-11-21T07:53:38.979Z</time>
      </trkpt>
      <trkpt lat="47.463389" lon="7.968088">
        <ele>457.144417</ele>
        <time>2021-11-21T07:53:48.768Z</time>
      </trkpt>
      <trkpt lat="47.463153" lon="7.967669">
        <ele>457.894523</ele>
        <time>2021-11-21T07:53:56.982Z</time>
      </trkpt>
      <trkpt lat="47.462955" lon="7.967287">
        <ele>458.556589</ele>
        <time>2021-11-21T07:54:04.508Z</time>
      </trkpt>
      <trkpt lat="47.462416" lon="7.966027">
        <ele>460.598335</ele>
        <time>2021-11-21T07:54:27.970Z</time>
      </trkpt>
      <trkpt lat="47.462208" lon="7.965649">
        <ele>461.224855</ele>
        <time>2021-11-21T07:54:36.051Z</time>
      </trkpt>
      <trkpt lat="47.461753" lon="7.965074">
        <ele>462.362759</ele>
        <time>2021-11-21T07:54:49.960Z</time>
      </trkpt>
      <trkpt lat="47.461085" lon="7.964391">
        <ele>463.901299</ele>
        <time>2021-11-21T07:55:07.389Z</time>
      </trkpt>
      <trkpt lat="47.460768" lon="7.963901">
        <ele>464.514996</ele>
        <time>2021-11-21T07:55:16.858Z</time>
      </trkpt>
      <trkpt lat="47.460551" lon="7.963411">
        <ele>465.045057</ele>
        <time>2021-11-21T07:55:24.375Z</time>
      </trkpt>
      <trkpt lat="47.460489" lon="7.963238">
        <ele>465.222241</ele>
        <time>2021-11-21T07:55:26.572Z</time>
      </trkpt>
      <trkpt lat="47.460405" lon="7.962956">
        <ele>465.501096</ele>
        <time>2021-11-21T07:55:30.692Z</time>
      </trkpt>
      <trkpt lat="47.460083" lon="7.961991">
        <ele>466.626346</ele>
        <time>2021-11-21T07:55:45.319Z</time>
      </trkpt>
      <trkpt lat="47.459581" lon="7.961147">
        <ele>468.502424</ele>
        <time>2021-11-21T07:56:03.323Z</time>
      </trkpt>
      <trkpt lat="47.459416" lon="7.960954">
        <ele>469.021698</ele>
        <time>2021-11-21T07:56:08.577Z</time>
      </trkpt>
      <trkpt lat="47.459280" lon="7.960788">
        <ele>469.456965</ele>
        <time>2021-11-21T07:56:13.182Z</time>
      </trkpt>
      <trkpt lat="47.459074" lon="7.960615">
        <ele>470.041723</ele>
        <time>2021-11-21T07:56:19.240Z</time>
      </trkpt>
      <trkpt lat="47.458898" lon="7.960485">
        <ele>470.527337</ele>
        <time>2021-11-21T07:56:24.857Z</time>
      </trkpt>
      <trkpt lat="47.457199" lon="7.959536">
        <ele>476.513491</ele>
        <time>2021-11-21T07:57:16.629Z</time>
      </trkpt>
      <trkpt lat="47.456734" lon="7.959350">
        <ele>478.299831</ele>
        <time>2021-11-21T07:57:29.383Z</time>
      </trkpt>
      <trkpt lat="47.455967" lon="7.959329">
        <ele>481.190579</ele>
        <time>2021-11-21T07:57:51.608Z</time>
      </trkpt>
      <trkpt lat="47.455234" lon="7.959555">
        <ele>484.227111</ele>
        <time>2021-11-21T07:58:15.970Z</time>
      </trkpt>
      <trkpt lat="47.455065" lon="7.959595">
        <ele>485.150541</ele>
        <time>2021-11-21T07:58:21.558Z</time>
      </trkpt>
      <trkpt lat="47.454959" lon="7.959615">
        <ele>485.727091</ele>
        <time>2021-11-21T07:58:25.469Z</time>
      </trkpt>
      <trkpt lat="47.454626" lon="7.959663">
        <ele>487.532281</ele>
        <time>2021-11-21T07:58:37.279Z</time>
      </trkpt>
      <trkpt lat="47.453337" lon="7.959692">
        <ele>494.506258</ele>
        <time>2021-11-21T07:59:27.075Z</time>
      </trkpt>
      <trkpt lat="47.450176" lon="7.960171">
        <ele>510.843858</ele>
        <time>2021-11-21T08:01:22.091Z</time>
      </trkpt>
      <trkpt lat="47.449207" lon="7.960269">
        <ele>512.592263</ele>
        <time>2021-11-21T08:01:46.287Z</time>
      </trkpt>
      <trkpt lat="47.449168" lon="7.960272">
        <ele>512.634911</ele>
        <time>2021-11-21T08:01:46.675Z</time>
      </trkpt>
      <trkpt lat="47.448152" lon="7.960399">
        <ele>513.666732</ele>
        <time>2021-11-21T08:02:02.081Z</time>
      </trkpt>
      <trkpt lat="47.446978" lon="7.960776">
        <ele>512.882430</ele>
        <time>2021-11-21T08:02:15.827Z</time>
      </trkpt>
      <trkpt lat="47.446265" lon="7.961081">
        <ele>512.939184</ele>
        <time>2021-11-21T08:02:27.239Z</time>
      </trkpt>
      <trkpt lat="47.445731" lon="7.961482">
        <ele>514.238919</ele>
        <time>2021-11-21T08:02:39.750Z</time>
      </trkpt>
      <trkpt lat="47.445632" lon="7.961583">
        <ele>514.499938</ele>
        <time>2021-11-21T08:02:42.895Z</time>
      </trkpt>
      <trkpt lat="47.445405" lon="7.961813">
        <ele>515.097118</ele>
        <time>2021-11-21T08:02:49.957Z</time>
      </trkpt>
      <trkpt lat="47.445186" lon="7.962043">
        <ele>515.680060</ele>
        <time>2021-11-21T08:02:57.071Z</time>
      </trkpt>
      <trkpt lat="47.444993" lon="7.962238">
        <ele>516.187340</ele>
        <time>2021-11-21T08:03:03.739Z</time>
      </trkpt>
      <trkpt lat="47.444976" lon="7.962255">
        <ele>516.231877</ele>
        <time>2021-11-21T08:03:04.309Z</time>
      </trkpt>
      <trkpt lat="47.444826" lon="7.962406">
        <ele>516.841795</ele>
        <time>2021-11-21T08:03:09.423Z</time>
      </trkpt>
      <trkpt lat="47.444267" lon="7.962981">
        <ele>519.921987</ele>
        <time>2021-11-21T08:03:31.367Z</time>
      </trkpt>
      <trkpt lat="47.443323" lon="7.963902">
        <ele>525.174701</ele>
        <time>2021-11-21T08:04:10.080Z</time>
      </trkpt>
      <trkpt lat="47.443282" lon="7.963930">
        <ele>525.437797</ele>
        <time>2021-11-21T08:04:12.321Z</time>
      </trkpt>
      <trkpt lat="47.443115" lon="7.964042">
        <ele>526.506075</ele>
        <time>2021-11-21T08:04:18.359Z</time>
      </trkpt>
      <trkpt lat="47.442282" lon="7.964392">
        <ele>531.550943</ele>
        <time>2021-11-21T08:04:49.472Z</time>
      </trkpt>
      <trkpt lat="47.441371" lon="7.965446">
        <ele>539.302960</ele>
        <time>2021-11-21T08:05:38.705Z</time>
      </trkpt>
      <trkpt lat="47.441328" lon="7.965473">
        <ele>539.659975</ele>
        <time>2021-11-21T08:05:42.850Z</time>
      </trkpt>
      <trkpt lat="47.441204" lon="7.965554">
        <ele>540.695960</ele>
        <time>2021-11-21T08:05:48.816Z</time>
      </trkpt>
      <trkpt lat="47.440933" lon="7.965666">
        <ele>542.846356</ele>
        <time>2021-11-21T08:06:02.481Z</time>
      </trkpt>
      <trkpt lat="47.440543" lon="7.965818">
        <ele>545.928587</ele>
        <time>2021-11-21T08:06:21.143Z</time>
      </trkpt>
      <trkpt lat="47.440012" lon="7.966095">
        <ele>549.920029</ele>
        <time>2021-11-21T08:06:45.060Z</time>
      </trkpt>
      <trkpt lat="47.439942" lon="7.966121">
        <ele>550.352699</ele>
        <time>2021-11-21T08:06:50.701Z</time>
      </trkpt>
      <trkpt lat="47.439807" lon="7.966143">
        <ele>551.166887</ele>
        <time>2021-11-21T08:06:56.094Z</time>
      </trkpt>
      <trkpt lat="47.439737" lon="7.966170">
        <ele>551.600562</ele>
        <time>2021-11-21T08:06:58.380Z</time>
      </trkpt>
      <trkpt lat="47.439678" lon="7.966197">
        <ele>551.970806</ele>
        <time>2021-11-21T08:07:00.770Z</time>
      </trkpt>
      <trkpt lat="47.439676" lon="7.965961">
        <ele>552.927772</ele>
        <time>2021-11-21T08:07:07.977Z</time>
      </trkpt>
      <trkpt lat="47.439896" lon="7.964753">
        <ele>558.000197</ele>
        <time>2021-11-21T08:07:39.464Z</time>
      </trkpt>
      <trkpt lat="47.439879" lon="7.963594">
        <ele>560.853838</ele>
        <time>2021-11-21T08:08:04.405Z</time>
      </trkpt>
      <trkpt lat="47.439883" lon="7.963536">
        <ele>560.950860</ele>
        <time>2021-11-21T08:08:06.856Z</time>
      </trkpt>
      <trkpt lat="47.439896" lon="7.963430">
        <ele>561.130138</ele>
        <time>2021-11-21T08:08:08.399Z</time>
      </trkpt>
      <trkpt lat="47.439904" lon="7.963387">
        <ele>561.204355</ele>
        <time>2021-11-21T08:08:08.988Z</time>
      </trkpt>
      <trkpt lat="47.439934" lon="7.963205">
        <ele>561.516098</ele>
        <time>2021-11-21T08:08:11.878Z</time>
      </trkpt>
      <trkpt lat="47.439978" lon="7.962938">
        <ele>561.973428</ele>
        <time>2021-11-21T08:08:17.643Z</time>
      </trkpt>
      <trkpt lat="47.439994" lon="7.962853">
        <ele>562.120257</ele>
        <time>2021-11-21T08:08:18.758Z</time>
      </trkpt>
      <trkpt lat="47.440007" lon="7.962723">
        <ele>562.338950</ele>
        <time>2021-11-21T08:08:20.466Z</time>
      </trkpt>
      <trkpt lat="47.440011" lon="7.962659">
        <ele>562.445910</ele>
        <time>2021-11-21T08:08:22.025Z</time>
      </trkpt>
      <trkpt lat="47.439862" lon="7.961119">
        <ele>563.564108</ele>
        <time>2021-11-21T08:08:38.978Z</time>
      </trkpt>
      <trkpt lat="47.439858" lon="7.960872">
        <ele>563.394468</ele>
        <time>2021-11-21T08:08:40.752Z</time>
      </trkpt>
      <trkpt lat="47.439909" lon="7.960605">
        <ele>563.203975</ele>
        <time>2021-11-21T08:08:43.040Z</time>
      </trkpt>
      <trkpt lat="47.439936" lon="7.960525">
        <ele>563.142588</ele>
        <time>2021-11-21T08:08:44.495Z</time>
      </trkpt>
      <trkpt lat="47.439964" lon="7.960470">
        <ele>563.095323</ele>
        <time>2021-11-21T08:08:44.904Z</time>
      </trkpt>
      <trkpt lat="47.440212" lon="7.960199">
        <ele>562.782270</ele>
        <time>2021-11-21T08:08:48.877Z</time>
      </trkpt>
      <trkpt lat="47.440264" lon="7.960181">
        <ele>562.728055</ele>
        <time>2021-11-21T08:08:49.348Z</time>
      </trkpt>
      <trkpt lat="47.440324" lon="7.960176">
        <ele>562.667050</ele>
        <time>2021-11-21T08:08:50.036Z</time>
      </trkpt>
      <trkpt lat="47.440419" lon="7.960172">
        <ele>562.570573</ele>
        <time>2021-11-21T08:08:51.185Z</time>
      </trkpt>
      <trkpt lat="47.440544" lon="7.960192">
        <ele>562.442940</ele>
        <time>2021-11-21T08:08:52.893Z</time>
      </trkpt>
      <trkpt lat="47.440869" lon="7.960279">
        <ele>562.228974</ele>
        <time>2021-11-21T08:08:56.625Z</time>
      </trkpt>
      <trkpt lat="47.441074" lon="7.960255">
        <ele>562.441368</ele>
        <time>2021-11-21T08:08:58.850Z</time>
      </trkpt>
      <trkpt lat="47.441281" lon="7.960073">
        <ele>562.690110</ele>
        <time>2021-11-21T08:09:02.487Z</time>
      </trkpt>
      <trkpt lat="47.441658" lon="7.959533">
        <ele>563.232244</ele>
        <time>2021-11-21T08:09:08.943Z</time>
      </trkpt>
      <trkpt lat="47.442070" lon="7.959339">
        <ele>563.678830</ele>
        <time>2021-11-21T08:09:18.311Z</time>
      </trkpt>
      <trkpt lat="47.442137" lon="7.959350">
        <ele>563.748455</ele>
        <time>2021-11-21T08:09:22.651Z</time>
      </trkpt>
      <trkpt lat="47.442302" lon="7.959406">
        <ele>563.923305</ele>
        <time>2021-11-21T08:09:26.578Z</time>
      </trkpt>
      <trkpt lat="47.442431" lon="7.959459">
        <ele>564.253062</ele>
        <time>2021-11-21T08:09:30.423Z</time>
      </trkpt>
      <trkpt lat="47.442504" lon="7.959467">
        <ele>564.729700</ele>
        <time>2021-11-21T08:09:34.986Z</time>
      </trkpt>
      <trkpt lat="47.443343" lon="7.959453">
        <ele>570.193129</ele>
        <time>2021-11-21T08:10:05.635Z</time>
      </trkpt>
      <trkpt lat="47.443496" lon="7.959438">
        <ele>571.191564</ele>
        <time>2021-11-21T08:10:11.156Z</time>
      </trkpt>
      <trkpt lat="47.443571" lon="7.959413">
        <ele>571.692176</ele>
        <time>2021-11-21T08:10:17.009Z</time>
      </trkpt>
      <trkpt lat="47.443720" lon="7.959271">
        <ele>572.846445</ele>
        <time>2021-11-21T08:10:23.389Z</time>
      </trkpt>
      <trkpt lat="47.443914" lon="7.958964">
        <ele>574.696713</ele>
        <time>2021-11-21T08:10:36.669Z</time>
      </trkpt>
      <trkpt lat="47.444188" lon="7.958233">
        <ele>579.164927</ele>
        <time>2021-11-21T08:11:05.060Z</time>
      </trkpt>
      <trkpt lat="47.444407" lon="7.957243">
        <ele>585.120588</ele>
        <time>2021-11-21T08:11:42.591Z</time>
      </trkpt>
      <trkpt lat="47.444409" lon="7.956577">
        <ele>588.928625</ele>
        <time>2021-11-21T08:12:03.370Z</time>
      </trkpt>
      <trkpt lat="47.444384" lon="7.956138">
        <ele>591.303580</ele>
        <time>2021-11-21T08:12:17.037Z</time>
      </trkpt>
      <trkpt lat="47.444371" lon="7.955878">
        <ele>592.368347</ele>
        <time>2021-11-21T08:12:24.604Z</time>
      </trkpt>
      <trkpt lat="47.444374" lon="7.955426">
        <ele>594.214455</ele>
        <time>2021-11-21T08:12:37.329Z</time>
      </trkpt>
      <trkpt lat="47.444431" lon="7.955161">
        <ele>595.350163</ele>
        <time>2021-11-21T08:12:45.091Z</time>
      </trkpt>
      <trkpt lat="47.445043" lon="7.953752">
        <ele>602.096771</ele>
        <time>2021-11-21T08:13:26.441Z</time>
      </trkpt>
      <trkpt lat="47.445190" lon="7.953050">
        <ele>604.375324</ele>
        <time>2021-11-21T08:13:43.001Z</time>
      </trkpt>
      <trkpt lat="47.445277" lon="7.952896">
        <ele>604.997487</ele>
        <time>2021-11-21T08:13:47.555Z</time>
      </trkpt>
      <trkpt lat="47.445733" lon="7.952446">
        <ele>607.510914</ele>
        <time>2021-11-21T08:14:05.369Z</time>
      </trkpt>
      <trkpt lat="47.445832" lon="7.952260">
        <ele>608.244801</ele>
        <time>2021-11-21T08:14:10.670Z</time>
      </trkpt>
      <trkpt lat="47.445906" lon="7.952081">
        <ele>608.895277</ele>
        <time>2021-11-21T08:14:15.288Z</time>
      </trkpt>
      <trkpt lat="47.446082" lon="7.951692">
        <ele>610.289106</ele>
        <time>2021-11-21T08:14:24.581Z</time>
      </trkpt>
      <trkpt lat="47.446253" lon="7.951461">
        <ele>611.144713</ele>
        <time>2021-11-21T08:14:32.737Z</time>
      </trkpt>
      <trkpt lat="47.446713" lon="7.951341">
        <ele>612.870227</ele>
        <time>2021-11-21T08:14:48.051Z</time>
      </trkpt>
      <trkpt lat="47.446952" lon="7.951343">
        <ele>613.753124</ele>
        <time>2021-11-21T08:14:56.092Z</time>
      </trkpt>
      <trkpt lat="47.446999" lon="7.951346">
        <ele>613.926907</ele>
        <time>2021-11-21T08:14:57.614Z</time>
      </trkpt>
      <trkpt lat="47.447532" lon="7.951475">
        <ele>615.922045</ele>
        <time>2021-11-21T08:15:11.603Z</time>
      </trkpt>
      <trkpt lat="47.447587" lon="7.951456">
        <ele>616.130690</ele>
        <time>2021-11-21T08:15:12.695Z</time>
      </trkpt>
      <trkpt lat="47.447641" lon="7.951415">
        <ele>616.354929</ele>
        <time>2021-11-21T08:15:15.551Z</time>
      </trkpt>
      <trkpt lat="47.447781" lon="7.951149">
        <ele>616.854141</ele>
        <time>2021-11-21T08:15:20.401Z</time>
      </trkpt>
      <trkpt lat="47.447993" lon="7.950057">
        <ele>617.751013</ele>
        <time>2021-11-21T08:15:37.402Z</time>
      </trkpt>
      <trkpt lat="47.448162" lon="7.949710">
        <ele>618.088589</ele>
        <time>2021-11-21T08:15:43.615Z</time>
      </trkpt>
      <trkpt lat="47.448314" lon="7.949566">
        <ele>618.299315</ele>
        <time>2021-11-21T08:15:47.716Z</time>
      </trkpt>
      <trkpt lat="47.448451" lon="7.949520">
        <ele>618.463312</ele>
        <time>2021-11-21T08:15:50.017Z</time>
      </trkpt>
      <trkpt lat="47.449418" lon="7.949404">
        <ele>617.085958</ele>
        <time>2021-11-21T08:16:01.302Z</time>
      </trkpt>
      <trkpt lat="47.449549" lon="7.949269">
        <ele>616.687906</ele>
        <time>2021-11-21T08:16:03.089Z</time>
      </trkpt>
      <trkpt lat="47.449791" lon="7.948794">
        <ele>615.685323</ele>
        <time>2021-11-21T08:16:07.148Z</time>
      </trkpt>
      <trkpt lat="47.450004" lon="7.948575">
        <ele>615.038596</ele>
        <time>2021-11-21T08:16:09.730Z</time>
      </trkpt>
      <trkpt lat="47.450135" lon="7.948495">
        <ele>614.685271</ele>
        <time>2021-11-21T08:16:11.131Z</time>
      </trkpt>
      <trkpt lat="47.450205" lon="7.948459">
        <ele>614.500515</ele>
        <time>2021-11-21T08:16:11.864Z</time>
      </trkpt>
      <trkpt lat="47.450539" lon="7.948213">
        <ele>613.173459</ele>
        <time>2021-11-21T08:16:15.474Z</time>
      </trkpt>
      <trkpt lat="47.450567" lon="7.948175">
        <ele>613.027989</ele>
        <time>2021-11-21T08:16:15.836Z</time>
      </trkpt>
      <trkpt lat="47.450592" lon="7.948134">
        <ele>612.885090</ele>
        <time>2021-11-21T08:16:16.209Z</time>
      </trkpt>
      <trkpt lat="47.450637" lon="7.948032">
        <ele>612.569851</ele>
        <time>2021-11-21T08:16:16.977Z</time>
      </trkpt>
      <trkpt lat="47.450665" lon="7.947928">
        <ele>612.280104</ele>
        <time>2021-11-21T08:16:17.713Z</time>
      </trkpt>
      <trkpt lat="47.450764" lon="7.947491">
        <ele>611.087177</ele>
        <time>2021-11-21T08:16:20.719Z</time>
      </trkpt>
      <trkpt lat="47.450994" lon="7.946647">
        <ele>608.731837</ele>
        <time>2021-11-21T08:16:26.836Z</time>
      </trkpt>
      <trkpt lat="47.451058" lon="7.946540">
        <ele>608.362081</ele>
        <time>2021-11-21T08:16:27.750Z</time>
      </trkpt>
      <trkpt lat="47.451170" lon="7.946404">
        <ele>607.807365</ele>
        <time>2021-11-21T08:16:29.312Z</time>
      </trkpt>
      <trkpt lat="47.451332" lon="7.946292">
        <ele>607.123654</ele>
        <time>2021-11-21T08:16:31.064Z</time>
      </trkpt>
      <trkpt lat="47.451393" lon="7.946246">
        <ele>606.862249</ele>
        <time>2021-11-21T08:16:31.750Z</time>
      </trkpt>
      <trkpt lat="47.451666" lon="7.946053">
        <ele>605.707069</ele>
        <time>2021-11-21T08:16:34.795Z</time>
      </trkpt>
      <trkpt lat="47.451848" lon="7.945864">
        <ele>604.858064</ele>
        <time>2021-11-21T08:16:37.191Z</time>
      </trkpt>
      <trkpt lat="47.451920" lon="7.945696">
        <ele>604.344602</ele>
        <time>2021-11-21T08:16:38.484Z</time>
      </trkpt>
      <trkpt lat="47.452004" lon="7.945500">
        <ele>603.745564</ele>
        <time>2021-11-21T08:16:40.072Z</time>
      </trkpt>
      <trkpt lat="47.452130" lon="7.945001">
        <ele>602.370515</ele>
        <time>2021-11-21T08:16:43.560Z</time>
      </trkpt>
      <trkpt lat="47.452193" lon="7.944664">
        <ele>601.467917</ele>
        <time>2021-11-21T08:16:45.782Z</time>
      </trkpt>
      <trkpt lat="47.452205" lon="7.944436">
        <ele>600.877556</ele>
        <time>2021-11-21T08:16:47.376Z</time>
      </trkpt>
      <trkpt lat="47.452197" lon="7.944338">
        <ele>600.622732</ele>
        <time>2021-11-21T08:16:47.989Z</time>
      </trkpt>
      <trkpt lat="47.452182" lon="7.944245">
        <ele>600.324556</ele>
        <time>2021-11-21T08:16:48.592Z</time>
      </trkpt>
      <trkpt lat="47.452156" lon="7.944137">
        <ele>599.946129</ele>
        <time>2021-11-21T08:16:49.342Z</time>
      </trkpt>
      <trkpt lat="47.452112" lon="7.944014">
        <ele>599.486792</ele>
        <time>2021-11-21T08:16:50.315Z</time>
      </trkpt>
      <trkpt lat="47.452054" lon="7.943901">
        <ele>599.018493</ele>
        <time>2021-11-21T08:16:51.211Z</time>
      </trkpt>
      <trkpt lat="47.452015" lon="7.943844">
        <ele>598.750819</ele>
        <time>2021-11-21T08:16:51.730Z</time>
      </trkpt>
      <trkpt lat="47.451977" lon="7.943811">
        <ele>598.535696</ele>
        <time>2021-11-21T08:16:52.136Z</time>
      </trkpt>
      <trkpt lat="47.451953" lon="7.943794">
        <ele>598.405790</ele>
        <time>2021-11-21T08:16:52.387Z</time>
      </trkpt>
      <trkpt lat="47.451846" lon="7.943751">
        <ele>597.864511</ele>
        <time>2021-11-21T08:16:53.489Z</time>
      </trkpt>
      <trkpt lat="47.451676" lon="7.943686">
        <ele>597.007342</ele>
        <time>2021-11-21T08:16:55.163Z</time>
      </trkpt>
      <trkpt lat="47.451644" lon="7.943673">
        <ele>596.845342</ele>
        <time>2021-11-21T08:16:55.466Z</time>
      </trkpt>
      <trkpt lat="47.451442" lon="7.943512">
        <ele>595.725147</ele>
        <time>2021-11-21T08:16:57.672Z</time>
      </trkpt>
      <trkpt lat="47.451423" lon="7.943479">
        <ele>595.582075</ele>
        <time>2021-11-21T08:16:57.925Z</time>
      </trkpt>
      <trkpt lat="47.451407" lon="7.943431">
        <ele>595.405420</ele>
        <time>2021-11-21T08:16:58.273Z</time>
      </trkpt>
      <trkpt lat="47.451395" lon="7.943371">
        <ele>595.198876</ele>
        <time>2021-11-21T08:16:58.669Z</time>
      </trkpt>
      <trkpt lat="47.451365" lon="7.943156">
        <ele>594.474199</ele>
        <time>2021-11-21T08:17:00.046Z</time>
      </trkpt>
      <trkpt lat="47.451325" lon="7.942609">
        <ele>592.657998</ele>
        <time>2021-11-21T08:17:03.511Z</time>
      </trkpt>
      <trkpt lat="47.451290" lon="7.942344">
        <ele>591.769430</ele>
        <time>2021-11-21T08:17:05.223Z</time>
      </trkpt>
      <trkpt lat="47.451213" lon="7.942012">
        <ele>590.851844</ele>
        <time>2021-11-21T08:17:07.448Z</time>
      </trkpt>
      <trkpt lat="47.451135" lon="7.941726">
        <ele>590.045627</ele>
        <time>2021-11-21T08:17:09.395Z</time>
      </trkpt>
      <trkpt lat="47.451110" lon="7.941681">
        <ele>589.893371</ele>
        <time>2021-11-21T08:17:09.803Z</time>
      </trkpt>
      <trkpt lat="47.451074" lon="7.941649">
        <ele>589.730984</ele>
        <time>2021-11-21T08:17:10.184Z</time>
      </trkpt>
      <trkpt lat="47.450769" lon="7.941529">
        <ele>588.510805</ele>
        <time>2021-11-21T08:17:13.357Z</time>
      </trkpt>
      <trkpt lat="47.450637" lon="7.941376">
        <ele>587.862401</ele>
        <time>2021-11-21T08:17:15.093Z</time>
      </trkpt>
      <trkpt lat="47.450601" lon="7.941306">
        <ele>587.632485</ele>
        <time>2021-11-21T08:17:15.641Z</time>
      </trkpt>
      <trkpt lat="47.450585" lon="7.941257">
        <ele>587.490229</ele>
        <time>2021-11-21T08:17:15.999Z</time>
      </trkpt>
      <trkpt lat="47.450557" lon="7.941072">
        <ele>586.994607</ele>
        <time>2021-11-21T08:17:17.319Z</time>
      </trkpt>
      <trkpt lat="47.450565" lon="7.940916">
        <ele>586.585597</ele>
        <time>2021-11-21T08:17:18.526Z</time>
      </trkpt>
      <trkpt lat="47.450568" lon="7.940770">
        <ele>586.203725</ele>
        <time>2021-11-21T08:17:19.460Z</time>
      </trkpt>
      <trkpt lat="47.450538" lon="7.940621">
        <ele>585.797286</ele>
        <time>2021-11-21T08:17:20.489Z</time>
      </trkpt>
      <trkpt lat="47.450383" lon="7.940114">
        <ele>584.541443</ele>
        <time>2021-11-21T08:17:24.350Z</time>
      </trkpt>
      <trkpt lat="47.450248" lon="7.939948">
        <ele>584.141761</ele>
        <time>2021-11-21T08:17:26.290Z</time>
      </trkpt>
      <trkpt lat="47.449913" lon="7.939726">
        <ele>583.306082</ele>
        <time>2021-11-21T08:17:30.120Z</time>
      </trkpt>
      <trkpt lat="47.449814" lon="7.939672">
        <ele>583.065872</ele>
        <time>2021-11-21T08:17:31.084Z</time>
      </trkpt>
      <trkpt lat="47.449589" lon="7.939535">
        <ele>582.511953</ele>
        <time>2021-11-21T08:17:34.024Z</time>
      </trkpt>
      <trkpt lat="47.449443" lon="7.939446">
        <ele>582.152461</ele>
        <time>2021-11-21T08:17:35.555Z</time>
      </trkpt>
      <trkpt lat="47.449351" lon="7.939383">
        <ele>581.921664</ele>
        <time>2021-11-21T08:17:37.433Z</time>
      </trkpt>
      <trkpt lat="47.449278" lon="7.939333">
        <ele>581.738523</ele>
        <time>2021-11-21T08:17:38.276Z</time>
      </trkpt>
      <trkpt lat="47.449215" lon="7.939276">
        <ele>581.570394</ele>
        <time>2021-11-21T08:17:39.053Z</time>
      </trkpt>
      <trkpt lat="47.449121" lon="7.939164">
        <ele>581.295590</ele>
        <time>2021-11-21T08:17:40.322Z</time>
      </trkpt>
      <trkpt lat="47.449095" lon="7.939194">
        <ele>581.220517</ele>
        <time>2021-11-21T08:17:40.931Z</time>
      </trkpt>
      <trkpt lat="47.448995" lon="7.939236">
        <ele>580.983869</ele>
        <time>2021-11-21T08:17:42.268Z</time>
      </trkpt>
      <trkpt lat="47.448737" lon="7.939187">
        <ele>580.979765</ele>
        <time>2021-11-21T08:17:45.190Z</time>
      </trkpt>
      <trkpt lat="47.448632" lon="7.939166">
        <ele>581.155842</ele>
        <time>2021-11-21T08:17:46.575Z</time>
      </trkpt>
      <trkpt lat="47.448566" lon="7.939145">
        <ele>581.268030</ele>
        <time>2021-11-21T08:17:47.343Z</time>
      </trkpt>
      <trkpt lat="47.448504" lon="7.939113">
        <ele>581.377156</ele>
        <time>2021-11-21T08:17:48.027Z</time>
      </trkpt>
      <trkpt lat="47.448323" lon="7.938940">
        <ele>581.735302</ele>
        <time>2021-11-21T08:17:51.006Z</time>
      </trkpt>
      <trkpt lat="47.448076" lon="7.938764">
        <ele>582.190932</ele>
        <time>2021-11-21T08:17:56.700Z</time>
      </trkpt>
      <trkpt lat="47.447884" lon="7.938706">
        <ele>582.516585</ele>
        <time>2021-11-21T08:18:01.640Z</time>
      </trkpt>
      <trkpt lat="47.447622" lon="7.938729">
        <ele>582.952740</ele>
        <time>2021-11-21T08:18:06.494Z</time>
      </trkpt>
      <trkpt lat="47.447579" lon="7.938758">
        <ele>583.031278</ele>
        <time>2021-11-21T08:18:08.347Z</time>
      </trkpt>
      <trkpt lat="47.447514" lon="7.938816">
        <ele>583.157437</ele>
        <time>2021-11-21T08:18:10.772Z</time>
      </trkpt>
      <trkpt lat="47.447375" lon="7.938987">
        <ele>583.457912</ele>
        <time>2021-11-21T08:18:14.828Z</time>
      </trkpt>
      <trkpt lat="47.447276" lon="7.939126">
        <ele>583.684777</ele>
        <time>2021-11-21T08:18:21.775Z</time>
      </trkpt>
      <trkpt lat="47.447148" lon="7.939307">
        <ele>584.722570</ele>
        <time>2021-11-21T08:18:26.801Z</time>
      </trkpt>
      <trkpt lat="47.447088" lon="7.939400">
        <ele>585.282473</ele>
        <time>2021-11-21T08:18:30.159Z</time>
      </trkpt>
      <trkpt lat="47.447023" lon="7.939500">
        <ele>585.886676</ele>
        <time>2021-11-21T08:18:35.589Z</time>
      </trkpt>
      <trkpt lat="47.446911" lon="7.939640">
        <ele>586.831346</ele>
        <time>2021-11-21T08:18:40.395Z</time>
      </trkpt>
      <trkpt lat="47.446714" lon="7.939663">
        <ele>588.104251</ele>
        <time>2021-11-21T08:18:49.445Z</time>
      </trkpt>
      <trkpt lat="47.446350" lon="7.939484">
        <ele>590.575182</ele>
        <time>2021-11-21T08:19:06.133Z</time>
      </trkpt>
      <trkpt lat="47.446200" lon="7.939305">
        <ele>591.816789</ele>
        <time>2021-11-21T08:19:12.632Z</time>
      </trkpt>
      <trkpt lat="47.446136" lon="7.939210">
        <ele>592.400923</ele>
        <time>2021-11-21T08:19:17.820Z</time>
      </trkpt>
      <trkpt lat="47.445987" lon="7.938989">
        <ele>593.760332</ele>
        <time>2021-11-21T08:19:27.079Z</time>
      </trkpt>
      <trkpt lat="47.445739" lon="7.938730">
        <ele>595.567506</ele>
        <time>2021-11-21T08:19:41.286Z</time>
      </trkpt>
      <trkpt lat="47.445088" lon="7.938426">
        <ele>598.370409</ele>
        <time>2021-11-21T08:20:07.655Z</time>
      </trkpt>
      <trkpt lat="47.444935" lon="7.938269">
        <ele>599.135020</ele>
        <time>2021-11-21T08:20:13.937Z</time>
      </trkpt>
      <trkpt lat="47.444544" lon="7.937668">
        <ele>601.450582</ele>
        <time>2021-11-21T08:20:29.583Z</time>
      </trkpt>
      <trkpt lat="47.444304" lon="7.937471">
        <ele>602.577589</ele>
        <time>2021-11-21T08:20:34.776Z</time>
      </trkpt>
      <trkpt lat="47.444030" lon="7.937346">
        <ele>602.086279</ele>
        <time>2021-11-21T08:20:39.502Z</time>
      </trkpt>
      <trkpt lat="47.443821" lon="7.937284">
        <ele>601.588819</ele>
        <time>2021-11-21T08:20:42.341Z</time>
      </trkpt>
      <trkpt lat="47.443543" lon="7.937251">
        <ele>600.937968</ele>
        <time>2021-11-21T08:20:45.638Z</time>
      </trkpt>
      <trkpt lat="47.442638" lon="7.937187">
        <ele>598.823569</ele>
        <time>2021-11-21T08:20:54.822Z</time>
      </trkpt>
      <trkpt lat="47.441541" lon="7.937289">
        <ele>593.445518</ele>
        <time>2021-11-21T08:21:04.824Z</time>
      </trkpt>
      <trkpt lat="47.441000" lon="7.937143">
        <ele>590.546936</ele>
        <time>2021-11-21T08:21:10.031Z</time>
      </trkpt>
      <trkpt lat="47.440806" lon="7.937210">
        <ele>589.496887</ele>
        <time>2021-11-21T08:21:11.841Z</time>
      </trkpt>
      <trkpt lat="47.440583" lon="7.937384">
        <ele>588.539587</ele>
        <time>2021-11-21T08:21:14.411Z</time>
      </trkpt>
      <trkpt lat="47.440535" lon="7.937445">
        <ele>588.352650</ele>
        <time>2021-11-21T08:21:14.945Z</time>
      </trkpt>
      <trkpt lat="47.440493" lon="7.937497">
        <ele>588.190858</ele>
        <time>2021-11-21T08:21:16.463Z</time>
      </trkpt>
      <trkpt lat="47.440276" lon="7.938174">
        <ele>586.694315</ele>
        <time>2021-11-21T08:21:21.683Z</time>
      </trkpt>
      <trkpt lat="47.440111" lon="7.938384">
        <ele>586.051310</ele>
        <time>2021-11-21T08:21:23.847Z</time>
      </trkpt>
      <trkpt lat="47.439973" lon="7.938391">
        <ele>585.643495</ele>
        <time>2021-11-21T08:21:25.506Z</time>
      </trkpt>
      <trkpt lat="47.439513" lon="7.938183">
        <ele>584.222792</ele>
        <time>2021-11-21T08:21:30.560Z</time>
      </trkpt>
      <trkpt lat="47.439305" lon="7.937977">
        <ele>583.530772</ele>
        <time>2021-11-21T08:21:33.463Z</time>
      </trkpt>
      <trkpt lat="47.439053" lon="7.937594">
        <ele>582.695672</ele>
        <time>2021-11-21T08:21:37.695Z</time>
      </trkpt>
      <trkpt lat="47.438795" lon="7.937030">
        <ele>581.631514</ele>
        <time>2021-11-21T08:21:42.652Z</time>
      </trkpt>
      <trkpt lat="47.438488" lon="7.936601">
        <ele>580.655399</ele>
        <time>2021-11-21T08:21:46.972Z</time>
      </trkpt>
      <trkpt lat="47.438097" lon="7.936295">
        <ele>579.633131</ele>
        <time>2021-11-21T08:21:51.545Z</time>
      </trkpt>
      <trkpt lat="47.437455" lon="7.935929">
        <ele>579.416829</ele>
        <time>2021-11-21T08:21:59.062Z</time>
      </trkpt>
      <trkpt lat="47.437163" lon="7.935805">
        <ele>579.356926</ele>
        <time>2021-11-21T08:22:03.248Z</time>
      </trkpt>
      <trkpt lat="47.436959" lon="7.935813">
        <ele>579.316689</ele>
        <time>2021-11-21T08:22:08.817Z</time>
      </trkpt>
      <trkpt lat="47.436817" lon="7.935819">
        <ele>579.288679</ele>
        <time>2021-11-21T08:22:10.329Z</time>
      </trkpt>
      <trkpt lat="47.436754" lon="7.935830">
        <ele>579.276171</ele>
        <time>2021-11-21T08:22:12.701Z</time>
      </trkpt>
      <trkpt lat="47.436645" lon="7.935783">
        <ele>579.253783</ele>
        <time>2021-11-21T08:22:15.895Z</time>
      </trkpt>
      <trkpt lat="47.436379" lon="7.935508">
        <ele>579.192488</ele>
        <time>2021-11-21T08:22:21.935Z</time>
      </trkpt>
      <trkpt lat="47.436041" lon="7.935466">
        <ele>579.454945</ele>
        <time>2021-11-21T08:22:28.086Z</time>
      </trkpt>
      <trkpt lat="47.435987" lon="7.935459">
        <ele>579.496889</ele>
        <time>2021-11-21T08:22:30.352Z</time>
      </trkpt>
      <trkpt lat="47.435945" lon="7.935453">
        <ele>579.529539</ele>
        <time>2021-11-21T08:22:31.091Z</time>
      </trkpt>
      <trkpt lat="47.435218" lon="7.935133">
        <ele>580.116474</ele>
        <time>2021-11-21T08:22:45.059Z</time>
      </trkpt>
      <trkpt lat="47.435139" lon="7.935085">
        <ele>580.182563</ele>
        <time>2021-11-21T08:22:46.200Z</time>
      </trkpt>
      <trkpt lat="47.435108" lon="7.935067">
        <ele>580.208334</ele>
        <time>2021-11-21T08:22:46.524Z</time>
      </trkpt>
      <trkpt lat="47.435021" lon="7.934988">
        <ele>580.287336</ele>
        <time>2021-11-21T08:22:48.151Z</time>
      </trkpt>
      <trkpt lat="47.434953" lon="7.934914">
        <ele>580.352671</ele>
        <time>2021-11-21T08:22:51.066Z</time>
      </trkpt>
      <trkpt lat="47.434806" lon="7.934720">
        <ele>580.505144</ele>
        <time>2021-11-21T08:22:53.269Z</time>
      </trkpt>
      <trkpt lat="47.434668" lon="7.934617">
        <ele>580.637273</ele>
        <time>2021-11-21T08:22:57.390Z</time>
      </trkpt>
      <trkpt lat="47.434614" lon="7.934590">
        <ele>580.694309</ele>
        <time>2021-11-21T08:22:57.975Z</time>
      </trkpt>
      <trkpt lat="47.434567" lon="7.934576">
        <ele>580.742280</ele>
        <time>2021-11-21T08:22:58.489Z</time>
      </trkpt>
      <trkpt lat="47.434298" lon="7.934609">
        <ele>581.012350</ele>
        <time>2021-11-21T08:23:02.097Z</time>
      </trkpt>
      <trkpt lat="47.433620" lon="7.934930">
        <ele>581.724657</ele>
        <time>2021-11-21T08:23:11.559Z</time>
      </trkpt>
      <trkpt lat="47.433512" lon="7.934950">
        <ele>581.833560</ele>
        <time>2021-11-21T08:23:12.740Z</time>
      </trkpt>
      <trkpt lat="47.433385" lon="7.935078">
        <ele>581.987351</ele>
        <time>2021-11-21T08:23:16.888Z</time>
      </trkpt>
      <trkpt lat="47.433187" lon="7.935304">
        <ele>582.237637</ele>
        <time>2021-11-21T08:23:22.849Z</time>
      </trkpt>
      <trkpt lat="47.433050" lon="7.935392">
        <ele>582.412076</ele>
        <time>2021-11-21T08:23:27.557Z</time>
      </trkpt>
      <trkpt lat="47.432965" lon="7.935043">
        <ele>583.823585</ele>
        <time>2021-11-21T08:23:37.312Z</time>
      </trkpt>
      <trkpt lat="47.432802" lon="7.934732">
        <ele>585.320694</ele>
        <time>2021-11-21T08:23:46.683Z</time>
      </trkpt>
      <trkpt lat="47.432647" lon="7.934240">
        <ele>587.385999</ele>
        <time>2021-11-21T08:24:01.264Z</time>
      </trkpt>
      <trkpt lat="47.432578" lon="7.933907">
        <ele>588.711291</ele>
        <time>2021-11-21T08:24:10.811Z</time>
      </trkpt>
      <trkpt lat="47.432569" lon="7.933827">
        <ele>589.019899</ele>
        <time>2021-11-21T08:24:12.443Z</time>
      </trkpt>
      <trkpt lat="47.432554" lon="7.933755">
        <ele>589.306583</ele>
        <time>2021-11-21T08:24:15.006Z</time>
      </trkpt>
      <trkpt lat="47.432488" lon="7.933576">
        <ele>590.082353</ele>
        <time>2021-11-21T08:24:19.996Z</time>
      </trkpt>
      <trkpt lat="47.432362" lon="7.933398">
        <ele>591.062762</ele>
        <time>2021-11-21T08:24:26.420Z</time>
      </trkpt>
      <trkpt lat="47.432257" lon="7.933273">
        <ele>591.821147</ele>
        <time>2021-11-21T08:24:32.691Z</time>
      </trkpt>
      <trkpt lat="47.431934" lon="7.932867">
        <ele>594.676545</ele>
        <time>2021-11-21T08:24:49.523Z</time>
      </trkpt>
      <trkpt lat="47.431916" lon="7.932769">
        <ele>595.169487</ele>
        <time>2021-11-21T08:24:52.950Z</time>
      </trkpt>
      <trkpt lat="47.431940" lon="7.932715">
        <ele>595.483132</ele>
        <time>2021-11-21T08:24:53.791Z</time>
      </trkpt>
      <trkpt lat="47.432246" lon="7.932289">
        <ele>598.499412</ele>
        <time>2021-11-21T08:25:12.020Z</time>
      </trkpt>
      <trkpt lat="47.432474" lon="7.931798">
        <ele>601.390361</ele>
        <time>2021-11-21T08:25:29.442Z</time>
      </trkpt>
      <trkpt lat="47.432491" lon="7.931730">
        <ele>601.742269</ele>
        <time>2021-11-21T08:25:31.248Z</time>
      </trkpt>
      <trkpt lat="47.432518" lon="7.931622">
        <ele>602.301181</ele>
        <time>2021-11-21T08:25:35.093Z</time>
      </trkpt>
      <trkpt lat="47.432581" lon="7.931123">
        <ele>604.765259</ele>
        <time>2021-11-21T08:25:49.290Z</time>
      </trkpt>
      <trkpt lat="47.432595" lon="7.931014">
        <ele>605.303821</ele>
        <time>2021-11-21T08:25:53.602Z</time>
      </trkpt>
      <trkpt lat="47.432664" lon="7.930471">
        <ele>609.119935</ele>
        <time>2021-11-21T08:26:12.458Z</time>
      </trkpt>
      <trkpt lat="47.432655" lon="7.930328">
        <ele>610.123665</ele>
        <time>2021-11-21T08:26:17.644Z</time>
      </trkpt>
      <trkpt lat="47.432626" lon="7.930198">
        <ele>611.080350</ele>
        <time>2021-11-21T08:26:23.480Z</time>
      </trkpt>
      <trkpt lat="47.432548" lon="7.929945">
        <ele>613.023528</ele>
        <time>2021-11-21T08:26:32.578Z</time>
      </trkpt>
      <trkpt lat="47.432376" lon="7.929666">
        <ele>615.661715</ele>
        <time>2021-11-21T08:26:47.331Z</time>
      </trkpt>
      <trkpt lat="47.432320" lon="7.929632">
        <ele>616.287184</ele>
        <time>2021-11-21T08:26:50.726Z</time>
      </trkpt>
      <trkpt lat="47.432180" lon="7.929578">
        <ele>617.782039</ele>
        <time>2021-11-21T08:26:59.006Z</time>
      </trkpt>
      <trkpt lat="47.431897" lon="7.929454">
        <ele>620.831626</ele>
        <time>2021-11-21T08:27:16.540Z</time>
      </trkpt>
      <trkpt lat="47.431830" lon="7.929410">
        <ele>621.589079</ele>
        <time>2021-11-21T08:27:21.867Z</time>
      </trkpt>
      <trkpt lat="47.431760" lon="7.929353">
        <ele>622.414755</ele>
        <time>2021-11-21T08:27:28.102Z</time>
      </trkpt>
      <trkpt lat="47.431165" lon="7.928287">
        <ele>632.577764</ele>
        <time>2021-11-21T08:28:26.145Z</time>
      </trkpt>
      <trkpt lat="47.431009" lon="7.928039">
        <ele>635.092172</ele>
        <time>2021-11-21T08:28:41.154Z</time>
      </trkpt>
      <trkpt lat="47.430877" lon="7.927868">
        <ele>637.018568</ele>
        <time>2021-11-21T08:28:50.663Z</time>
      </trkpt>
      <trkpt lat="47.430593" lon="7.927648">
        <ele>640.537736</ele>
        <time>2021-11-21T08:29:07.978Z</time>
      </trkpt>
      <trkpt lat="47.430441" lon="7.927596">
        <ele>642.250137</ele>
        <time>2021-11-21T08:29:16.500Z</time>
      </trkpt>
      <trkpt lat="47.430337" lon="7.927447">
        <ele>643.805233</ele>
        <time>2021-11-21T08:29:22.934Z</time>
      </trkpt>
      <trkpt lat="47.430261" lon="7.927320">
        <ele>644.664516</ele>
        <time>2021-11-21T08:29:30.817Z</time>
      </trkpt>
      <trkpt lat="47.429803" lon="7.926167">
        <ele>651.440488</ele>
        <time>2021-11-21T08:30:14.278Z</time>
      </trkpt>
      <trkpt lat="47.429591" lon="7.925737">
        <ele>654.136948</ele>
        <time>2021-11-21T08:30:29.497Z</time>
      </trkpt>
      <trkpt lat="47.429521" lon="7.925613">
        <ele>654.955409</ele>
        <time>2021-11-21T08:30:33.810Z</time>
      </trkpt>
      <trkpt lat="47.429490" lon="7.925556">
        <ele>655.326048</ele>
        <time>2021-11-21T08:30:36.874Z</time>
      </trkpt>
      <trkpt lat="47.429062" lon="7.924899">
        <ele>658.727485</ele>
        <time>2021-11-21T08:30:56.561Z</time>
      </trkpt>
      <trkpt lat="47.428690" lon="7.923945">
        <ele>661.824308</ele>
        <time>2021-11-21T08:31:21.194Z</time>
      </trkpt>
      <trkpt lat="47.428337" lon="7.923093">
        <ele>664.634163</ele>
        <time>2021-11-21T08:31:40.758Z</time>
      </trkpt>
      <trkpt lat="47.428022" lon="7.922357">
        <ele>666.150986</ele>
        <time>2021-11-21T08:31:55.300Z</time>
      </trkpt>
      <trkpt lat="47.427532" lon="7.921193">
        <ele>668.509131</ele>
        <time>2021-11-21T08:32:16.985Z</time>
      </trkpt>
      <trkpt lat="47.427306" lon="7.920667">
        <ele>669.634679</ele>
        <time>2021-11-21T08:32:28.119Z</time>
      </trkpt>
      <trkpt lat="47.427128" lon="7.920327">
        <ele>670.496321</ele>
        <time>2021-11-21T08:32:35.852Z</time>
      </trkpt>
      <trkpt lat="47.426784" lon="7.919771">
        <ele>672.006405</ele>
        <time>2021-11-21T08:32:49.096Z</time>
      </trkpt>
      <trkpt lat="47.426747" lon="7.919704">
        <ele>672.179746</ele>
        <time>2021-11-21T08:32:51.545Z</time>
      </trkpt>
      <trkpt lat="47.426476" lon="7.919218">
        <ele>673.442026</ele>
        <time>2021-11-21T08:33:03.706Z</time>
      </trkpt>
      <trkpt lat="47.425963" lon="7.918061">
        <ele>675.159107</ele>
        <time>2021-11-21T08:33:26.908Z</time>
      </trkpt>
      <trkpt lat="47.425854" lon="7.917881">
        <ele>675.329845</ele>
        <time>2021-11-21T08:33:31.938Z</time>
      </trkpt>
      <trkpt lat="47.425791" lon="7.917776">
        <ele>675.429036</ele>
        <time>2021-11-21T08:33:33.299Z</time>
      </trkpt>
      <trkpt lat="47.425734" lon="7.917658">
        <ele>675.531512</ele>
        <time>2021-11-21T08:33:34.859Z</time>
      </trkpt>
      <trkpt lat="47.425453" lon="7.916868">
        <ele>676.162333</ele>
        <time>2021-11-21T08:33:44.871Z</time>
      </trkpt>
      <trkpt lat="47.425318" lon="7.916466">
        <ele>676.411633</ele>
        <time>2021-11-21T08:33:49.045Z</time>
      </trkpt>
      <trkpt lat="47.425092" lon="7.916017">
        <ele>675.165392</ele>
        <time>2021-11-21T08:33:53.493Z</time>
      </trkpt>
      <trkpt lat="47.424835" lon="7.915741">
        <ele>674.119757</ele>
        <time>2021-11-21T08:33:56.723Z</time>
      </trkpt>
      <trkpt lat="47.423888" lon="7.915185">
        <ele>670.765764</ele>
        <time>2021-11-21T08:34:06.559Z</time>
      </trkpt>
      <trkpt lat="47.423738" lon="7.915097">
        <ele>669.896334</ele>
        <time>2021-11-21T08:34:08.083Z</time>
      </trkpt>
      <trkpt lat="47.423576" lon="7.915003">
        <ele>668.695073</ele>
        <time>2021-11-21T08:34:09.756Z</time>
      </trkpt>
      <trkpt lat="47.423480" lon="7.914911">
        <ele>667.905351</ele>
        <time>2021-11-21T08:34:10.817Z</time>
      </trkpt>
      <trkpt lat="47.423376" lon="7.914788">
        <ele>666.985981</ele>
        <time>2021-11-21T08:34:12.096Z</time>
      </trkpt>
      <trkpt lat="47.423166" lon="7.914532">
        <ele>665.107075</ele>
        <time>2021-11-21T08:34:14.622Z</time>
      </trkpt>
      <trkpt lat="47.422861" lon="7.914016">
        <ele>661.907279</ele>
        <time>2021-11-21T08:34:18.793Z</time>
      </trkpt>
      <trkpt lat="47.422678" lon="7.913093">
        <ele>656.981989</ele>
        <time>2021-11-21T08:34:24.452Z</time>
      </trkpt>
      <trkpt lat="47.422400" lon="7.912432">
        <ele>651.135129</ele>
        <time>2021-11-21T08:34:28.960Z</time>
      </trkpt>
      <trkpt lat="47.422296" lon="7.912177">
        <ele>648.898348</ele>
        <time>2021-11-21T08:34:30.726Z</time>
      </trkpt>
      <trkpt lat="47.422258" lon="7.912054">
        <ele>647.882551</ele>
        <time>2021-11-21T08:34:31.486Z</time>
      </trkpt>
      <trkpt lat="47.422227" lon="7.911924">
        <ele>646.847056</ele>
        <time>2021-11-21T08:34:32.280Z</time>
      </trkpt>
      <trkpt lat="47.422105" lon="7.911328">
        <ele>642.169230</ele>
        <time>2021-11-21T08:34:35.847Z</time>
      </trkpt>
      <trkpt lat="47.422076" lon="7.911139">
        <ele>640.713327</ele>
        <time>2021-11-21T08:34:36.966Z</time>
      </trkpt>
      <trkpt lat="47.422044" lon="7.910942">
        <ele>639.191325</ele>
        <time>2021-11-21T08:34:38.113Z</time>
      </trkpt>
      <trkpt lat="47.421971" lon="7.910739">
        <ele>637.291653</ele>
        <time>2021-11-21T08:34:39.442Z</time>
      </trkpt>
      <trkpt lat="47.421663" lon="7.910330">
        <ele>631.548699</ele>
        <time>2021-11-21T08:34:42.918Z</time>
      </trkpt>
      <trkpt lat="47.421579" lon="7.910148">
        <ele>629.481199</ele>
        <time>2021-11-21T08:34:44.151Z</time>
      </trkpt>
      <trkpt lat="47.421470" lon="7.909931">
        <ele>626.944933</ele>
        <time>2021-11-21T08:34:45.669Z</time>
      </trkpt>
      <trkpt lat="47.420948" lon="7.908934">
        <ele>615.114433</ele>
        <time>2021-11-21T08:34:52.805Z</time>
      </trkpt>
      <trkpt lat="47.420889" lon="7.908860">
        <ele>614.041151</ele>
        <time>2021-11-21T08:34:53.441Z</time>
      </trkpt>
      <trkpt lat="47.420741" lon="7.908673">
        <ele>611.004614</ele>
        <time>2021-11-21T08:34:55.071Z</time>
      </trkpt>
      <trkpt lat="47.420624" lon="7.908565">
        <ele>608.747549</ele>
        <time>2021-11-21T08:34:56.218Z</time>
      </trkpt>
      <trkpt lat="47.420459" lon="7.908421">
        <ele>605.612257</ele>
        <time>2021-11-21T08:34:57.805Z</time>
      </trkpt>
      <trkpt lat="47.420164" lon="7.908011">
        <ele>598.986474</ele>
        <time>2021-11-21T08:35:01.160Z</time>
      </trkpt>
      <trkpt lat="47.419862" lon="7.907847">
        <ele>593.722122</ele>
        <time>2021-11-21T08:35:03.809Z</time>
      </trkpt>
      <trkpt lat="47.419634" lon="7.907870">
        <ele>589.982888</ele>
        <time>2021-11-21T08:35:05.691Z</time>
      </trkpt>
      <trkpt lat="47.419267" lon="7.908161">
        <ele>583.243075</ele>
        <time>2021-11-21T08:35:09.110Z</time>
      </trkpt>
      <trkpt lat="47.419141" lon="7.908164">
        <ele>581.432893</ele>
        <time>2021-11-21T08:35:10.146Z</time>
      </trkpt>
      <trkpt lat="47.418922" lon="7.907954">
        <ele>577.682884</ele>
        <time>2021-11-21T08:35:12.312Z</time>
      </trkpt>
      <trkpt lat="47.418822" lon="7.907858">
        <ele>575.969970</ele>
        <time>2021-11-21T08:35:13.292Z</time>
      </trkpt>
      <trkpt lat="47.418439" lon="7.907589">
        <ele>569.878635</ele>
        <time>2021-11-21T08:35:16.810Z</time>
      </trkpt>
      <trkpt lat="47.417978" lon="7.907279">
        <ele>562.603255</ele>
        <time>2021-11-21T08:35:21.049Z</time>
      </trkpt>
      <trkpt lat="47.417761" lon="7.907149">
        <ele>559.239757</ele>
        <time>2021-11-21T08:35:23.023Z</time>
      </trkpt>
      <trkpt lat="47.417654" lon="7.907109">
        <ele>557.807171</ele>
        <time>2021-11-21T08:35:23.959Z</time>
      </trkpt>
      <trkpt lat="47.417526" lon="7.907135">
        <ele>556.932311</ele>
        <time>2021-11-21T08:35:25.054Z</time>
      </trkpt>
      <trkpt lat="47.417211" lon="7.907291">
        <ele>554.682814</ele>
        <time>2021-11-21T08:35:28.014Z</time>
      </trkpt>
      <trkpt lat="47.417045" lon="7.907386">
        <ele>553.477463</ele>
        <time>2021-11-21T08:35:29.595Z</time>
      </trkpt>
      <trkpt lat="47.416991" lon="7.907401">
        <ele>553.105416</ele>
        <time>2021-11-21T08:35:30.099Z</time>
      </trkpt>
      <trkpt lat="47.416909" lon="7.907414">
        <ele>552.546993</ele>
        <time>2021-11-21T08:35:30.837Z</time>
      </trkpt>
      <trkpt lat="47.416851" lon="7.907423">
        <ele>552.152105</ele>
        <time>2021-11-21T08:35:31.367Z</time>
      </trkpt>
      <trkpt lat="47.416753" lon="7.907390">
        <ele>551.471521</ele>
        <time>2021-11-21T08:35:32.252Z</time>
      </trkpt>
      <trkpt lat="47.416673" lon="7.907346">
        <ele>550.893528</ele>
        <time>2021-11-21T08:35:33.018Z</time>
      </trkpt>
      <trkpt lat="47.416637" lon="7.907164">
        <ele>550.024742</ele>
        <time>2021-11-21T08:35:34.203Z</time>
      </trkpt>
      <trkpt lat="47.416608" lon="7.907067">
        <ele>549.538859</ele>
        <time>2021-11-21T08:35:34.848Z</time>
      </trkpt>
      <trkpt lat="47.416442" lon="7.906759">
        <ele>547.734726</ele>
        <time>2021-11-21T08:35:37.312Z</time>
      </trkpt>
      <trkpt lat="47.416410" lon="7.906687">
        <ele>547.340039</ele>
        <time>2021-11-21T08:35:37.892Z</time>
      </trkpt>
      <trkpt lat="47.416398" lon="7.906605">
        <ele>546.955643</ele>
        <time>2021-11-21T08:35:38.408Z</time>
      </trkpt>
      <trkpt lat="47.416460" lon="7.906294">
        <ele>545.797631</ele>
        <time>2021-11-21T08:35:40.854Z</time>
      </trkpt>
      <trkpt lat="47.416580" lon="7.905705">
        <ele>546.114707</ele>
        <time>2021-11-21T08:35:45.618Z</time>
      </trkpt>
      <trkpt lat="47.416651" lon="7.905415">
        <ele>546.273677</ele>
        <time>2021-11-21T08:35:48.591Z</time>
      </trkpt>
      <trkpt lat="47.416773" lon="7.904932">
        <ele>546.539429</ele>
        <time>2021-11-21T08:35:54.328Z</time>
      </trkpt>
      <trkpt lat="47.416808" lon="7.904773">
        <ele>546.625616</ele>
        <time>2021-11-21T08:35:56.722Z</time>
      </trkpt>
      <trkpt lat="47.416822" lon="7.904701">
        <ele>546.664231</ele>
        <time>2021-11-21T08:35:57.717Z</time>
      </trkpt>
      <trkpt lat="47.416754" lon="7.904710">
        <ele>546.716240</ele>
        <time>2021-11-21T08:35:58.695Z</time>
      </trkpt>
      <trkpt lat="47.416543" lon="7.904651">
        <ele>546.879828</ele>
        <time>2021-11-21T08:36:03.866Z</time>
      </trkpt>
      <trkpt lat="47.416158" lon="7.904395">
        <ele>547.683834</ele>
        <time>2021-11-21T08:36:15.365Z</time>
      </trkpt>
      <trkpt lat="47.415794" lon="7.903917">
        <ele>550.735755</ele>
        <time>2021-11-21T08:36:36.813Z</time>
      </trkpt>
      <trkpt lat="47.415429" lon="7.903578">
        <ele>553.437662</ele>
        <time>2021-11-21T08:36:57.767Z</time>
      </trkpt>
      <trkpt lat="47.414946" lon="7.903337">
        <ele>556.632755</ele>
        <time>2021-11-21T08:37:19.940Z</time>
      </trkpt>
      <trkpt lat="47.414457" lon="7.903126">
        <ele>559.071224</ele>
        <time>2021-11-21T08:37:38.650Z</time>
      </trkpt>
      <trkpt lat="47.414360" lon="7.903055">
        <ele>559.388730</ele>
        <time>2021-11-21T08:37:41.348Z</time>
      </trkpt>
      <trkpt lat="47.413979" lon="7.902876">
        <ele>560.561385</ele>
        <time>2021-11-21T08:37:52.986Z</time>
      </trkpt>
      <trkpt lat="47.413779" lon="7.902818">
        <ele>561.159207</ele>
        <time>2021-11-21T08:37:58.905Z</time>
      </trkpt>
      <trkpt lat="47.413454" lon="7.902818">
        <ele>562.112487</ele>
        <time>2021-11-21T08:38:06.755Z</time>
      </trkpt>
      <trkpt lat="47.413324" lon="7.902797">
        <ele>562.496070</ele>
        <time>2021-11-21T08:38:09.819Z</time>
      </trkpt>
      <trkpt lat="47.413185" lon="7.902732">
        <ele>562.923707</ele>
        <time>2021-11-21T08:38:12.792Z</time>
      </trkpt>
      <trkpt lat="47.412722" lon="7.902491">
        <ele>564.153225</ele>
        <time>2021-11-21T08:38:20.516Z</time>
      </trkpt>
      <trkpt lat="47.412218" lon="7.902425">
        <ele>565.178405</ele>
        <time>2021-11-21T08:38:28.935Z</time>
      </trkpt>
      <trkpt lat="47.412053" lon="7.902324">
        <ele>565.540267</ele>
        <time>2021-11-21T08:38:32.946Z</time>
      </trkpt>
      <trkpt lat="47.411995" lon="7.902289">
        <ele>565.667205</ele>
        <time>2021-11-21T08:38:34.767Z</time>
      </trkpt>
      <trkpt lat="47.411203" lon="7.901793">
        <ele>567.466096</ele>
        <time>2021-11-21T08:38:58.057Z</time>
      </trkpt>
      <trkpt lat="47.410416" lon="7.901443">
        <ele>570.263744</ele>
        <time>2021-11-21T08:39:22.623Z</time>
      </trkpt>
      <trkpt lat="47.410305" lon="7.901395">
        <ele>570.657435</ele>
        <time>2021-11-21T08:39:26.097Z</time>
      </trkpt>
      <trkpt lat="47.410000" lon="7.901340">
        <ele>571.703358</ele>
        <time>2021-11-21T08:39:34.287Z</time>
      </trkpt>
      <trkpt lat="47.408980" lon="7.901427">
        <ele>575.558106</ele>
        <time>2021-11-21T08:40:02.865Z</time>
      </trkpt>
      <trkpt lat="47.408633" lon="7.901528">
        <ele>577.024123</ele>
        <time>2021-11-21T08:40:13.869Z</time>
      </trkpt>
      <trkpt lat="47.408249" lon="7.901503">
        <ele>578.617415</ele>
        <time>2021-11-21T08:40:25.963Z</time>
      </trkpt>
      <trkpt lat="47.407950" lon="7.901419">
        <ele>579.879026</ele>
        <time>2021-11-21T08:40:35.935Z</time>
      </trkpt>
      <trkpt lat="47.407700" lon="7.901346">
        <ele>580.956790</ele>
        <time>2021-11-21T08:40:44.499Z</time>
      </trkpt>
      <trkpt lat="47.407183" lon="7.901226">
        <ele>584.708508</ele>
        <time>2021-11-21T08:41:02.983Z</time>
      </trkpt>
      <trkpt lat="47.406056" lon="7.900591">
        <ele>593.355233</ele>
        <time>2021-11-21T08:42:00.291Z</time>
      </trkpt>
      <trkpt lat="47.405726" lon="7.900247">
        <ele>596.577047</ele>
        <time>2021-11-21T08:42:19.867Z</time>
      </trkpt>
      <trkpt lat="47.405648" lon="7.900181">
        <ele>597.307302</ele>
        <time>2021-11-21T08:42:24.818Z</time>
      </trkpt>
      <trkpt lat="47.405377" lon="7.900042">
        <ele>599.637884</ele>
        <time>2021-11-21T08:42:38.309Z</time>
      </trkpt>
      <trkpt lat="47.404734" lon="7.899896">
        <ele>604.923152</ele>
        <time>2021-11-21T08:43:09.880Z</time>
      </trkpt>
      <trkpt lat="47.404452" lon="7.899711">
        <ele>607.429897</ele>
        <time>2021-11-21T08:43:24.661Z</time>
      </trkpt>
      <trkpt lat="47.403746" lon="7.898667">
        <ele>614.311241</ele>
        <time>2021-11-21T08:44:06.941Z</time>
      </trkpt>
      <trkpt lat="47.403389" lon="7.898027">
        <ele>618.082763</ele>
        <time>2021-11-21T08:44:28.092Z</time>
      </trkpt>
      <trkpt lat="47.403337" lon="7.897962">
        <ele>618.540416</ele>
        <time>2021-11-21T08:44:31.632Z</time>
      </trkpt>
      <trkpt lat="47.403251" lon="7.897904">
        <ele>619.175600</ele>
        <time>2021-11-21T08:44:35.504Z</time>
      </trkpt>
      <trkpt lat="47.402533" lon="7.897738">
        <ele>624.692120</ele>
        <time>2021-11-21T08:45:05.295Z</time>
      </trkpt>
      <trkpt lat="47.402452" lon="7.897680">
        <ele>625.404523</ele>
        <time>2021-11-21T08:45:08.539Z</time>
      </trkpt>
      <trkpt lat="47.401903" lon="7.897350">
        <ele>630.095466</ele>
        <time>2021-11-21T08:45:39.574Z</time>
      </trkpt>
      <trkpt lat="47.400945" lon="7.896926">
        <ele>638.162243</ele>
        <time>2021-11-21T08:46:26.733Z</time>
      </trkpt>
      <trkpt lat="47.400890" lon="7.896903">
        <ele>638.635589</ele>
        <time>2021-11-21T08:46:31.523Z</time>
      </trkpt>
      <trkpt lat="47.400751" lon="7.896863">
        <ele>639.808275</ele>
        <time>2021-11-21T08:46:37.845Z</time>
      </trkpt>
      <trkpt lat="47.399796" lon="7.896698">
        <ele>647.770490</ele>
        <time>2021-11-21T08:47:25.172Z</time>
      </trkpt>
      <trkpt lat="47.399633" lon="7.896675">
        <ele>649.126430</ele>
        <time>2021-11-21T08:47:31.465Z</time>
      </trkpt>
      <trkpt lat="47.399538" lon="7.896644">
        <ele>649.836630</ele>
        <time>2021-11-21T08:47:36.206Z</time>
      </trkpt>
      <trkpt lat="47.399246" lon="7.896363">
        <ele>651.817035</ele>
        <time>2021-11-21T08:47:52.265Z</time>
      </trkpt>
      <trkpt lat="47.398784" lon="7.895173">
        <ele>657.094092</ele>
        <time>2021-11-21T08:48:26.291Z</time>
      </trkpt>
      <trkpt lat="47.397727" lon="7.893516">
        <ele>663.474977</ele>
        <time>2021-11-21T08:49:14.992Z</time>
      </trkpt>
      <trkpt lat="47.397426" lon="7.893177">
        <ele>664.774040</ele>
        <time>2021-11-21T08:49:24.426Z</time>
      </trkpt>
      <trkpt lat="47.396808" lon="7.892644">
        <ele>666.635867</ele>
        <time>2021-11-21T08:49:41.298Z</time>
      </trkpt>
      <trkpt lat="47.396399" lon="7.892118">
        <ele>667.581076</ele>
        <time>2021-11-21T08:49:53.101Z</time>
      </trkpt>
      <trkpt lat="47.395697" lon="7.890534">
        <ele>669.800299</ele>
        <time>2021-11-21T08:50:19.900Z</time>
      </trkpt>
      <trkpt lat="47.395182" lon="7.889702">
        <ele>671.100810</ele>
        <time>2021-11-21T08:50:36.069Z</time>
      </trkpt>
      <trkpt lat="47.394937" lon="7.889307">
        <ele>671.718816</ele>
        <time>2021-11-21T08:50:43.797Z</time>
      </trkpt>
      <trkpt lat="47.394848" lon="7.889167">
        <ele>671.940365</ele>
        <time>2021-11-21T08:50:46.629Z</time>
      </trkpt>
      <trkpt lat="47.394678" lon="7.888935">
        <ele>672.474437</ele>
        <time>2021-11-21T08:50:51.898Z</time>
      </trkpt>
      <trkpt lat="47.394482" lon="7.888702">
        <ele>673.437986</ele>
        <time>2021-11-21T08:50:57.884Z</time>
      </trkpt>
      <trkpt lat="47.394359" lon="7.888578">
        <ele>674.008315</ele>
        <time>2021-11-21T08:51:01.544Z</time>
      </trkpt>
      <trkpt lat="47.394146" lon="7.888371">
        <ele>674.984799</ele>
        <time>2021-11-21T08:51:07.693Z</time>
      </trkpt>
      <trkpt lat="47.393995" lon="7.888223">
        <ele>675.678841</ele>
        <time>2021-11-21T08:51:13.111Z</time>
      </trkpt>
      <trkpt lat="47.393916" lon="7.888143">
        <ele>676.045674</ele>
        <time>2021-11-21T08:51:15.343Z</time>
      </trkpt>
      <trkpt lat="47.393730" lon="7.887967">
        <ele>676.891660</ele>
        <time>2021-11-21T08:51:22.702Z</time>
      </trkpt>
      <trkpt lat="47.393623" lon="7.887857">
        <ele>677.390935</ele>
        <time>2021-11-21T08:51:25.847Z</time>
      </trkpt>
      <trkpt lat="47.393478" lon="7.887667">
        <ele>678.133278</ele>
        <time>2021-11-21T08:51:33.785Z</time>
      </trkpt>
      <trkpt lat="47.393429" lon="7.887604">
        <ele>678.382074</ele>
        <time>2021-11-21T08:51:36.114Z</time>
      </trkpt>
      <trkpt lat="47.393129" lon="7.887195">
        <ele>681.096948</ele>
        <time>2021-11-21T08:51:51.927Z</time>
      </trkpt>
      <trkpt lat="47.393034" lon="7.887066">
        <ele>682.273321</ele>
        <time>2021-11-21T08:51:57.344Z</time>
      </trkpt>
      <trkpt lat="47.392970" lon="7.886964">
        <ele>683.131614</ele>
        <time>2021-11-21T08:52:01.675Z</time>
      </trkpt>
      <trkpt lat="47.392849" lon="7.886770">
        <ele>684.759566</ele>
        <time>2021-11-21T08:52:10.212Z</time>
      </trkpt>
      <trkpt lat="47.392831" lon="7.886731">
        <ele>685.050870</ele>
        <time>2021-11-21T08:52:11.865Z</time>
      </trkpt>
      <trkpt lat="47.392756" lon="7.886570">
        <ele>686.256996</ele>
        <time>2021-11-21T08:52:19.818Z</time>
      </trkpt>
      <trkpt lat="47.392679" lon="7.886220">
        <ele>688.528219</ele>
        <time>2021-11-21T08:52:32.980Z</time>
      </trkpt>
      <trkpt lat="47.392677" lon="7.886170">
        <ele>688.837332</ele>
        <time>2021-11-21T08:52:35.744Z</time>
      </trkpt>
      <trkpt lat="47.392666" lon="7.885811">
        <ele>691.055169</ele>
        <time>2021-11-21T08:52:49.164Z</time>
      </trkpt>
      <trkpt lat="47.392623" lon="7.885495">
        <ele>693.044372</ele>
        <time>2021-11-21T08:53:01.840Z</time>
      </trkpt>
      <trkpt lat="47.392609" lon="7.885409">
        <ele>693.590252</ele>
        <time>2021-11-21T08:53:05.397Z</time>
      </trkpt>
      <trkpt lat="47.392513" lon="7.884798">
        <ele>697.065914</ele>
        <time>2021-11-21T08:53:29.762Z</time>
      </trkpt>
      <trkpt lat="47.392466" lon="7.884585">
        <ele>698.168584</ele>
        <time>2021-11-21T08:53:39.489Z</time>
      </trkpt>
      <trkpt lat="47.392294" lon="7.884155">
        <ele>700.626888</ele>
        <time>2021-11-21T08:53:57.666Z</time>
      </trkpt>
      <trkpt lat="47.392254" lon="7.884010">
        <ele>701.397559</ele>
        <time>2021-11-21T08:54:03.871Z</time>
      </trkpt>
      <trkpt lat="47.392211" lon="7.884026">
        <ele>701.719961</ele>
        <time>2021-11-21T08:54:06.830Z</time>
      </trkpt>
      <trkpt lat="47.392162" lon="7.884034">
        <ele>702.078390</ele>
        <time>2021-11-21T08:54:08.875Z</time>
      </trkpt>
      <trkpt lat="47.392162" lon="7.884034">
        <ele>702.078390</ele>
        <time>2021-11-21T08:54:08.890Z</time>
      </trkpt>
      <trkpt lat="47.392162" lon="7.884034">
        <ele>702.078390</ele>
        <time>2021-11-21T08:54:08.929Z</time>
      </trkpt>
      <trkpt lat="47.392103" lon="7.884038">
        <ele>702.507806</ele>
        <time>2021-11-21T08:54:10.695Z</time>
      </trkpt>
      <trkpt lat="47.391889" lon="7.884037">
        <ele>704.063721</ele>
        <time>2021-11-21T08:54:21.106Z</time>
      </trkpt>
      <trkpt lat="47.391805" lon="7.884045">
        <ele>704.675718</ele>
        <time>2021-11-21T08:54:24.892Z</time>
      </trkpt>
      <trkpt lat="47.391641" lon="7.884116">
        <ele>705.918252</ele>
        <time>2021-11-21T08:54:30.637Z</time>
      </trkpt>
      <trkpt lat="47.391587" lon="7.884140">
        <ele>706.328251</ele>
        <time>2021-11-21T08:54:33.740Z</time>
      </trkpt>
      <trkpt lat="47.391244" lon="7.884303">
        <ele>708.666414</ele>
        <time>2021-11-21T08:54:46.323Z</time>
      </trkpt>
      <trkpt lat="47.391195" lon="7.884319">
        <ele>708.747661</ele>
        <time>2021-11-21T08:54:48.781Z</time>
      </trkpt>
      <trkpt lat="47.391202" lon="7.884404">
        <ele>708.841513</ele>
        <time>2021-11-21T08:54:50.433Z</time>
      </trkpt>
      <trkpt lat="47.391207" lon="7.884463">
        <ele>708.906685</ele>
        <time>2021-11-21T08:54:50.976Z</time>
      </trkpt>
      <trkpt lat="47.391250" lon="7.884976">
        <ele>709.473256</ele>
        <time>2021-11-21T08:55:00.040Z</time>
      </trkpt>
      <trkpt lat="47.391250" lon="7.885010">
        <ele>709.510522</ele>
        <time>2021-11-21T08:55:00.319Z</time>
      </trkpt>
      <trkpt lat="47.391250" lon="7.885043">
        <ele>709.546691</ele>
        <time>2021-11-21T08:55:00.767Z</time>
      </trkpt>
      <trkpt lat="47.391249" lon="7.885092">
        <ele>709.600423</ele>
        <time>2021-11-21T08:55:01.536Z</time>
      </trkpt>
      <trkpt lat="47.391244" lon="7.885131">
        <ele>709.643928</ele>
        <time>2021-11-21T08:55:01.876Z</time>
      </trkpt>
      <trkpt lat="47.391156" lon="7.885349">
        <ele>709.922121</ele>
        <time>2021-11-21T08:55:08.059Z</time>
      </trkpt>
      <trkpt lat="47.390789" lon="7.885739">
        <ele>710.654088</ele>
        <time>2021-11-21T08:55:17.535Z</time>
      </trkpt>
      <trkpt lat="47.390589" lon="7.886148">
        <ele>711.207092</ele>
        <time>2021-11-21T08:55:25.603Z</time>
      </trkpt>
      <trkpt lat="47.390174" lon="7.886366">
        <ele>713.396720</ele>
        <time>2021-11-21T08:55:36.205Z</time>
      </trkpt>
      <trkpt lat="47.390010" lon="7.886375">
        <ele>714.591173</ele>
        <time>2021-11-21T08:55:41.042Z</time>
      </trkpt>
      <trkpt lat="47.389265" lon="7.885721">
        <ele>720.898775</ele>
        <time>2021-11-21T08:56:25.223Z</time>
      </trkpt>
      <trkpt lat="47.388919" lon="7.884864">
        <ele>726.685212</ele>
        <time>2021-11-21T08:57:10.929Z</time>
      </trkpt>
      <trkpt lat="47.388573" lon="7.884390">
        <ele>732.554894</ele>
        <time>2021-11-21T08:57:44.050Z</time>
      </trkpt>
      <trkpt lat="47.388422" lon="7.884265">
        <ele>734.707917</ele>
        <time>2021-11-21T08:57:55.919Z</time>
      </trkpt>
      <trkpt lat="47.388408" lon="7.884263">
        <ele>734.882864</ele>
        <time>2021-11-21T08:57:57.750Z</time>
      </trkpt>
      <trkpt lat="47.388364" lon="7.884250">
        <ele>735.440985</ele>
        <time>2021-11-21T08:58:02.546Z</time>
      </trkpt>
      <trkpt lat="47.388196" lon="7.884336">
        <ele>737.652536</ele>
        <time>2021-11-21T08:58:11.839Z</time>
      </trkpt>
      <trkpt lat="47.387755" lon="7.885141">
        <ele>746.372720</ele>
        <time>2021-11-21T08:59:02.514Z</time>
      </trkpt>
      <trkpt lat="47.387707" lon="7.885233">
        <ele>747.235509</ele>
        <time>2021-11-21T08:59:08.422Z</time>
      </trkpt>
      <trkpt lat="47.387683" lon="7.885303">
        <ele>747.701028</ele>
        <time>2021-11-21T08:59:11.595Z</time>
      </trkpt>
      <trkpt lat="47.387398" lon="7.886401">
        <ele>754.677706</ele>
        <time>2021-11-21T09:00:03.309Z</time>
      </trkpt>
      <trkpt lat="47.387306" lon="7.886516">
        <ele>755.733869</ele>
        <time>2021-11-21T09:00:08.221Z</time>
      </trkpt>
      <trkpt lat="47.386748" lon="7.886883">
        <ele>761.086548</ele>
        <time>2021-11-21T09:00:38.960Z</time>
      </trkpt>
      <trkpt lat="47.386374" lon="7.886851">
        <ele>763.299789</ele>
        <time>2021-11-21T09:00:53.178Z</time>
      </trkpt>
      <trkpt lat="47.386232" lon="7.886454">
        <ele>764.233856</ele>
        <time>2021-11-21T09:01:04.403Z</time>
      </trkpt>
      <trkpt lat="47.385963" lon="7.886304">
        <ele>765.117345</ele>
        <time>2021-11-21T09:01:14.626Z</time>
      </trkpt>
      <trkpt lat="47.385742" lon="7.885880">
        <ele>766.230528</ele>
        <time>2021-11-21T09:01:26.723Z</time>
      </trkpt>
      <trkpt lat="47.385591" lon="7.885872">
        <ele>766.694797</ele>
        <time>2021-11-21T09:01:31.351Z</time>
      </trkpt>
      <trkpt lat="47.385306" lon="7.886112">
        <ele>767.702843</ele>
        <time>2021-11-21T09:01:39.991Z</time>
      </trkpt>
      <trkpt lat="47.385260" lon="7.886114">
        <ele>767.844246</ele>
        <time>2021-11-21T09:01:41.125Z</time>
      </trkpt>
      <trkpt lat="47.385260" lon="7.886114">
        <ele>767.844246</ele>
        <time>2021-11-21T09:01:41.129Z</time>
      </trkpt>
      <trkpt lat="47.385269" lon="7.886055">
        <ele>767.970066</ele>
        <time>2021-11-21T09:01:42.621Z</time>
      </trkpt>
      <trkpt lat="47.385307" lon="7.885552">
        <ele>768.025236</ele>
        <time>2021-11-21T09:01:50.015Z</time>
      </trkpt>
      <trkpt lat="47.385286" lon="7.884487">
        <ele>767.385062</ele>
        <time>2021-11-21T09:02:02.355Z</time>
      </trkpt>
      <trkpt lat="47.385249" lon="7.884355">
        <ele>767.299222</ele>
        <time>2021-11-21T09:02:04.081Z</time>
      </trkpt>
      <trkpt lat="47.385211" lon="7.884273">
        <ele>767.239517</ele>
        <time>2021-11-21T09:02:04.950Z</time>
      </trkpt>
      <trkpt lat="47.384528" lon="7.883307">
        <ele>767.052506</ele>
        <time>2021-11-21T09:02:20.968Z</time>
      </trkpt>
      <trkpt lat="47.384441" lon="7.883187">
        <ele>767.219894</ele>
        <time>2021-11-21T09:02:22.650Z</time>
      </trkpt>
      <trkpt lat="47.384375" lon="7.883105">
        <ele>767.341170</ele>
        <time>2021-11-21T09:02:24.212Z</time>
      </trkpt>
      <trkpt lat="47.384317" lon="7.883046">
        <ele>767.440200</ele>
        <time>2021-11-21T09:02:25.763Z</time>
      </trkpt>
      <trkpt lat="47.384261" lon="7.882984">
        <ele>767.538613</ele>
        <time>2021-11-21T09:02:27.100Z</time>
      </trkpt>
      <trkpt lat="47.384012" lon="7.882773">
        <ele>767.942283</ele>
        <time>2021-11-21T09:02:33.235Z</time>
      </trkpt>
      <trkpt lat="47.383798" lon="7.882581">
        <ele>768.294372</ele>
        <time>2021-11-21T09:02:39.774Z</time>
      </trkpt>
      <trkpt lat="47.382837" lon="7.882292">
        <ele>771.153703</ele>
        <time>2021-11-21T09:03:14.814Z</time>
      </trkpt>
      <trkpt lat="47.382799" lon="7.882273">
        <ele>771.379989</ele>
        <time>2021-11-21T09:03:18.354Z</time>
      </trkpt>
      <trkpt lat="47.382769" lon="7.882230">
        <ele>771.615789</ele>
        <time>2021-11-21T09:03:21.700Z</time>
      </trkpt>
      <trkpt lat="47.382492" lon="7.881338">
        <ele>775.363639</ele>
        <time>2021-11-21T09:03:53.227Z</time>
      </trkpt>
      <trkpt lat="47.382380" lon="7.880969">
        <ele>776.908014</ele>
        <time>2021-11-21T09:04:05.004Z</time>
      </trkpt>
      <trkpt lat="47.382337" lon="7.880830">
        <ele>777.491656</ele>
        <time>2021-11-21T09:04:11.721Z</time>
      </trkpt>
      <trkpt lat="47.382211" lon="7.880482">
        <ele>778.998803</ele>
        <time>2021-11-21T09:04:20.195Z</time>
      </trkpt>
      <trkpt lat="47.382140" lon="7.880289">
        <ele>779.170310</ele>
        <time>2021-11-21T09:04:28.884Z</time>
      </trkpt>
      <trkpt lat="47.382065" lon="7.880116">
        <ele>778.929736</ele>
        <time>2021-11-21T09:04:31.733Z</time>
      </trkpt>
      <trkpt lat="47.381927" lon="7.879816">
        <ele>778.504991</ele>
        <time>2021-11-21T09:04:40.363Z</time>
      </trkpt>
      <trkpt lat="47.381591" lon="7.879099">
        <ele>777.483803</ele>
        <time>2021-11-21T09:04:52.069Z</time>
      </trkpt>
      <trkpt lat="47.381469" lon="7.878871">
        <ele>777.143473</ele>
        <time>2021-11-21T09:04:54.778Z</time>
      </trkpt>
      <trkpt lat="47.381012" lon="7.877610">
        <ele>770.494962</ele>
        <time>2021-11-21T09:05:07.092Z</time>
      </trkpt>
      <trkpt lat="47.380960" lon="7.877498">
        <ele>769.277817</ele>
        <time>2021-11-21T09:05:08.162Z</time>
      </trkpt>
      <trkpt lat="47.380857" lon="7.877275">
        <ele>766.858395</ele>
        <time>2021-11-21T09:05:10.307Z</time>
      </trkpt>
      <trkpt lat="47.380459" lon="7.876169">
        <ele>755.632561</ele>
        <time>2021-11-21T09:05:20.247Z</time>
      </trkpt>
      <trkpt lat="47.380404" lon="7.876009">
        <ele>754.024290</ele>
        <time>2021-11-21T09:05:21.649Z</time>
      </trkpt>
      <trkpt lat="47.380347" lon="7.875858">
        <ele>752.474796</ele>
        <time>2021-11-21T09:05:22.988Z</time>
      </trkpt>
      <trkpt lat="47.380065" lon="7.875191">
        <ele>741.157731</ele>
        <time>2021-11-21T09:05:29.152Z</time>
      </trkpt>
      <trkpt lat="47.379969" lon="7.874840">
        <ele>735.689920</ele>
        <time>2021-11-21T09:05:32.063Z</time>
      </trkpt>
      <trkpt lat="47.379852" lon="7.873888">
        <ele>721.714504</ele>
        <time>2021-11-21T09:05:39.552Z</time>
      </trkpt>
      <trkpt lat="47.379784" lon="7.873630">
        <ele>717.715579</ele>
        <time>2021-11-21T09:05:41.691Z</time>
      </trkpt>
      <trkpt lat="47.379570" lon="7.873321">
        <ele>711.936743</ele>
        <time>2021-11-21T09:05:45.096Z</time>
      </trkpt>
      <trkpt lat="47.379336" lon="7.873020">
        <ele>706.796320</ele>
        <time>2021-11-21T09:05:48.658Z</time>
      </trkpt>
      <trkpt lat="47.379296" lon="7.872969">
        <ele>705.920944</ele>
        <time>2021-11-21T09:05:49.256Z</time>
      </trkpt>
      <trkpt lat="47.379101" lon="7.872717">
        <ele>701.628643</ele>
        <time>2021-11-21T09:05:52.251Z</time>
      </trkpt>
      <trkpt lat="47.378992" lon="7.872573">
        <ele>699.206026</ele>
        <time>2021-11-21T09:05:53.925Z</time>
      </trkpt>
      <trkpt lat="47.378941" lon="7.872504">
        <ele>698.060282</ele>
        <time>2021-11-21T09:05:54.725Z</time>
      </trkpt>
      <trkpt lat="47.378934" lon="7.872495">
        <ele>697.906540</ele>
        <time>2021-11-21T09:05:54.842Z</time>
      </trkpt>
      <trkpt lat="47.378733" lon="7.872236">
        <ele>693.487719</ele>
        <time>2021-11-21T09:05:57.972Z</time>
      </trkpt>
      <trkpt lat="47.378712" lon="7.872153">
        <ele>692.493848</ele>
        <time>2021-11-21T09:05:58.666Z</time>
      </trkpt>
      <trkpt lat="47.378682" lon="7.872035">
        <ele>691.080033</ele>
        <time>2021-11-21T09:05:59.662Z</time>
      </trkpt>
      <trkpt lat="47.378769" lon="7.871985">
        <ele>689.533599</ele>
        <time>2021-11-21T09:06:00.502Z</time>
      </trkpt>
      <trkpt lat="47.379044" lon="7.871852">
        <ele>684.740179</ele>
        <time>2021-11-21T09:06:02.909Z</time>
      </trkpt>
      <trkpt lat="47.379227" lon="7.871763">
        <ele>684.167071</ele>
        <time>2021-11-21T09:06:04.568Z</time>
      </trkpt>
      <trkpt lat="47.379412" lon="7.871620">
        <ele>684.065342</ele>
        <time>2021-11-21T09:06:06.529Z</time>
      </trkpt>
      <trkpt lat="47.379717" lon="7.871234">
        <ele>683.869651</ele>
        <time>2021-11-21T09:06:10.783Z</time>
      </trkpt>
      <trkpt lat="47.379746" lon="7.871189">
        <ele>683.849158</ele>
        <time>2021-11-21T09:06:11.612Z</time>
      </trkpt>
      <trkpt lat="47.380047" lon="7.870663">
        <ele>683.621969</ele>
        <time>2021-11-21T09:06:24.894Z</time>
      </trkpt>
      <trkpt lat="47.380090" lon="7.870638">
        <ele>683.599455</ele>
        <time>2021-11-21T09:06:26.689Z</time>
      </trkpt>
      <trkpt lat="47.380173" lon="7.870494">
        <ele>683.537071</ele>
        <time>2021-11-21T09:06:30.145Z</time>
      </trkpt>
      <trkpt lat="47.380175" lon="7.870437">
        <ele>683.518242</ele>
        <time>2021-11-21T09:06:31.198Z</time>
      </trkpt>
      <trkpt lat="47.380320" lon="7.870168">
        <ele>683.404818</ele>
        <time>2021-11-21T09:06:41.343Z</time>
      </trkpt>
      <trkpt lat="47.380441" lon="7.869986">
        <ele>683.807331</ele>
        <time>2021-11-21T09:06:46.024Z</time>
      </trkpt>
      <trkpt lat="47.380483" lon="7.869921">
        <ele>684.069311</ele>
        <time>2021-11-21T09:06:48.667Z</time>
      </trkpt>
      <trkpt lat="47.380570" lon="7.869787">
        <ele>684.610628</ele>
        <time>2021-11-21T09:06:55.354Z</time>
      </trkpt>
      <trkpt lat="47.380725" lon="7.869588">
        <ele>685.495055</ele>
        <time>2021-11-21T09:07:01.917Z</time>
      </trkpt>
      <trkpt lat="47.380843" lon="7.869437">
        <ele>686.167410</ele>
        <time>2021-11-21T09:07:10.470Z</time>
      </trkpt>
      <trkpt lat="47.380950" lon="7.869325">
        <ele>686.732174</ele>
        <time>2021-11-21T09:07:14.233Z</time>
      </trkpt>
      <trkpt lat="47.381084" lon="7.869193">
        <ele>687.425796</ele>
        <time>2021-11-21T09:07:21.343Z</time>
      </trkpt>
      <trkpt lat="47.381343" lon="7.868980">
        <ele>688.702378</ele>
        <time>2021-11-21T09:07:30.047Z</time>
      </trkpt>
      <trkpt lat="47.381410" lon="7.868929">
        <ele>689.026965</ele>
        <time>2021-11-21T09:07:33.921Z</time>
      </trkpt>
      <trkpt lat="47.381482" lon="7.868872">
        <ele>689.378751</ele>
        <time>2021-11-21T09:07:36.393Z</time>
      </trkpt>
      <trkpt lat="47.381814" lon="7.868690">
        <ele>690.903737</ele>
        <time>2021-11-21T09:07:45.250Z</time>
      </trkpt>
      <trkpt lat="47.382207" lon="7.868506">
        <ele>690.437544</ele>
        <time>2021-11-21T09:07:50.791Z</time>
      </trkpt>
      <trkpt lat="47.383471" lon="7.867892">
        <ele>687.952951</ele>
        <time>2021-11-21T09:08:04.556Z</time>
      </trkpt>
      <trkpt lat="47.383776" lon="7.867821">
        <ele>687.390349</ele>
        <time>2021-11-21T09:08:07.557Z</time>
      </trkpt>
      <trkpt lat="47.384400" lon="7.867647">
        <ele>686.248032</ele>
        <time>2021-11-21T09:08:14.372Z</time>
      </trkpt>
      <trkpt lat="47.385102" lon="7.867627">
        <ele>684.985000</ele>
        <time>2021-11-21T09:08:22.603Z</time>
      </trkpt>
      <trkpt lat="47.385795" lon="7.867435">
        <ele>684.085619</ele>
        <time>2021-11-21T09:08:32.595Z</time>
      </trkpt>
      <trkpt lat="47.385944" lon="7.867392">
        <ele>683.937717</ele>
        <time>2021-11-21T09:08:34.511Z</time>
      </trkpt>
      <trkpt lat="47.386040" lon="7.867365">
        <ele>683.842512</ele>
        <time>2021-11-21T09:08:35.556Z</time>
      </trkpt>
      <trkpt lat="47.386464" lon="7.867362">
        <ele>683.429443</ele>
        <time>2021-11-21T09:08:40.691Z</time>
      </trkpt>
      <trkpt lat="47.386603" lon="7.867395">
        <ele>683.292290</ele>
        <time>2021-11-21T09:08:42.313Z</time>
      </trkpt>
      <trkpt lat="47.386883" lon="7.867395">
        <ele>683.019512</ele>
        <time>2021-11-21T09:08:45.541Z</time>
      </trkpt>
      <trkpt lat="47.387496" lon="7.867166">
        <ele>682.397848</ele>
        <time>2021-11-21T09:08:53.357Z</time>
      </trkpt>
      <trkpt lat="47.387496" lon="7.867166">
        <ele>682.397848</ele>
        <time>2021-11-21T09:08:53.406Z</time>
      </trkpt>
      <trkpt lat="47.387697" lon="7.867213">
        <ele>682.196520</ele>
        <time>2021-11-21T09:08:55.937Z</time>
      </trkpt>
      <trkpt lat="47.387851" lon="7.867311">
        <ele>682.030628</ele>
        <time>2021-11-21T09:08:58.564Z</time>
      </trkpt>
      <trkpt lat="47.388334" lon="7.867941">
        <ele>681.393145</ele>
        <time>2021-11-21T09:09:06.483Z</time>
      </trkpt>
      <trkpt lat="47.388489" lon="7.868068">
        <ele>681.217788</ele>
        <time>2021-11-21T09:09:10.412Z</time>
      </trkpt>
      <trkpt lat="47.388570" lon="7.868126">
        <ele>681.128735</ele>
        <time>2021-11-21T09:09:11.285Z</time>
      </trkpt>
      <trkpt lat="47.388714" lon="7.868237">
        <ele>680.898874</ele>
        <time>2021-11-21T09:09:13.371Z</time>
      </trkpt>
      <trkpt lat="47.388898" lon="7.868496">
        <ele>679.849507</ele>
        <time>2021-11-21T09:09:16.128Z</time>
      </trkpt>
      <trkpt lat="47.389569" lon="7.869837">
        <ele>675.188627</ele>
        <time>2021-11-21T09:09:27.423Z</time>
      </trkpt>
      <trkpt lat="47.389733" lon="7.870073">
        <ele>674.243337</ele>
        <time>2021-11-21T09:09:29.475Z</time>
      </trkpt>
      <trkpt lat="47.390389" lon="7.870365">
        <ele>669.083457</ele>
        <time>2021-11-21T09:09:35.506Z</time>
      </trkpt>
      <trkpt lat="47.390678" lon="7.870726">
        <ele>665.825985</ele>
        <time>2021-11-21T09:09:38.821Z</time>
      </trkpt>
      <trkpt lat="47.390762" lon="7.870887">
        <ele>664.641638</ele>
        <time>2021-11-21T09:09:39.982Z</time>
      </trkpt>
      <trkpt lat="47.390859" lon="7.871070">
        <ele>663.287423</ele>
        <time>2021-11-21T09:09:41.387Z</time>
      </trkpt>
      <trkpt lat="47.391042" lon="7.871238">
        <ele>661.433009</ele>
        <time>2021-11-21T09:09:43.247Z</time>
      </trkpt>
      <trkpt lat="47.391155" lon="7.871190">
        <ele>660.421046</ele>
        <time>2021-11-21T09:09:44.299Z</time>
      </trkpt>
      <trkpt lat="47.391237" lon="7.871032">
        <ele>659.261055</ele>
        <time>2021-11-21T09:09:45.542Z</time>
      </trkpt>
      <trkpt lat="47.391248" lon="7.870968">
        <ele>658.876323</ele>
        <time>2021-11-21T09:09:45.907Z</time>
      </trkpt>
      <trkpt lat="47.391246" lon="7.870873">
        <ele>658.322530</ele>
        <time>2021-11-21T09:09:46.450Z</time>
      </trkpt>
      <trkpt lat="47.390810" lon="7.869784">
        <ele>650.304565</ele>
        <time>2021-11-21T09:09:53.901Z</time>
      </trkpt>
      <trkpt lat="47.390135" lon="7.868913">
        <ele>641.891684</ele>
        <time>2021-11-21T09:10:01.685Z</time>
      </trkpt>
      <trkpt lat="47.389999" lon="7.868629">
        <ele>639.221010</ele>
        <time>2021-11-21T09:10:03.729Z</time>
      </trkpt>
      <trkpt lat="47.389908" lon="7.868143">
        <ele>635.046674</ele>
        <time>2021-11-21T09:10:06.648Z</time>
      </trkpt>
      <trkpt lat="47.389913" lon="7.867526">
        <ele>629.938543</ele>
        <time>2021-11-21T09:10:10.155Z</time>
      </trkpt>
      <trkpt lat="47.390028" lon="7.865801">
        <ele>615.882295</ele>
        <time>2021-11-21T09:10:19.990Z</time>
      </trkpt>
      <trkpt lat="47.390057" lon="7.865367">
        <ele>612.564423</ele>
        <time>2021-11-21T09:10:22.468Z</time>
      </trkpt>
      <trkpt lat="47.390138" lon="7.864689">
        <ele>607.326573</ele>
        <time>2021-11-21T09:10:26.408Z</time>
      </trkpt>
      <trkpt lat="47.390658" lon="7.863426">
        <ele>597.039274</ele>
        <time>2021-11-21T09:10:35.084Z</time>
      </trkpt>
      <trkpt lat="47.390852" lon="7.863147">
        <ele>594.997563</ele>
        <time>2021-11-21T09:10:37.499Z</time>
      </trkpt>
      <trkpt lat="47.391861" lon="7.862140">
        <ele>585.815257</ele>
        <time>2021-11-21T09:10:48.429Z</time>
      </trkpt>
      <trkpt lat="47.391930" lon="7.862028">
        <ele>585.114531</ele>
        <time>2021-11-21T09:10:49.351Z</time>
      </trkpt>
      <trkpt lat="47.392013" lon="7.861871">
        <ele>584.286312</ele>
        <time>2021-11-21T09:10:50.544Z</time>
      </trkpt>
      <trkpt lat="47.392159" lon="7.861591">
        <ele>582.816860</ele>
        <time>2021-11-21T09:10:52.754Z</time>
      </trkpt>
      <trkpt lat="47.392252" lon="7.861291">
        <ele>581.444993</ele>
        <time>2021-11-21T09:10:54.777Z</time>
      </trkpt>
      <trkpt lat="47.392446" lon="7.860609">
        <ele>578.369293</ele>
        <time>2021-11-21T09:10:59.332Z</time>
      </trkpt>
      <trkpt lat="47.392873" lon="7.859213">
        <ele>572.836425</ele>
        <time>2021-11-21T09:11:08.924Z</time>
      </trkpt>
      <trkpt lat="47.393583" lon="7.857849">
        <ele>568.190622</ele>
        <time>2021-11-21T09:11:20.632Z</time>
      </trkpt>
      <trkpt lat="47.393712" lon="7.857629">
        <ele>567.404753</ele>
        <time>2021-11-21T09:11:22.638Z</time>
      </trkpt>
      <trkpt lat="47.393747" lon="7.857569">
        <ele>567.191927</ele>
        <time>2021-11-21T09:11:23.167Z</time>
      </trkpt>
      <trkpt lat="47.393840" lon="7.857424">
        <ele>566.679463</ele>
        <time>2021-11-21T09:11:24.549Z</time>
      </trkpt>
      <trkpt lat="47.394330" lon="7.856716">
        <ele>564.081770</ele>
        <time>2021-11-21T09:11:31.389Z</time>
      </trkpt>
      <trkpt lat="47.394762" lon="7.856268">
        <ele>562.081378</ele>
        <time>2021-11-21T09:11:36.552Z</time>
      </trkpt>
      <trkpt lat="47.394873" lon="7.856111">
        <ele>561.498962</ele>
        <time>2021-11-21T09:11:38.011Z</time>
      </trkpt>
      <trkpt lat="47.394997" lon="7.855921">
        <ele>560.821867</ele>
        <time>2021-11-21T09:11:39.784Z</time>
      </trkpt>
      <trkpt lat="47.395030" lon="7.855860">
        <ele>560.621535</ele>
        <time>2021-11-21T09:11:40.301Z</time>
      </trkpt>
      <trkpt lat="47.395075" lon="7.855775">
        <ele>560.334327</ele>
        <time>2021-11-21T09:11:40.984Z</time>
      </trkpt>
      <trkpt lat="47.395196" lon="7.855528">
        <ele>559.390455</ele>
        <time>2021-11-21T09:11:43.007Z</time>
      </trkpt>
      <trkpt lat="47.395261" lon="7.855418">
        <ele>558.938433</ele>
        <time>2021-11-21T09:11:43.954Z</time>
      </trkpt>
      <trkpt lat="47.395350" lon="7.855275">
        <ele>558.337071</ele>
        <time>2021-11-21T09:11:45.215Z</time>
      </trkpt>
      <trkpt lat="47.395428" lon="7.855175">
        <ele>557.864761</ele>
        <time>2021-11-21T09:11:46.255Z</time>
      </trkpt>
      <trkpt lat="47.395483" lon="7.855116">
        <ele>557.553915</ele>
        <time>2021-11-21T09:11:46.910Z</time>
      </trkpt>
      <trkpt lat="47.395563" lon="7.855042">
        <ele>557.122256</ele>
        <time>2021-11-21T09:11:47.800Z</time>
      </trkpt>
      <trkpt lat="47.395630" lon="7.854989">
        <ele>556.774689</ele>
        <time>2021-11-21T09:11:48.504Z</time>
      </trkpt>
      <trkpt lat="47.396094" lon="7.854648">
        <ele>554.404655</ele>
        <time>2021-11-21T09:11:53.364Z</time>
      </trkpt>
      <trkpt lat="47.396458" lon="7.854340">
        <ele>552.486289</ele>
        <time>2021-11-21T09:11:57.310Z</time>
      </trkpt>
      <trkpt lat="47.396734" lon="7.854071">
        <ele>551.507620</ele>
        <time>2021-11-21T09:12:00.531Z</time>
      </trkpt>
      <trkpt lat="47.396904" lon="7.853864">
        <ele>550.949818</ele>
        <time>2021-11-21T09:12:02.793Z</time>
      </trkpt>
      <trkpt lat="47.396956" lon="7.853787">
        <ele>550.763401</ele>
        <time>2021-11-21T09:12:03.498Z</time>
      </trkpt>
      <trkpt lat="47.397013" lon="7.853694">
        <ele>550.548377</ele>
        <time>2021-11-21T09:12:04.380Z</time>
      </trkpt>
      <trkpt lat="47.397171" lon="7.853390">
        <ele>549.891481</ele>
        <time>2021-11-21T09:12:07.101Z</time>
      </trkpt>
      <trkpt lat="47.397240" lon="7.853282">
        <ele>549.636953</ele>
        <time>2021-11-21T09:12:08.166Z</time>
      </trkpt>
      <trkpt lat="47.397399" lon="7.853113">
        <ele>549.141000</ele>
        <time>2021-11-21T09:12:10.401Z</time>
      </trkpt>
      <trkpt lat="47.397466" lon="7.853058">
        <ele>548.946928</ele>
        <time>2021-11-21T09:12:11.169Z</time>
      </trkpt>
      <trkpt lat="47.397584" lon="7.852978">
        <ele>548.618197</ele>
        <time>2021-11-21T09:12:12.625Z</time>
      </trkpt>
      <trkpt lat="47.397829" lon="7.852855">
        <ele>547.963026</ele>
        <time>2021-11-21T09:12:15.700Z</time>
      </trkpt>
      <trkpt lat="47.399819" lon="7.851860">
        <ele>545.107974</ele>
        <time>2021-11-21T09:12:43.617Z</time>
      </trkpt>
      <trkpt lat="47.400748" lon="7.852175">
        <ele>540.014377</ele>
        <time>2021-11-21T09:12:52.788Z</time>
      </trkpt>
      <trkpt lat="47.400993" lon="7.852181">
        <ele>538.704932</ele>
        <time>2021-11-21T09:12:54.995Z</time>
      </trkpt>
      <trkpt lat="47.401396" lon="7.852080">
        <ele>536.520557</ele>
        <time>2021-11-21T09:12:58.582Z</time>
      </trkpt>
      <trkpt lat="47.401481" lon="7.852058">
        <ele>535.812787</ele>
        <time>2021-11-21T09:12:59.316Z</time>
      </trkpt>
      <trkpt lat="47.401845" lon="7.851841">
        <ele>532.087956</ele>
        <time>2021-11-21T09:13:02.693Z</time>
      </trkpt>
      <trkpt lat="47.402868" lon="7.850841">
        <ele>520.447589</ele>
        <time>2021-11-21T09:13:13.209Z</time>
      </trkpt>
      <trkpt lat="47.403486" lon="7.850249">
        <ele>516.557439</ele>
        <time>2021-11-21T09:13:19.818Z</time>
      </trkpt>
      <trkpt lat="47.404383" lon="7.849389">
        <ele>511.785404</ele>
        <time>2021-11-21T09:13:30.707Z</time>
      </trkpt>
      <trkpt lat="47.404599" lon="7.849165">
        <ele>511.179872</ele>
        <time>2021-11-21T09:13:33.926Z</time>
      </trkpt>
      <trkpt lat="47.404726" lon="7.848932">
        <ele>511.043042</ele>
        <time>2021-11-21T09:13:36.408Z</time>
      </trkpt>
      <trkpt lat="47.404852" lon="7.848646">
        <ele>510.886962</ele>
        <time>2021-11-21T09:13:40.465Z</time>
      </trkpt>
      <trkpt lat="47.404908" lon="7.848505">
        <ele>510.812189</ele>
        <time>2021-11-21T09:13:41.728Z</time>
      </trkpt>
      <trkpt lat="47.405700" lon="7.846541">
        <ele>509.760429</ele>
        <time>2021-11-21T09:14:02.727Z</time>
      </trkpt>
      <trkpt lat="47.405939" lon="7.846047">
        <ele>509.477026</ele>
        <time>2021-11-21T09:14:08.176Z</time>
      </trkpt>
      <trkpt lat="47.406156" lon="7.845724">
        <ele>509.264620</ele>
        <time>2021-11-21T09:14:12.412Z</time>
      </trkpt>
      <trkpt lat="47.406444" lon="7.845434">
        <ele>509.024288</ele>
        <time>2021-11-21T09:14:17.227Z</time>
      </trkpt>
      <trkpt lat="47.406668" lon="7.845324">
        <ele>508.861514</ele>
        <time>2021-11-21T09:14:20.438Z</time>
      </trkpt>
      <trkpt lat="47.407704" lon="7.845059">
        <ele>504.978229</ele>
        <time>2021-11-21T09:14:31.521Z</time>
      </trkpt>
      <trkpt lat="47.408170" lon="7.844961">
        <ele>503.167340</ele>
        <time>2021-11-21T09:14:35.876Z</time>
      </trkpt>
      <trkpt lat="47.408437" lon="7.844931">
        <ele>502.137157</ele>
        <time>2021-11-21T09:14:38.335Z</time>
      </trkpt>
      <trkpt lat="47.409142" lon="7.844968">
        <ele>497.876317</ele>
        <time>2021-11-21T09:14:44.756Z</time>
      </trkpt>
      <trkpt lat="47.409210" lon="7.844968">
        <ele>497.451743</ele>
        <time>2021-11-21T09:14:45.339Z</time>
      </trkpt>
      <trkpt lat="47.409459" lon="7.844940">
        <ele>495.892555</ele>
        <time>2021-11-21T09:14:47.588Z</time>
      </trkpt>
      <trkpt lat="47.409665" lon="7.844882">
        <ele>494.583204</ele>
        <time>2021-11-21T09:14:49.459Z</time>
      </trkpt>
      <trkpt lat="47.409752" lon="7.844850">
        <ele>494.023422</ele>
        <time>2021-11-21T09:14:50.245Z</time>
      </trkpt>
      <trkpt lat="47.409830" lon="7.844820">
        <ele>493.520183</ele>
        <time>2021-11-21T09:14:50.986Z</time>
      </trkpt>
      <trkpt lat="47.409986" lon="7.844760">
        <ele>492.513705</ele>
        <time>2021-11-21T09:14:52.452Z</time>
      </trkpt>
      <trkpt lat="47.410148" lon="7.844709">
        <ele>491.479518</ele>
        <time>2021-11-21T09:14:54.011Z</time>
      </trkpt>
      <trkpt lat="47.410293" lon="7.844651">
        <ele>490.602001</ele>
        <time>2021-11-21T09:14:55.451Z</time>
      </trkpt>
      <trkpt lat="47.410433" lon="7.844607">
        <ele>490.109739</ele>
        <time>2021-11-21T09:14:56.801Z</time>
      </trkpt>
      <trkpt lat="47.411166" lon="7.844371">
        <ele>487.529640</ele>
        <time>2021-11-21T09:15:04.180Z</time>
      </trkpt>
      <trkpt lat="47.411235" lon="7.844348">
        <ele>487.286371</ele>
        <time>2021-11-21T09:15:04.948Z</time>
      </trkpt>
      <trkpt lat="47.411264" lon="7.844343">
        <ele>487.185957</ele>
        <time>2021-11-21T09:15:05.346Z</time>
      </trkpt>
      <trkpt lat="47.411785" lon="7.844178">
        <ele>485.353430</ele>
        <time>2021-11-21T09:15:10.972Z</time>
      </trkpt>
      <trkpt lat="47.412769" lon="7.843850">
        <ele>482.520862</ele>
        <time>2021-11-21T09:15:21.526Z</time>
      </trkpt>
      <trkpt lat="47.412891" lon="7.843894">
        <ele>482.194480</ele>
        <time>2021-11-21T09:15:23.347Z</time>
      </trkpt>
      <trkpt lat="47.413673" lon="7.843752">
        <ele>480.146788</ele>
        <time>2021-11-21T09:15:35.163Z</time>
      </trkpt>
      <trkpt lat="47.414081" lon="7.843760">
        <ele>479.602696</ele>
        <time>2021-11-21T09:15:41.532Z</time>
      </trkpt>
      <trkpt lat="47.414534" lon="7.843769">
        <ele>479.259077</ele>
        <time>2021-11-21T09:15:48.989Z</time>
      </trkpt>
      <trkpt lat="47.414737" lon="7.843840">
        <ele>479.100853</ele>
        <time>2021-11-21T09:15:52.668Z</time>
      </trkpt>
      <trkpt lat="47.415123" lon="7.843938">
        <ele>478.803794</ele>
        <time>2021-11-21T09:16:00.137Z</time>
      </trkpt>
      <trkpt lat="47.415184" lon="7.843954">
        <ele>478.756804</ele>
        <time>2021-11-21T09:16:01.629Z</time>
      </trkpt>
      <trkpt lat="47.416215" lon="7.844386">
        <ele>478.267664</ele>
        <time>2021-11-21T09:16:26.172Z</time>
      </trkpt>
      <trkpt lat="47.417039" lon="7.844872">
        <ele>478.024099</ele>
        <time>2021-11-21T09:16:43.474Z</time>
      </trkpt>
      <trkpt lat="47.417634" lon="7.845250">
        <ele>476.760361</ele>
        <time>2021-11-21T09:16:53.766Z</time>
      </trkpt>
      <trkpt lat="47.417834" lon="7.845378">
        <ele>476.116171</ele>
        <time>2021-11-21T09:16:56.935Z</time>
      </trkpt>
      <trkpt lat="47.418028" lon="7.845491">
        <ele>475.499837</ele>
        <time>2021-11-21T09:17:00.038Z</time>
      </trkpt>
      <trkpt lat="47.418505" lon="7.845770">
        <ele>473.983566</ele>
        <time>2021-11-21T09:17:07.422Z</time>
      </trkpt>
      <trkpt lat="47.418787" lon="7.845930">
        <ele>473.090746</ele>
        <time>2021-11-21T09:17:11.661Z</time>
      </trkpt>
      <trkpt lat="47.419677" lon="7.846349">
        <ele>469.967573</ele>
        <time>2021-11-21T09:17:24.929Z</time>
      </trkpt>
      <trkpt lat="47.420292" lon="7.846569">
        <ele>467.804119</ele>
        <time>2021-11-21T09:17:34.060Z</time>
      </trkpt>
      <trkpt lat="47.421216" lon="7.846840">
        <ele>464.837356</ele>
        <time>2021-11-21T09:17:48.012Z</time>
      </trkpt>
      <trkpt lat="47.421469" lon="7.846914">
        <ele>464.072959</ele>
        <time>2021-11-21T09:17:51.821Z</time>
      </trkpt>
      <trkpt lat="47.421782" lon="7.847034">
        <ele>463.114571</ele>
        <time>2021-11-21T09:17:56.542Z</time>
      </trkpt>
      <trkpt lat="47.422224" lon="7.847204">
        <ele>461.760919</ele>
        <time>2021-11-21T09:18:03.251Z</time>
      </trkpt>
      <trkpt lat="47.422830" lon="7.847504">
        <ele>460.325383</ele>
        <time>2021-11-21T09:18:12.828Z</time>
      </trkpt>
      <trkpt lat="47.423160" lon="7.847639">
        <ele>459.670263</ele>
        <time>2021-11-21T09:18:18.185Z</time>
      </trkpt>
      <trkpt lat="47.423175" lon="7.847645">
        <ele>459.640532</ele>
        <time>2021-11-21T09:18:18.431Z</time>
      </trkpt>
      <trkpt lat="47.423326" lon="7.847739">
        <ele>459.327048</ele>
        <time>2021-11-21T09:18:21.124Z</time>
      </trkpt>
      <trkpt lat="47.423401" lon="7.847760">
        <ele>459.181000</ele>
        <time>2021-11-21T09:18:22.386Z</time>
      </trkpt>
      <trkpt lat="47.423488" lon="7.847784">
        <ele>459.011671</ele>
        <time>2021-11-21T09:18:23.867Z</time>
      </trkpt>
      <trkpt lat="47.423788" lon="7.847858">
        <ele>458.429750</ele>
        <time>2021-11-21T09:18:28.816Z</time>
      </trkpt>
      <trkpt lat="47.423887" lon="7.847874">
        <ele>458.239206</ele>
        <time>2021-11-21T09:18:30.568Z</time>
      </trkpt>
      <trkpt lat="47.424743" lon="7.847935">
        <ele>456.795907</ele>
        <time>2021-11-21T09:18:44.797Z</time>
      </trkpt>
      <trkpt lat="47.425016" lon="7.848030">
        <ele>456.353402</ele>
        <time>2021-11-21T09:18:49.533Z</time>
      </trkpt>
      <trkpt lat="47.425093" lon="7.848037">
        <ele>456.231685</ele>
        <time>2021-11-21T09:18:50.829Z</time>
      </trkpt>
      <trkpt lat="47.425165" lon="7.848031">
        <ele>456.117906</ele>
        <time>2021-11-21T09:18:51.911Z</time>
      </trkpt>
      <trkpt lat="47.427648" lon="7.848283">
        <ele>451.843021</ele>
        <time>2021-11-21T09:19:31.869Z</time>
      </trkpt>
      <trkpt lat="47.428268" lon="7.848175">
        <ele>450.698452</ele>
        <time>2021-11-21T09:19:41.969Z</time>
      </trkpt>
      <trkpt lat="47.428781" lon="7.847991">
        <ele>449.725845</ele>
        <time>2021-11-21T09:19:50.407Z</time>
      </trkpt>
      <trkpt lat="47.429321" lon="7.847805">
        <ele>448.704264</ele>
        <time>2021-11-21T09:19:59.305Z</time>
      </trkpt>
      <trkpt lat="47.429436" lon="7.847758">
        <ele>448.484433</ele>
        <time>2021-11-21T09:20:01.132Z</time>
      </trkpt>
      <trkpt lat="47.430098" lon="7.847528">
        <ele>446.871252</ele>
        <time>2021-11-21T09:20:11.720Z</time>
      </trkpt>
      <trkpt lat="47.430641" lon="7.847433">
        <ele>445.542961</ele>
        <time>2021-11-21T09:20:19.961Z</time>
      </trkpt>
      <trkpt lat="47.431292" lon="7.847484">
        <ele>443.965306</ele>
        <time>2021-11-21T09:20:29.659Z</time>
      </trkpt>
      <trkpt lat="47.431726" lon="7.847615">
        <ele>443.079753</ele>
        <time>2021-11-21T09:20:36.535Z</time>
      </trkpt>
      <trkpt lat="47.432368" lon="7.847858">
        <ele>441.754867</ele>
        <time>2021-11-21T09:20:46.993Z</time>
      </trkpt>
      <trkpt lat="47.432515" lon="7.847914">
        <ele>441.451384</ele>
        <time>2021-11-21T09:20:49.542Z</time>
      </trkpt>
      <trkpt lat="47.433365" lon="7.848309">
        <ele>439.796599</ele>
        <time>2021-11-21T09:21:03.833Z</time>
      </trkpt>
      <trkpt lat="47.433528" lon="7.848396">
        <ele>439.510406</ele>
        <time>2021-11-21T09:21:06.835Z</time>
      </trkpt>
      <trkpt lat="47.433795" lon="7.848524">
        <ele>439.046866</ele>
        <time>2021-11-21T09:21:11.414Z</time>
      </trkpt>
      <trkpt lat="47.434500" lon="7.848920">
        <ele>437.801391</ele>
        <time>2021-11-21T09:21:23.857Z</time>
      </trkpt>
      <trkpt lat="47.436050" lon="7.850036">
        <ele>434.554586</ele>
        <time>2021-11-21T09:21:50.694Z</time>
      </trkpt>
      <trkpt lat="47.436479" lon="7.850260">
        <ele>433.819505</ele>
        <time>2021-11-21T09:21:58.259Z</time>
      </trkpt>
      <trkpt lat="47.436538" lon="7.850283">
        <ele>433.757122</ele>
        <time>2021-11-21T09:21:59.128Z</time>
      </trkpt>
      <trkpt lat="47.436663" lon="7.850327">
        <ele>433.625751</ele>
        <time>2021-11-21T09:22:01.562Z</time>
      </trkpt>
      <trkpt lat="47.437310" lon="7.850269">
        <ele>432.963048</ele>
        <time>2021-11-21T09:22:12.783Z</time>
      </trkpt>
      <trkpt lat="47.437750" lon="7.850017">
        <ele>432.480620</ele>
        <time>2021-11-21T09:22:21.380Z</time>
      </trkpt>
      <trkpt lat="47.438127" lon="7.849642">
        <ele>431.998734</ele>
        <time>2021-11-21T09:22:29.754Z</time>
      </trkpt>
      <trkpt lat="47.442391" lon="7.843670">
        <ele>424.663710</ele>
        <time>2021-11-21T09:24:09.048Z</time>
      </trkpt>
      <trkpt lat="47.443079" lon="7.842585">
        <ele>422.892007</ele>
        <time>2021-11-21T09:24:25.128Z</time>
      </trkpt>
      <trkpt lat="47.444584" lon="7.839628">
        <ele>416.789555</ele>
        <time>2021-11-21T09:25:03.253Z</time>
      </trkpt>
      <trkpt lat="47.445072" lon="7.838787">
        <ele>414.683894</ele>
        <time>2021-11-21T09:25:14.365Z</time>
      </trkpt>
      <trkpt lat="47.445528" lon="7.838233">
        <ele>413.025952</ele>
        <time>2021-11-21T09:25:23.074Z</time>
      </trkpt>
      <trkpt lat="47.446064" lon="7.837840">
        <ele>411.348409</ele>
        <time>2021-11-21T09:25:31.897Z</time>
      </trkpt>
      <trkpt lat="47.446145" lon="7.837696">
        <ele>410.993237</ele>
        <time>2021-11-21T09:25:33.780Z</time>
      </trkpt>
      <trkpt lat="47.447146" lon="7.836805">
        <ele>407.750389</ele>
        <time>2021-11-21T09:25:51.240Z</time>
      </trkpt>
      <trkpt lat="47.448622" lon="7.835311">
        <ele>403.245796</ele>
        <time>2021-11-21T09:26:18.281Z</time>
      </trkpt>
      <trkpt lat="47.448978" lon="7.835062">
        <ele>402.519074</ele>
        <time>2021-11-21T09:26:24.356Z</time>
      </trkpt>
      <trkpt lat="47.448956" lon="7.834983">
        <ele>402.412458</ele>
        <time>2021-11-21T09:26:25.255Z</time>
      </trkpt>
      <trkpt lat="47.449275" lon="7.834788">
        <ele>401.775480</ele>
        <time>2021-11-21T09:26:29.065Z</time>
      </trkpt>
      <trkpt lat="47.449505" lon="7.834629">
        <ele>401.306963</ele>
        <time>2021-11-21T09:26:31.944Z</time>
      </trkpt>
      <trkpt lat="47.449669" lon="7.834494">
        <ele>400.960597</ele>
        <time>2021-11-21T09:26:34.036Z</time>
      </trkpt>
      <trkpt lat="47.449811" lon="7.834354">
        <ele>400.645660</ele>
        <time>2021-11-21T09:26:36.065Z</time>
      </trkpt>
      <trkpt lat="47.450016" lon="7.834124">
        <ele>400.172369</ele>
        <time>2021-11-21T09:26:39.032Z</time>
      </trkpt>
      <trkpt lat="47.451121" lon="7.832696">
        <ele>399.163677</ele>
        <time>2021-11-21T09:26:57.564Z</time>
      </trkpt>
      <trkpt lat="47.451327" lon="7.832461">
        <ele>398.984846</ele>
        <time>2021-11-21T09:27:01.491Z</time>
      </trkpt>
      <trkpt lat="47.451426" lon="7.832356">
        <ele>398.922190</ele>
        <time>2021-11-21T09:27:03.157Z</time>
      </trkpt>
      <trkpt lat="47.451701" lon="7.832106">
        <ele>398.830731</ele>
        <time>2021-11-21T09:27:07.967Z</time>
      </trkpt>
      <trkpt lat="47.451989" lon="7.831857">
        <ele>398.736211</ele>
        <time>2021-11-21T09:27:13.045Z</time>
      </trkpt>
      <trkpt lat="47.452175" lon="7.831696">
        <ele>398.675149</ele>
        <time>2021-11-21T09:27:16.529Z</time>
      </trkpt>
      <trkpt lat="47.452373" lon="7.831505">
        <ele>398.608170</ele>
        <time>2021-11-21T09:27:19.808Z</time>
      </trkpt>
      <trkpt lat="47.452618" lon="7.831252">
        <ele>398.523507</ele>
        <time>2021-11-21T09:27:23.982Z</time>
      </trkpt>
      <trkpt lat="47.453200" lon="7.830527">
        <ele>397.755203</ele>
        <time>2021-11-21T09:27:33.410Z</time>
      </trkpt>
      <trkpt lat="47.453250" lon="7.830464">
        <ele>397.650491</ele>
        <time>2021-11-21T09:27:34.206Z</time>
      </trkpt>
      <trkpt lat="47.453398" lon="7.830308">
        <ele>397.360769</ele>
        <time>2021-11-21T09:27:36.483Z</time>
      </trkpt>
      <trkpt lat="47.453492" lon="7.830220">
        <ele>397.183423</ele>
        <time>2021-11-21T09:27:37.698Z</time>
      </trkpt>
      <trkpt lat="47.453757" lon="7.829984">
        <ele>396.690301</ele>
        <time>2021-11-21T09:27:41.313Z</time>
      </trkpt>
      <trkpt lat="47.453989" lon="7.829813">
        <ele>396.277080</ele>
        <time>2021-11-21T09:27:44.078Z</time>
      </trkpt>
      <trkpt lat="47.454287" lon="7.829611">
        <ele>395.754512</ele>
        <time>2021-11-21T09:27:47.503Z</time>
      </trkpt>
      <trkpt lat="47.454472" lon="7.829506">
        <ele>395.428682</ele>
        <time>2021-11-21T09:27:49.742Z</time>
      </trkpt>
      <trkpt lat="47.454625" lon="7.829495">
        <ele>395.164504</ele>
        <time>2021-11-21T09:27:51.295Z</time>
      </trkpt>
      <trkpt lat="47.454803" lon="7.829577">
        <ele>394.842973</ele>
        <time>2021-11-21T09:27:53.416Z</time>
      </trkpt>
      <trkpt lat="47.455119" lon="7.829864">
        <ele>394.203432</ele>
        <time>2021-11-21T09:27:57.472Z</time>
      </trkpt>
      <trkpt lat="47.455185" lon="7.829882">
        <ele>394.087688</ele>
        <time>2021-11-21T09:27:58.145Z</time>
      </trkpt>
      <trkpt lat="47.455265" lon="7.829874">
        <ele>393.949404</ele>
        <time>2021-11-21T09:27:58.979Z</time>
      </trkpt>
      <trkpt lat="47.455471" lon="7.829717">
        <ele>393.549733</ele>
        <time>2021-11-21T09:28:01.805Z</time>
      </trkpt>
      <trkpt lat="47.455556" lon="7.829615">
        <ele>393.360955</ele>
        <time>2021-11-21T09:28:02.940Z</time>
      </trkpt>
      <trkpt lat="47.455802" lon="7.829313">
        <ele>392.809579</ele>
        <time>2021-11-21T09:28:06.930Z</time>
      </trkpt>
      <trkpt lat="47.455924" lon="7.829166">
        <ele>392.538187</ele>
        <time>2021-11-21T09:28:08.786Z</time>
      </trkpt>
      <trkpt lat="47.455989" lon="7.829100">
        <ele>392.446590</ele>
        <time>2021-11-21T09:28:09.989Z</time>
      </trkpt>
      <trkpt lat="47.456107" lon="7.828977">
        <ele>392.395090</ele>
        <time>2021-11-21T09:28:11.692Z</time>
      </trkpt>
      <trkpt lat="47.456883" lon="7.828406">
        <ele>392.085888</ele>
        <time>2021-11-21T09:28:22.726Z</time>
      </trkpt>
      <trkpt lat="47.457111" lon="7.828245">
        <ele>391.995756</ele>
        <time>2021-11-21T09:28:27.045Z</time>
      </trkpt>
      <trkpt lat="47.457158" lon="7.828212">
        <ele>391.977196</ele>
        <time>2021-11-21T09:28:27.672Z</time>
      </trkpt>
      <trkpt lat="47.457581" lon="7.827803">
        <ele>391.829893</ele>
        <time>2021-11-21T09:28:35.801Z</time>
      </trkpt>
      <trkpt lat="47.457644" lon="7.827725">
        <ele>391.849894</ele>
        <time>2021-11-21T09:28:37.021Z</time>
      </trkpt>
      <trkpt lat="47.457712" lon="7.827647">
        <ele>391.870843</ele>
        <time>2021-11-21T09:28:38.364Z</time>
      </trkpt>
      <trkpt lat="47.457842" lon="7.827433">
        <ele>391.918195</ele>
        <time>2021-11-21T09:28:41.563Z</time>
      </trkpt>
      <trkpt lat="47.458019" lon="7.827141">
        <ele>391.982743</ele>
        <time>2021-11-21T09:28:45.892Z</time>
      </trkpt>
      <trkpt lat="47.458261" lon="7.826740">
        <ele>392.071213</ele>
        <time>2021-11-21T09:28:52.034Z</time>
      </trkpt>
      <trkpt lat="47.458747" lon="7.825916">
        <ele>392.251189</ele>
        <time>2021-11-21T09:29:03.382Z</time>
      </trkpt>
      <trkpt lat="47.458942" lon="7.825616">
        <ele>391.949417</ele>
        <time>2021-11-21T09:29:07.642Z</time>
      </trkpt>
      <trkpt lat="47.458995" lon="7.825541">
        <ele>391.866047</ele>
        <time>2021-11-21T09:29:08.801Z</time>
      </trkpt>
      <trkpt lat="47.459101" lon="7.825404">
        <ele>391.706050</ele>
        <time>2021-11-21T09:29:11.038Z</time>
      </trkpt>
      <trkpt lat="47.459273" lon="7.825195">
        <ele>391.453042</ele>
        <time>2021-11-21T09:29:13.785Z</time>
      </trkpt>
      <trkpt lat="47.459476" lon="7.824983">
        <ele>391.170594</ele>
        <time>2021-11-21T09:29:16.784Z</time>
      </trkpt>
      <trkpt lat="47.459583" lon="7.824865">
        <ele>391.018894</ele>
        <time>2021-11-21T09:29:18.439Z</time>
      </trkpt>
      <trkpt lat="47.459717" lon="7.824715">
        <ele>390.827888</ele>
        <time>2021-11-21T09:29:20.480Z</time>
      </trkpt>
      <trkpt lat="47.459781" lon="7.824650">
        <ele>390.739648</ele>
        <time>2021-11-21T09:29:21.291Z</time>
      </trkpt>
      <trkpt lat="47.460099" lon="7.824303">
        <ele>390.290492</ele>
        <time>2021-11-21T09:29:25.619Z</time>
      </trkpt>
      <trkpt lat="47.460235" lon="7.824168">
        <ele>389.904116</ele>
        <time>2021-11-21T09:29:27.420Z</time>
      </trkpt>
      <trkpt lat="47.460305" lon="7.824097">
        <ele>389.624936</ele>
        <time>2021-11-21T09:29:28.296Z</time>
      </trkpt>
      <trkpt lat="47.460395" lon="7.824018">
        <ele>389.280703</ele>
        <time>2021-11-21T09:29:29.323Z</time>
      </trkpt>
      <trkpt lat="47.460476" lon="7.823773">
        <ele>388.674214</ele>
        <time>2021-11-21T09:29:32.011Z</time>
      </trkpt>
      <trkpt lat="47.460497" lon="7.823707">
        <ele>388.512001</ele>
        <time>2021-11-21T09:29:32.749Z</time>
      </trkpt>
      <trkpt lat="47.460652" lon="7.823230">
        <ele>387.335086</ele>
        <time>2021-11-21T09:29:37.912Z</time>
      </trkpt>
      <trkpt lat="47.460919" lon="7.822346">
        <ele>385.181995</ele>
        <time>2021-11-21T09:29:47.231Z</time>
      </trkpt>
      <trkpt lat="47.461386" lon="7.820911">
        <ele>381.772764</ele>
        <time>2021-11-21T09:30:02.543Z</time>
      </trkpt>
      <trkpt lat="47.461451" lon="7.820719">
        <ele>381.319078</ele>
        <time>2021-11-21T09:30:04.694Z</time>
      </trkpt>
      <trkpt lat="47.461546" lon="7.820441">
        <ele>380.660935</ele>
        <time>2021-11-21T09:30:07.694Z</time>
      </trkpt>
      <trkpt lat="47.461612" lon="7.820356">
        <ele>380.387446</ele>
        <time>2021-11-21T09:30:09.061Z</time>
      </trkpt>
      <trkpt lat="47.461730" lon="7.820282">
        <ele>379.986904</ele>
        <time>2021-11-21T09:30:10.956Z</time>
      </trkpt>
      <trkpt lat="47.461722" lon="7.820179">
        <ele>379.767849</ele>
        <time>2021-11-21T09:30:11.640Z</time>
      </trkpt>
      <trkpt lat="47.461754" lon="7.819910">
        <ele>379.190762</ele>
        <time>2021-11-21T09:30:13.672Z</time>
      </trkpt>
      <trkpt lat="47.461818" lon="7.819635">
        <ele>378.640166</ele>
        <time>2021-11-21T09:30:15.695Z</time>
      </trkpt>
      <trkpt lat="47.461818" lon="7.819635">
        <ele>378.640166</ele>
        <time>2021-11-21T09:30:15.726Z</time>
      </trkpt>
      <trkpt lat="47.461832" lon="7.819582">
        <ele>378.599389</ele>
        <time>2021-11-21T09:30:16.163Z</time>
      </trkpt>
      <trkpt lat="47.461833" lon="7.819386">
        <ele>378.458928</ele>
        <time>2021-11-21T09:30:17.704Z</time>
      </trkpt>
      <trkpt lat="47.461803" lon="7.819336">
        <ele>378.411021</ele>
        <time>2021-11-21T09:30:18.214Z</time>
      </trkpt>
      <trkpt lat="47.461912" lon="7.819188">
        <ele>378.254186</ele>
        <time>2021-11-21T09:30:19.784Z</time>
      </trkpt>
      <trkpt lat="47.461960" lon="7.819120">
        <ele>378.183736</ele>
        <time>2021-11-21T09:30:20.595Z</time>
      </trkpt>
      <trkpt lat="47.462012" lon="7.818948">
        <ele>378.048716</ele>
        <time>2021-11-21T09:30:22.179Z</time>
      </trkpt>
      <trkpt lat="47.462122" lon="7.818441">
        <ele>377.667141</ele>
        <time>2021-11-21T09:30:26.480Z</time>
      </trkpt>
      <trkpt lat="47.462262" lon="7.817447">
        <ele>376.939533</ele>
        <time>2021-11-21T09:30:35.592Z</time>
      </trkpt>
      <trkpt lat="47.462434" lon="7.816598">
        <ele>376.726057</ele>
        <time>2021-11-21T09:30:44.447Z</time>
      </trkpt>
      <trkpt lat="47.462785" lon="7.815763">
        <ele>376.664432</ele>
        <time>2021-11-21T09:30:54.174Z</time>
      </trkpt>
      <trkpt lat="47.462859" lon="7.815548">
        <ele>376.649311</ele>
        <time>2021-11-21T09:30:56.739Z</time>
      </trkpt>
      <trkpt lat="47.462865" lon="7.815524">
        <ele>376.647707</ele>
        <time>2021-11-21T09:30:57.021Z</time>
      </trkpt>
      <trkpt lat="47.462867" lon="7.815468">
        <ele>376.644193</ele>
        <time>2021-11-21T09:30:57.548Z</time>
      </trkpt>
      <trkpt lat="47.462863" lon="7.815440">
        <ele>376.642399</ele>
        <time>2021-11-21T09:30:57.856Z</time>
      </trkpt>
      <trkpt lat="47.462902" lon="7.815377">
        <ele>376.637045</ele>
        <time>2021-11-21T09:30:58.897Z</time>
      </trkpt>
      <trkpt lat="47.463209" lon="7.814244">
        <ele>376.439281</ele>
        <time>2021-11-21T09:31:15.068Z</time>
      </trkpt>
      <trkpt lat="47.463323" lon="7.813790">
        <ele>376.314991</ele>
        <time>2021-11-21T09:31:21.448Z</time>
      </trkpt>
      <trkpt lat="47.463516" lon="7.813197">
        <ele>376.146089</ele>
        <time>2021-11-21T09:31:30.069Z</time>
      </trkpt>
      <trkpt lat="47.463585" lon="7.813014">
        <ele>376.092314</ele>
        <time>2021-11-21T09:31:32.704Z</time>
      </trkpt>
      <trkpt lat="47.463671" lon="7.812852">
        <ele>376.039453</ele>
        <time>2021-11-21T09:31:35.231Z</time>
      </trkpt>
      <trkpt lat="47.463905" lon="7.812397">
        <ele>375.887447</ele>
        <time>2021-11-21T09:31:41.996Z</time>
      </trkpt>
      <trkpt lat="47.463958" lon="7.812269">
        <ele>375.840509</ele>
        <time>2021-11-21T09:31:43.886Z</time>
      </trkpt>
      <trkpt lat="47.464174" lon="7.811536">
        <ele>375.590461</ele>
        <time>2021-11-21T09:31:53.518Z</time>
      </trkpt>
      <trkpt lat="47.464316" lon="7.810976">
        <ele>375.403429</ele>
        <time>2021-11-21T09:32:00.983Z</time>
      </trkpt>
      <trkpt lat="47.464325" lon="7.810936">
        <ele>375.390246</ele>
        <time>2021-11-21T09:32:01.430Z</time>
      </trkpt>
      <trkpt lat="47.464370" lon="7.810752">
        <ele>375.329058</ele>
        <time>2021-11-21T09:32:04.105Z</time>
      </trkpt>
      <trkpt lat="47.464364" lon="7.810630">
        <ele>375.290806</ele>
        <time>2021-11-21T09:32:05.631Z</time>
      </trkpt>
      <trkpt lat="47.464385" lon="7.810619">
        <ele>375.280502</ele>
        <time>2021-11-21T09:32:05.891Z</time>
      </trkpt>
      <trkpt lat="47.464417" lon="7.810573">
        <ele>375.259861</ele>
        <time>2021-11-21T09:32:06.687Z</time>
      </trkpt>
      <trkpt lat="47.464452" lon="7.810429">
        <ele>375.212009</ele>
        <time>2021-11-21T09:32:08.124Z</time>
      </trkpt>
      <trkpt lat="47.464510" lon="7.810204">
        <ele>375.136708</ele>
        <time>2021-11-21T09:32:10.523Z</time>
      </trkpt>
      <trkpt lat="47.464553" lon="7.810043">
        <ele>375.085095</ele>
        <time>2021-11-21T09:32:12.332Z</time>
      </trkpt>
      <trkpt lat="47.464574" lon="7.809967">
        <ele>375.086380</ele>
        <time>2021-11-21T09:32:13.056Z</time>
      </trkpt>
      <trkpt lat="47.464595" lon="7.809881">
        <ele>375.087812</ele>
        <time>2021-11-21T09:32:14.031Z</time>
      </trkpt>
      <trkpt lat="47.464602" lon="7.809851">
        <ele>375.088309</ele>
        <time>2021-11-21T09:32:14.389Z</time>
      </trkpt>
      <trkpt lat="47.464662" lon="7.809564">
        <ele>375.093012</ele>
        <time>2021-11-21T09:32:17.572Z</time>
      </trkpt>
      <trkpt lat="47.464811" lon="7.808597">
        <ele>375.108540</ele>
        <time>2021-11-21T09:32:27.419Z</time>
      </trkpt>
      <trkpt lat="47.464826" lon="7.808468">
        <ele>375.110589</ele>
        <time>2021-11-21T09:32:28.840Z</time>
      </trkpt>
      <trkpt lat="47.464869" lon="7.807851">
        <ele>375.120300</ele>
        <time>2021-11-21T09:32:35.278Z</time>
      </trkpt>
      <trkpt lat="47.464860" lon="7.807604">
        <ele>375.124173</ele>
        <time>2021-11-21T09:32:37.883Z</time>
      </trkpt>
      <trkpt lat="47.464839" lon="7.807091">
        <ele>374.825170</ele>
        <time>2021-11-21T09:32:43.126Z</time>
      </trkpt>
      <trkpt lat="47.464820" lon="7.806610">
        <ele>374.418397</ele>
        <time>2021-11-21T09:32:47.779Z</time>
      </trkpt>
      <trkpt lat="47.464830" lon="7.806346">
        <ele>374.195169</ele>
        <time>2021-11-21T09:32:50.149Z</time>
      </trkpt>
      <trkpt lat="47.464852" lon="7.806188">
        <ele>374.058979</ele>
        <time>2021-11-21T09:32:51.528Z</time>
      </trkpt>
      <trkpt lat="47.464879" lon="7.806011">
        <ele>373.905792</ele>
        <time>2021-11-21T09:32:52.997Z</time>
      </trkpt>
      <trkpt lat="47.465361" lon="7.804383">
        <ele>372.004783</ele>
        <time>2021-11-21T09:33:05.822Z</time>
      </trkpt>
      <trkpt lat="47.465464" lon="7.803785">
        <ele>371.044593</ele>
        <time>2021-11-21T09:33:10.234Z</time>
      </trkpt>
      <trkpt lat="47.465562" lon="7.802933">
        <ele>369.699865</ele>
        <time>2021-11-21T09:33:16.463Z</time>
      </trkpt>
      <trkpt lat="47.465594" lon="7.802678">
        <ele>369.296319</ele>
        <time>2021-11-21T09:33:18.372Z</time>
      </trkpt>
      <trkpt lat="47.465633" lon="7.802373">
        <ele>368.813338</ele>
        <time>2021-11-21T09:33:20.643Z</time>
      </trkpt>
      <trkpt lat="47.465735" lon="7.801577">
        <ele>367.985555</ele>
        <time>2021-11-21T09:33:26.630Z</time>
      </trkpt>
      <trkpt lat="47.465866" lon="7.800659">
        <ele>367.057567</ele>
        <time>2021-11-21T09:33:34.096Z</time>
      </trkpt>
      <trkpt lat="47.465931" lon="7.800444">
        <ele>366.824617</ele>
        <time>2021-11-21T09:33:36.051Z</time>
      </trkpt>
      <trkpt lat="47.466033" lon="7.800108">
        <ele>366.460317</ele>
        <time>2021-11-21T09:33:39.186Z</time>
      </trkpt>
      <trkpt lat="47.466090" lon="7.800039">
        <ele>366.352556</ele>
        <time>2021-11-21T09:33:40.047Z</time>
      </trkpt>
      <trkpt lat="47.466042" lon="7.799777">
        <ele>366.085614</ele>
        <time>2021-11-21T09:33:59.865Z</time>
      </trkpt>
      <trkpt lat="47.466172" lon="7.799019">
        <ele>365.359696</ele>
        <time>2021-11-21T09:34:56.280Z</time>
      </trkpt>
      <trkpt lat="47.466186" lon="7.797669">
        <ele>364.106387</ele>
        <time>2021-11-21T09:36:32.571Z</time>
      </trkpt>
      <trkpt lat="47.466430" lon="7.795789">
        <ele>362.764861</ele>
        <time>2021-11-21T09:38:49.839Z</time>
      </trkpt>
      <trkpt lat="47.466774" lon="7.793016">
        <ele>361.883883</ele>
        <time>2021-11-21T09:42:19.356Z</time>
      </trkpt>
      <trkpt lat="47.467163" lon="7.789876">
        <ele>361.785461</ele>
        <time>2021-11-21T09:46:21.633Z</time>
      </trkpt>
      <trkpt lat="47.467228" lon="7.789417">
        <ele>361.780050</ele>
        <time>2021-11-21T09:46:27.549Z</time>
      </trkpt>
      <trkpt lat="47.467240" lon="7.789331">
        <ele>361.779037</ele>
        <time>2021-11-21T09:46:28.513Z</time>
      </trkpt>
      <trkpt lat="47.467307" lon="7.788932">
        <ele>361.297499</ele>
        <time>2021-11-21T09:46:33.502Z</time>
      </trkpt>
      <trkpt lat="47.467339" lon="7.788734">
        <ele>361.057733</ele>
        <time>2021-11-21T09:46:35.628Z</time>
      </trkpt>
      <trkpt lat="47.467451" lon="7.788042">
        <ele>360.219699</ele>
        <time>2021-11-21T09:46:43.529Z</time>
      </trkpt>
      <trkpt lat="47.467504" lon="7.787622">
        <ele>359.716502</ele>
        <time>2021-11-21T09:46:47.917Z</time>
      </trkpt>
      <trkpt lat="47.467538" lon="7.787352">
        <ele>359.393041</ele>
        <time>2021-11-21T09:46:50.819Z</time>
      </trkpt>
      <trkpt lat="47.467566" lon="7.787128">
        <ele>359.124754</ele>
        <time>2021-11-21T09:46:53.085Z</time>
      </trkpt>
      <trkpt lat="47.467577" lon="7.787046">
        <ele>359.026296</ele>
        <time>2021-11-21T09:46:53.944Z</time>
      </trkpt>
      <trkpt lat="47.467559" lon="7.786904">
        <ele>358.856142</ele>
        <time>2021-11-21T09:46:55.620Z</time>
      </trkpt>
      <trkpt lat="47.467636" lon="7.786830">
        <ele>358.696167</ele>
        <time>2021-11-21T09:46:56.922Z</time>
      </trkpt>
      <trkpt lat="47.468403" lon="7.786854">
        <ele>357.327330</ele>
        <time>2021-11-21T09:47:09.116Z</time>
      </trkpt>
      <trkpt lat="47.468535" lon="7.786880">
        <ele>357.089507</ele>
        <time>2021-11-21T09:47:11.270Z</time>
      </trkpt>
      <trkpt lat="47.468582" lon="7.786483">
        <ele>356.602924</ele>
        <time>2021-11-21T09:47:15.675Z</time>
      </trkpt>
      <trkpt lat="47.468800" lon="7.784631">
        <ele>354.728074</ele>
        <time>2021-11-21T09:47:36.479Z</time>
      </trkpt>
      <trkpt lat="47.468831" lon="7.784400">
        <ele>354.545786</ele>
        <time>2021-11-21T09:47:39.208Z</time>
      </trkpt>
      <trkpt lat="47.469211" lon="7.782028">
        <ele>352.739634</ele>
        <time>2021-11-21T09:48:08.106Z</time>
      </trkpt>
      <trkpt lat="47.469352" lon="7.781141">
        <ele>352.113963</ele>
        <time>2021-11-21T09:48:19.234Z</time>
      </trkpt>
      <trkpt lat="47.469631" lon="7.779469">
        <ele>350.392135</ele>
        <time>2021-11-21T09:48:38.519Z</time>
      </trkpt>
      <trkpt lat="47.469866" lon="7.778066">
        <ele>348.529663</ele>
        <time>2021-11-21T09:48:54.026Z</time>
      </trkpt>
      <trkpt lat="47.469866" lon="7.778066">
        <ele>348.529663</ele>
        <time>2021-11-21T09:48:54.048Z</time>
      </trkpt>
      <trkpt lat="47.469958" lon="7.776819">
        <ele>346.794686</ele>
        <time>2021-11-21T09:49:06.991Z</time>
      </trkpt>
      <trkpt lat="47.470028" lon="7.775062">
        <ele>344.326258</ele>
        <time>2021-11-21T09:49:25.669Z</time>
      </trkpt>
      <trkpt lat="47.470034" lon="7.774910">
        <ele>344.211810</ele>
        <time>2021-11-21T09:49:27.318Z</time>
      </trkpt>
      <trkpt lat="47.470122" lon="7.772830">
        <ele>342.645289</ele>
        <time>2021-11-21T09:49:51.860Z</time>
      </trkpt>
      <trkpt lat="47.470261" lon="7.772145">
        <ele>342.060090</ele>
        <time>2021-11-21T09:50:00.393Z</time>
      </trkpt>
      <trkpt lat="47.470499" lon="7.771171">
        <ele>341.129886</ele>
        <time>2021-11-21T09:50:12.483Z</time>
      </trkpt>
      <trkpt lat="47.470712" lon="7.770050">
        <ele>340.084039</ele>
        <time>2021-11-21T09:50:25.323Z</time>
      </trkpt>
      <trkpt lat="47.470854" lon="7.769162">
        <ele>338.986218</ele>
        <time>2021-11-21T09:50:35.293Z</time>
      </trkpt>
      <trkpt lat="47.470868" lon="7.769055">
        <ele>338.849294</ele>
        <time>2021-11-21T09:50:36.352Z</time>
      </trkpt>
      <trkpt lat="47.470979" lon="7.768192">
        <ele>337.745616</ele>
        <time>2021-11-21T09:50:45.502Z</time>
      </trkpt>
      <trkpt lat="47.471145" lon="7.767252">
        <ele>336.661902</ele>
        <time>2021-11-21T09:50:55.886Z</time>
      </trkpt>
      <trkpt lat="47.471489" lon="7.767465">
        <ele>336.976022</ele>
        <time>2021-11-21T09:51:00.587Z</time>
      </trkpt>
      <trkpt lat="47.471760" lon="7.767638">
        <ele>337.224641</ele>
        <time>2021-11-21T09:51:05.227Z</time>
      </trkpt>
      <trkpt lat="47.472050" lon="7.767821">
        <ele>337.490213</ele>
        <time>2021-11-21T09:51:10.856Z</time>
      </trkpt>
      <trkpt lat="47.472121" lon="7.767867">
        <ele>337.555502</ele>
        <time>2021-11-21T09:51:12.735Z</time>
      </trkpt>
      <trkpt lat="47.472271" lon="7.767979">
        <ele>337.697033</ele>
        <time>2021-11-21T09:51:16.026Z</time>
      </trkpt>
      <trkpt lat="47.472412" lon="7.768062">
        <ele>337.824859</ele>
        <time>2021-11-21T09:51:19.679Z</time>
      </trkpt>
      <trkpt lat="47.472685" lon="7.768157">
        <ele>338.061093</ele>
        <time>2021-11-21T09:51:25.559Z</time>
      </trkpt>
      <trkpt lat="47.472693" lon="7.768159">
        <ele>338.067927</ele>
        <time>2021-11-21T09:51:26.173Z</time>
      </trkpt>
      <trkpt lat="47.472772" lon="7.768203">
        <ele>338.162498</ele>
        <time>2021-11-21T09:51:28.464Z</time>
      </trkpt>
      <trkpt lat="47.472779" lon="7.768229">
        <ele>338.257043</ele>
        <time>2021-11-21T09:51:29.018Z</time>
      </trkpt>
      <trkpt lat="47.472804" lon="7.768269">
        <ele>338.441085</ele>
        <time>2021-11-21T09:51:29.913Z</time>
      </trkpt>
      <trkpt lat="47.472821" lon="7.768281">
        <ele>338.535223</ele>
        <time>2021-11-21T09:51:30.535Z</time>
      </trkpt>
      <trkpt lat="47.472786" lon="7.768446">
        <ele>339.119433</ele>
        <time>2021-11-21T09:51:33.500Z</time>
      </trkpt>
      <trkpt lat="47.472725" lon="7.768743">
        <ele>340.168063</ele>
        <time>2021-11-21T09:51:40.062Z</time>
      </trkpt>
      <trkpt lat="47.472681" lon="7.769085">
        <ele>341.344160</ele>
        <time>2021-11-21T09:51:47.749Z</time>
      </trkpt>
      <trkpt lat="47.472845" lon="7.769105">
        <ele>342.166583</ele>
        <time>2021-11-21T09:51:53.685Z</time>
      </trkpt>
      <trkpt lat="47.473281" lon="7.769280">
        <ele>344.424405</ele>
        <time>2021-11-21T09:52:10.518Z</time>
      </trkpt>
      <trkpt lat="47.473515" lon="7.769442">
        <ele>345.715608</ele>
        <time>2021-11-21T09:52:19.787Z</time>
      </trkpt>
      <trkpt lat="47.473787" lon="7.769648">
        <ele>347.334552</ele>
        <time>2021-11-21T09:52:31.049Z</time>
      </trkpt>
      <trkpt lat="47.473844" lon="7.769703">
        <ele>347.936462</ele>
        <time>2021-11-21T09:52:34.550Z</time>
      </trkpt>
      <trkpt lat="47.473893" lon="7.769749">
        <ele>348.449751</ele>
        <time>2021-11-21T09:52:37.738Z</time>
      </trkpt>
      <trkpt lat="47.473962" lon="7.769836">
        <ele>349.251621</ele>
        <time>2021-11-21T09:52:41.639Z</time>
      </trkpt>
      <trkpt lat="47.473979" lon="7.769978">
        <ele>350.113778</ele>
        <time>2021-11-21T09:52:45.469Z</time>
      </trkpt>
      <trkpt lat="47.473954" lon="7.770162">
        <ele>351.235822</ele>
        <time>2021-11-21T09:52:51.881Z</time>
      </trkpt>
      <trkpt lat="47.473938" lon="7.770245">
        <ele>351.751821</ele>
        <time>2021-11-21T09:52:55.253Z</time>
      </trkpt>
      <trkpt lat="47.473948" lon="7.770383">
        <ele>352.581579</ele>
        <time>2021-11-21T09:52:59.257Z</time>
      </trkpt>
      <trkpt lat="47.474036" lon="7.771103">
        <ele>356.955886</ele>
        <time>2021-11-21T09:53:21.896Z</time>
      </trkpt>
      <trkpt lat="47.474083" lon="7.771488">
        <ele>359.294835</ele>
        <time>2021-11-21T09:53:37.450Z</time>
      </trkpt>
      <trkpt lat="47.474104" lon="7.771595">
        <ele>359.960951</ele>
        <time>2021-11-21T09:53:41.415Z</time>
      </trkpt>
      <trkpt lat="47.474185" lon="7.771812">
        <ele>361.442954</ele>
        <time>2021-11-21T09:53:53.277Z</time>
      </trkpt>
      <trkpt lat="47.474415" lon="7.772041">
        <ele>364.125470</ele>
        <time>2021-11-21T09:54:08.938Z</time>
      </trkpt>
      <trkpt lat="47.475019" lon="7.772425">
        <ele>371.493167</ele>
        <time>2021-11-21T09:54:46.197Z</time>
      </trkpt>
      <trkpt lat="47.475466" lon="7.772645">
        <ele>376.772715</ele>
        <time>2021-11-21T09:55:15.657Z</time>
      </trkpt>
      <trkpt lat="47.475728" lon="7.772690">
        <ele>379.728727</ele>
        <time>2021-11-21T09:55:30.806Z</time>
      </trkpt>
      <trkpt lat="47.475986" lon="7.772715">
        <ele>382.626384</ele>
        <time>2021-11-21T09:55:46.245Z</time>
      </trkpt>
      <trkpt lat="47.476546" lon="7.772768">
        <ele>389.817135</ele>
        <time>2021-11-21T09:56:21.688Z</time>
      </trkpt>
      <trkpt lat="47.476849" lon="7.772776">
        <ele>393.748489</ele>
        <time>2021-11-21T09:56:41.333Z</time>
      </trkpt>
      <trkpt lat="47.477573" lon="7.772824">
        <ele>403.150148</ele>
        <time>2021-11-21T09:57:26.942Z</time>
      </trkpt>
      <trkpt lat="47.478443" lon="7.772824">
        <ele>418.154366</ele>
        <time>2021-11-21T09:58:37.372Z</time>
      </trkpt>
      <trkpt lat="47.478820" lon="7.772738">
        <ele>425.427939</ele>
        <time>2021-11-21T09:59:15.468Z</time>
      </trkpt>
      <trkpt lat="47.479168" lon="7.772609">
        <ele>432.268687</ele>
        <time>2021-11-21T09:59:49.987Z</time>
      </trkpt>
      <trkpt lat="47.479313" lon="7.772352">
        <ele>436.583075</ele>
        <time>2021-11-21T10:00:13.621Z</time>
      </trkpt>
      <trkpt lat="47.479508" lon="7.771873">
        <ele>443.517932</ele>
        <time>2021-11-21T10:00:51.662Z</time>
      </trkpt>
      <trkpt lat="47.479678" lon="7.771357">
        <ele>450.239423</ele>
        <time>2021-11-21T10:01:28.517Z</time>
      </trkpt>
      <trkpt lat="47.479951" lon="7.770850">
        <ele>457.829640</ele>
        <time>2021-11-21T10:02:05.636Z</time>
      </trkpt>
      <trkpt lat="47.480156" lon="7.770553">
        <ele>462.800272</ele>
        <time>2021-11-21T10:02:29.823Z</time>
      </trkpt>
      <trkpt lat="47.480388" lon="7.770295">
        <ele>467.828299</ele>
        <time>2021-11-21T10:02:52.251Z</time>
      </trkpt>
      <trkpt lat="47.480692" lon="7.770102">
        <ele>473.035492</ele>
        <time>2021-11-21T10:03:16.141Z</time>
      </trkpt>
      <trkpt lat="47.481483" lon="7.769920">
        <ele>482.300499</ele>
        <time>2021-11-21T10:04:03.639Z</time>
      </trkpt>
      <trkpt lat="47.481815" lon="7.769904">
        <ele>486.145082</ele>
        <time>2021-11-21T10:04:20.124Z</time>
      </trkpt>
      <trkpt lat="47.482031" lon="7.769953">
        <ele>488.674261</ele>
        <time>2021-11-21T10:04:31.835Z</time>
      </trkpt>
      <trkpt lat="47.482572" lon="7.770227">
        <ele>495.860651</ele>
        <time>2021-11-21T10:05:06.702Z</time>
      </trkpt>
      <trkpt lat="47.482997" lon="7.770807">
        <ele>504.076960</ele>
        <time>2021-11-21T10:05:51.002Z</time>
      </trkpt>
      <trkpt lat="47.483200" lon="7.771322">
        <ele>509.802881</ele>
        <time>2021-11-21T10:06:22.419Z</time>
      </trkpt>
      <trkpt lat="47.483339" lon="7.771802">
        <ele>514.818198</ele>
        <time>2021-11-21T10:06:49.253Z</time>
      </trkpt>
      <trkpt lat="47.483458" lon="7.772106">
        <ele>518.192224</ele>
        <time>2021-11-21T10:07:06.449Z</time>
      </trkpt>
      <trkpt lat="47.483577" lon="7.772266">
        <ele>519.718216</ele>
        <time>2021-11-21T10:07:17.829Z</time>
      </trkpt>
      <trkpt lat="47.483809" lon="7.772652">
        <ele>522.901367</ele>
        <time>2021-11-21T10:07:41.113Z</time>
      </trkpt>
      <trkpt lat="47.484099" lon="7.773038">
        <ele>526.457989</ele>
        <time>2021-11-21T10:08:04.955Z</time>
      </trkpt>
      <trkpt lat="47.484250" lon="7.773244">
        <ele>528.330684</ele>
        <time>2021-11-21T10:08:16.778Z</time>
      </trkpt>
      <trkpt lat="47.484389" lon="7.773424">
        <ele>530.014900</ele>
        <time>2021-11-21T10:08:26.035Z</time>
      </trkpt>
      <trkpt lat="47.484679" lon="7.773897">
        <ele>533.950255</ele>
        <time>2021-11-21T10:08:41.250Z</time>
      </trkpt>
      <trkpt lat="47.485317" lon="7.774412">
        <ele>534.301919</ele>
        <time>2021-11-21T10:08:51.876Z</time>
      </trkpt>
      <trkpt lat="47.485752" lon="7.774626">
        <ele>533.973013</ele>
        <time>2021-11-21T10:08:56.816Z</time>
      </trkpt>
      <trkpt lat="47.485895" lon="7.774732">
        <ele>533.858259</ele>
        <time>2021-11-21T10:08:58.347Z</time>
      </trkpt>
      <trkpt lat="47.486126" lon="7.774937">
        <ele>533.664998</ele>
        <time>2021-11-21T10:09:01.561Z</time>
      </trkpt>
      <trkpt lat="47.486160" lon="7.774746">
        <ele>533.569230</ele>
        <time>2021-11-21T10:09:02.863Z</time>
      </trkpt>
      <trkpt lat="47.486219" lon="7.774600">
        <ele>533.486749</ele>
        <time>2021-11-21T10:09:04.918Z</time>
      </trkpt>
      <trkpt lat="47.486452" lon="7.774370">
        <ele>533.538056</ele>
        <time>2021-11-21T10:09:08.079Z</time>
      </trkpt>
      <trkpt lat="47.486703" lon="7.774131">
        <ele>533.618531</ele>
        <time>2021-11-21T10:09:11.736Z</time>
      </trkpt>
      <trkpt lat="47.487094" lon="7.773657">
        <ele>533.754813</ele>
        <time>2021-11-21T10:09:19.719Z</time>
      </trkpt>
      <trkpt lat="47.487530" lon="7.773097">
        <ele>533.910473</ele>
        <time>2021-11-21T10:09:31.271Z</time>
      </trkpt>
      <trkpt lat="47.487758" lon="7.772679">
        <ele>533.485818</ele>
        <time>2021-11-21T10:09:39.872Z</time>
      </trkpt>
      <trkpt lat="47.488008" lon="7.772013">
        <ele>532.287311</ele>
        <time>2021-11-21T10:09:52.566Z</time>
      </trkpt>
      <trkpt lat="47.488198" lon="7.770997">
        <ele>530.628933</ele>
        <time>2021-11-21T10:09:59.749Z</time>
      </trkpt>
      <trkpt lat="47.488684" lon="7.770026">
        <ele>525.214519</ele>
        <time>2021-11-21T10:10:06.997Z</time>
      </trkpt>
      <trkpt lat="47.488741" lon="7.769888">
        <ele>524.099527</ele>
        <time>2021-11-21T10:10:07.913Z</time>
      </trkpt>
      <trkpt lat="47.488934" lon="7.769333">
        <ele>519.796566</ele>
        <time>2021-11-21T10:10:11.537Z</time>
      </trkpt>
      <trkpt lat="47.489120" lon="7.768662">
        <ele>514.796776</ele>
        <time>2021-11-21T10:10:15.711Z</time>
      </trkpt>
      <trkpt lat="47.489191" lon="7.768403">
        <ele>512.869967</ele>
        <time>2021-11-21T10:10:17.292Z</time>
      </trkpt>
      <trkpt lat="47.489233" lon="7.768329">
        <ele>512.203758</ele>
        <time>2021-11-21T10:10:17.860Z</time>
      </trkpt>
      <trkpt lat="47.489260" lon="7.768283">
        <ele>511.783719</ele>
        <time>2021-11-21T10:10:18.200Z</time>
      </trkpt>
      <trkpt lat="47.489330" lon="7.768521">
        <ele>509.823078</ele>
        <time>2021-11-21T10:10:19.676Z</time>
      </trkpt>
      <trkpt lat="47.489759" lon="7.769607">
        <ele>500.107396</ele>
        <time>2021-11-21T10:10:26.876Z</time>
      </trkpt>
      <trkpt lat="47.489882" lon="7.769861">
        <ele>497.693932</ele>
        <time>2021-11-21T10:10:28.669Z</time>
      </trkpt>
      <trkpt lat="47.490063" lon="7.770088">
        <ele>494.982189</ele>
        <time>2021-11-21T10:10:30.693Z</time>
      </trkpt>
      <trkpt lat="47.490367" lon="7.770241">
        <ele>491.312109</ele>
        <time>2021-11-21T10:10:33.436Z</time>
      </trkpt>
      <trkpt lat="47.491182" lon="7.770222">
        <ele>484.796215</ele>
        <time>2021-11-21T10:10:40.452Z</time>
      </trkpt>
      <trkpt lat="47.492020" lon="7.770184">
        <ele>478.241312</ele>
        <time>2021-11-21T10:10:48.003Z</time>
      </trkpt>
      <trkpt lat="47.492137" lon="7.770169">
        <ele>477.323132</ele>
        <time>2021-11-21T10:10:49.180Z</time>
      </trkpt>
      <trkpt lat="47.492435" lon="7.770039">
        <ele>475.891516</ele>
        <time>2021-11-21T10:10:52.138Z</time>
      </trkpt>
      <trkpt lat="47.492661" lon="7.769832">
        <ele>474.902890</ele>
        <time>2021-11-21T10:10:54.729Z</time>
      </trkpt>
      <trkpt lat="47.492753" lon="7.769701">
        <ele>474.428005</ele>
        <time>2021-11-21T10:10:56.092Z</time>
      </trkpt>
      <trkpt lat="47.492732" lon="7.769629">
        <ele>474.230904</ele>
        <time>2021-11-21T10:11:00.418Z</time>
      </trkpt>
      <trkpt lat="47.492832" lon="7.769442">
        <ele>473.631520</ele>
        <time>2021-11-21T10:11:01.976Z</time>
      </trkpt>
      <trkpt lat="47.492881" lon="7.769291">
        <ele>473.210506</ele>
        <time>2021-11-21T10:11:03.257Z</time>
      </trkpt>
      <trkpt lat="47.492983" lon="7.768975">
        <ele>472.330316</ele>
        <time>2021-11-21T10:11:05.875Z</time>
      </trkpt>
      <trkpt lat="47.492999" lon="7.768874">
        <ele>472.069585</ele>
        <time>2021-11-21T10:11:06.625Z</time>
      </trkpt>
      <trkpt lat="47.493006" lon="7.768806">
        <ele>471.896705</ele>
        <time>2021-11-21T10:11:07.586Z</time>
      </trkpt>
      <trkpt lat="47.492941" lon="7.765577">
        <ele>460.390665</ele>
        <time>2021-11-21T10:11:28.408Z</time>
      </trkpt>
      <trkpt lat="47.493010" lon="7.765043">
        <ele>455.999545</ele>
        <time>2021-11-21T10:11:31.545Z</time>
      </trkpt>
      <trkpt lat="47.493115" lon="7.764783">
        <ele>453.093057</ele>
        <time>2021-11-21T10:11:33.263Z</time>
      </trkpt>
      <trkpt lat="47.493274" lon="7.764563">
        <ele>450.001953</ele>
        <time>2021-11-21T10:11:35.068Z</time>
      </trkpt>
      <trkpt lat="47.493545" lon="7.764429">
        <ele>445.944298</ele>
        <time>2021-11-21T10:11:37.431Z</time>
      </trkpt>
      <trkpt lat="47.493822" lon="7.764461">
        <ele>441.998579</ele>
        <time>2021-11-21T10:11:39.729Z</time>
      </trkpt>
      <trkpt lat="47.494327" lon="7.764912">
        <ele>433.628088</ele>
        <time>2021-11-21T10:11:44.593Z</time>
      </trkpt>
      <trkpt lat="47.494523" lon="7.765111">
        <ele>430.281095</ele>
        <time>2021-11-21T10:11:46.556Z</time>
      </trkpt>
      <trkpt lat="47.494623" lon="7.765176">
        <ele>428.743120</ele>
        <time>2021-11-21T10:11:47.458Z</time>
      </trkpt>
      <trkpt lat="47.494837" lon="7.765306">
        <ele>425.485705</ele>
        <time>2021-11-21T10:11:49.380Z</time>
      </trkpt>
      <trkpt lat="47.495429" lon="7.765534">
        <ele>416.871797</ele>
        <time>2021-11-21T10:11:54.482Z</time>
      </trkpt>
      <trkpt lat="47.495891" lon="7.765655">
        <ele>410.265038</ele>
        <time>2021-11-21T10:11:58.427Z</time>
      </trkpt>
      <trkpt lat="47.496345" lon="7.765747">
        <ele>405.449291</ele>
        <time>2021-11-21T10:12:02.358Z</time>
      </trkpt>
      <trkpt lat="47.496601" lon="7.765776">
        <ele>402.982536</ele>
        <time>2021-11-21T10:12:04.604Z</time>
      </trkpt>
      <trkpt lat="47.496981" lon="7.765800">
        <ele>399.328302</ele>
        <time>2021-11-21T10:12:07.874Z</time>
      </trkpt>
      <trkpt lat="47.497683" lon="7.765775">
        <ele>392.581771</ele>
        <time>2021-11-21T10:12:14.014Z</time>
      </trkpt>
      <trkpt lat="47.497711" lon="7.765770">
        <ele>392.310806</ele>
        <time>2021-11-21T10:12:14.245Z</time>
      </trkpt>
      <trkpt lat="47.497832" lon="7.765749">
        <ele>391.345677</ele>
        <time>2021-11-21T10:12:15.313Z</time>
      </trkpt>
      <trkpt lat="47.498206" lon="7.765691">
        <ele>389.097897</ele>
        <time>2021-11-21T10:12:18.650Z</time>
      </trkpt>
      <trkpt lat="47.498581" lon="7.765578">
        <ele>386.810396</ele>
        <time>2021-11-21T10:12:22.100Z</time>
      </trkpt>
      <trkpt lat="47.499021" lon="7.765388">
        <ele>384.070706</ele>
        <time>2021-11-21T10:12:26.352Z</time>
      </trkpt>
      <trkpt lat="47.500750" lon="7.764229">
        <ele>377.239150</ele>
        <time>2021-11-21T10:12:45.149Z</time>
      </trkpt>
      <trkpt lat="47.501206" lon="7.764177">
        <ele>376.076220</ele>
        <time>2021-11-21T10:12:52.161Z</time>
      </trkpt>
      <trkpt lat="47.501281" lon="7.764267">
        <ele>376.021252</ele>
        <time>2021-11-21T10:12:55.400Z</time>
      </trkpt>
      <trkpt lat="47.501345" lon="7.764315">
        <ele>375.980406</ele>
        <time>2021-11-21T10:12:55.982Z</time>
      </trkpt>
      <trkpt lat="47.501402" lon="7.764367">
        <ele>375.942286</ele>
        <time>2021-11-21T10:13:01.357Z</time>
      </trkpt>
      <trkpt lat="47.501539" lon="7.764599">
        <ele>375.823772</ele>
        <time>2021-11-21T10:13:07.940Z</time>
      </trkpt>
      <trkpt lat="47.501717" lon="7.764903">
        <ele>375.669045</ele>
        <time>2021-11-21T10:13:10.938Z</time>
      </trkpt>
      <trkpt lat="47.501785" lon="7.764941">
        <ele>375.627664</ele>
        <time>2021-11-21T10:13:14.436Z</time>
      </trkpt>
      <trkpt lat="47.501861" lon="7.764937">
        <ele>375.584369</ele>
        <time>2021-11-21T10:13:15.054Z</time>
      </trkpt>
      <trkpt lat="47.502299" lon="7.764761">
        <ele>375.325982</ele>
        <time>2021-11-21T10:13:23.630Z</time>
      </trkpt>
      <trkpt lat="47.502400" lon="7.764717">
        <ele>375.266042</ele>
        <time>2021-11-21T10:13:26.434Z</time>
      </trkpt>
      <trkpt lat="47.502578" lon="7.764620">
        <ele>375.158054</ele>
        <time>2021-11-21T10:13:28.134Z</time>
      </trkpt>
      <trkpt lat="47.503736" lon="7.764325">
        <ele>373.620169</ele>
        <time>2021-11-21T10:13:48.844Z</time>
      </trkpt>
      <trkpt lat="47.504090" lon="7.764406">
        <ele>373.111350</ele>
        <time>2021-11-21T10:13:52.521Z</time>
      </trkpt>
      <trkpt lat="47.504400" lon="7.764478">
        <ele>372.665617</ele>
        <time>2021-11-21T10:13:55.612Z</time>
      </trkpt>
      <trkpt lat="47.505115" lon="7.765011">
        <ele>370.321581</ele>
        <time>2021-11-21T10:14:03.375Z</time>
      </trkpt>
      <trkpt lat="47.506143" lon="7.764883">
        <ele>367.064128</ele>
        <time>2021-11-21T10:14:14.210Z</time>
      </trkpt>
      <trkpt lat="47.506301" lon="7.764884">
        <ele>366.576298</ele>
        <time>2021-11-21T10:14:15.765Z</time>
      </trkpt>
      <trkpt lat="47.506377" lon="7.764894">
        <ele>366.345227</ele>
        <time>2021-11-21T10:14:16.614Z</time>
      </trkpt>
      <trkpt lat="47.506619" lon="7.764938">
        <ele>365.606831</ele>
        <time>2021-11-21T10:14:19.328Z</time>
      </trkpt>
      <trkpt lat="47.506716" lon="7.764971">
        <ele>365.305412</ele>
        <time>2021-11-21T10:14:20.325Z</time>
      </trkpt>
      <trkpt lat="47.506870" lon="7.765037">
        <ele>364.819877</ele>
        <time>2021-11-21T10:14:22.178Z</time>
      </trkpt>
      <trkpt lat="47.507429" lon="7.765409">
        <ele>362.963780</ele>
        <time>2021-11-21T10:14:28.209Z</time>
      </trkpt>
      <trkpt lat="47.507506" lon="7.765470">
        <ele>362.699298</ele>
        <time>2021-11-21T10:14:29.267Z</time>
      </trkpt>
      <trkpt lat="47.507650" lon="7.765503">
        <ele>362.258004</ele>
        <time>2021-11-21T10:14:30.626Z</time>
      </trkpt>
      <trkpt lat="47.507977" lon="7.765561">
        <ele>361.237783</ele>
        <time>2021-11-21T10:14:34.107Z</time>
      </trkpt>
      <trkpt lat="47.508137" lon="7.765584">
        <ele>360.664303</ele>
        <time>2021-11-21T10:14:35.769Z</time>
      </trkpt>
      <trkpt lat="47.508322" lon="7.765556">
        <ele>360.000881</ele>
        <time>2021-11-21T10:14:37.706Z</time>
      </trkpt>
      <trkpt lat="47.508744" lon="7.765478">
        <ele>358.483720</ele>
        <time>2021-11-21T10:14:41.908Z</time>
      </trkpt>
      <trkpt lat="47.509057" lon="7.765447">
        <ele>357.364606</ele>
        <time>2021-11-21T10:14:44.933Z</time>
      </trkpt>
      <trkpt lat="47.509436" lon="7.765441">
        <ele>356.012458</ele>
        <time>2021-11-21T10:14:48.561Z</time>
      </trkpt>
      <trkpt lat="47.509600" lon="7.765443">
        <ele>355.427373</ele>
        <time>2021-11-21T10:14:50.170Z</time>
      </trkpt>
      <trkpt lat="47.509741" lon="7.765454">
        <ele>354.944690</ele>
        <time>2021-11-21T10:14:51.555Z</time>
      </trkpt>
      <trkpt lat="47.509899" lon="7.765445">
        <ele>354.624624</ele>
        <time>2021-11-21T10:14:53.190Z</time>
      </trkpt>
      <trkpt lat="47.509942" lon="7.765436">
        <ele>354.536716</ele>
        <time>2021-11-21T10:14:53.675Z</time>
      </trkpt>
      <trkpt lat="47.510019" lon="7.765402">
        <ele>354.374065</ele>
        <time>2021-11-21T10:14:54.515Z</time>
      </trkpt>
      <trkpt lat="47.510078" lon="7.765363">
        <ele>354.243271</ele>
        <time>2021-11-21T10:14:55.332Z</time>
      </trkpt>
      <trkpt lat="47.510179" lon="7.765273">
        <ele>354.004646</ele>
        <time>2021-11-21T10:14:56.630Z</time>
      </trkpt>
      <trkpt lat="47.510392" lon="7.765088">
        <ele>353.504762</ele>
        <time>2021-11-21T10:14:59.656Z</time>
      </trkpt>
      <trkpt lat="47.510486" lon="7.765012">
        <ele>353.287958</ele>
        <time>2021-11-21T10:15:00.980Z</time>
      </trkpt>
      <trkpt lat="47.510628" lon="7.764909">
        <ele>352.967871</ele>
        <time>2021-11-21T10:15:02.793Z</time>
      </trkpt>
      <trkpt lat="47.510922" lon="7.764773">
        <ele>352.344371</ele>
        <time>2021-11-21T10:15:06.548Z</time>
      </trkpt>
      <trkpt lat="47.511261" lon="7.764772">
        <ele>351.658153</ele>
        <time>2021-11-21T10:15:10.246Z</time>
      </trkpt>
      <trkpt lat="47.511298" lon="7.764777">
        <ele>351.582945</ele>
        <time>2021-11-21T10:15:10.633Z</time>
      </trkpt>
      <trkpt lat="47.511360" lon="7.764807">
        <ele>351.450910</ele>
        <time>2021-11-21T10:15:11.275Z</time>
      </trkpt>
      <trkpt lat="47.511702" lon="7.765093">
        <ele>350.811956</ele>
        <time>2021-11-21T10:15:15.486Z</time>
      </trkpt>
      <trkpt lat="47.511866" lon="7.765218">
        <ele>350.524868</ele>
        <time>2021-11-21T10:15:17.471Z</time>
      </trkpt>
      <trkpt lat="47.511929" lon="7.765269">
        <ele>350.413115</ele>
        <time>2021-11-21T10:15:18.519Z</time>
      </trkpt>
      <trkpt lat="47.512026" lon="7.765311">
        <ele>350.255821</ele>
        <time>2021-11-21T10:15:19.661Z</time>
      </trkpt>
      <trkpt lat="47.512359" lon="7.765319">
        <ele>349.737474</ele>
        <time>2021-11-21T10:15:23.859Z</time>
      </trkpt>
      <trkpt lat="47.512523" lon="7.765308">
        <ele>349.481963</ele>
        <time>2021-11-21T10:15:25.618Z</time>
      </trkpt>
      <trkpt lat="47.512596" lon="7.765294">
        <ele>349.367397</ele>
        <time>2021-11-21T10:15:26.481Z</time>
      </trkpt>
      <trkpt lat="47.512876" lon="7.765238">
        <ele>348.927649</ele>
        <time>2021-11-21T10:15:29.889Z</time>
      </trkpt>
      <trkpt lat="47.512947" lon="7.765205">
        <ele>348.811828</ele>
        <time>2021-11-21T10:15:30.757Z</time>
      </trkpt>
      <trkpt lat="47.512959" lon="7.765198">
        <ele>348.791754</ele>
        <time>2021-11-21T10:15:30.926Z</time>
      </trkpt>
      <trkpt lat="47.513036" lon="7.765134">
        <ele>348.654318</ele>
        <time>2021-11-21T10:15:32.473Z</time>
      </trkpt>
      <trkpt lat="47.513615" lon="7.764654">
        <ele>347.594708</ele>
        <time>2021-11-21T10:15:39.801Z</time>
      </trkpt>
      <trkpt lat="47.513661" lon="7.764590">
        <ele>347.493571</ele>
        <time>2021-11-21T10:15:41.359Z</time>
      </trkpt>
      <trkpt lat="47.513707" lon="7.764494">
        <ele>347.366195</ele>
        <time>2021-11-21T10:15:42.202Z</time>
      </trkpt>
      <trkpt lat="47.513747" lon="7.764397">
        <ele>347.243208</ele>
        <time>2021-11-21T10:15:42.992Z</time>
      </trkpt>
      <trkpt lat="47.513810" lon="7.764252">
        <ele>347.056632</ele>
        <time>2021-11-21T10:15:44.317Z</time>
      </trkpt>
      <trkpt lat="47.513823" lon="7.764227">
        <ele>347.022488</ele>
        <time>2021-11-21T10:15:44.572Z</time>
      </trkpt>
      <trkpt lat="47.514022" lon="7.763802">
        <ele>346.462861</ele>
        <time>2021-11-21T10:15:48.638Z</time>
      </trkpt>
      <trkpt lat="47.514365" lon="7.763357">
        <ele>345.732166</ele>
        <time>2021-11-21T10:15:54.409Z</time>
      </trkpt>
      <trkpt lat="47.514492" lon="7.763207">
        <ele>345.289853</ele>
        <time>2021-11-21T10:15:56.068Z</time>
      </trkpt>
      <trkpt lat="47.515023" lon="7.762891">
        <ele>343.436886</ele>
        <time>2021-11-21T10:16:01.919Z</time>
      </trkpt>
      <trkpt lat="47.515108" lon="7.762767">
        <ele>343.050526</ele>
        <time>2021-11-21T10:16:03.081Z</time>
      </trkpt>
      <trkpt lat="47.515150" lon="7.762617">
        <ele>342.695432</ele>
        <time>2021-11-21T10:16:04.147Z</time>
      </trkpt>
      <trkpt lat="47.515194" lon="7.761991">
        <ele>341.319092</ele>
        <time>2021-11-21T10:16:08.407Z</time>
      </trkpt>
      <trkpt lat="47.515220" lon="7.761710">
        <ele>340.698858</ele>
        <time>2021-11-21T10:16:10.271Z</time>
      </trkpt>
      <trkpt lat="47.515265" lon="7.761533">
        <ele>340.285277</ele>
        <time>2021-11-21T10:16:11.521Z</time>
      </trkpt>
      <trkpt lat="47.515394" lon="7.761200">
        <ele>339.482103</ele>
        <time>2021-11-21T10:16:14.065Z</time>
      </trkpt>
      <trkpt lat="47.515929" lon="7.760077">
        <ele>336.763548</ele>
        <time>2021-11-21T10:16:23.334Z</time>
      </trkpt>
      <trkpt lat="47.516501" lon="7.759179">
        <ele>334.466163</ele>
        <time>2021-11-21T10:16:32.337Z</time>
      </trkpt>
      <trkpt lat="47.516954" lon="7.758506">
        <ele>333.733997</ele>
        <time>2021-11-21T10:16:39.793Z</time>
      </trkpt>
      <trkpt lat="47.517863" lon="7.757421">
        <ele>332.523721</ele>
        <time>2021-11-21T10:16:54.232Z</time>
      </trkpt>
      <trkpt lat="47.518866" lon="7.755813">
        <ele>332.807545</ele>
        <time>2021-11-21T10:17:17.503Z</time>
      </trkpt>
      <trkpt lat="47.519558" lon="7.754516">
        <ele>333.272392</ele>
        <time>2021-11-21T10:17:37.809Z</time>
      </trkpt>
      <trkpt lat="47.519771" lon="7.754124">
        <ele>333.433558</ele>
        <time>2021-11-21T10:17:43.781Z</time>
      </trkpt>
      <trkpt lat="47.520081" lon="7.753575">
        <ele>333.662789</ele>
        <time>2021-11-21T10:17:51.540Z</time>
      </trkpt>
      <trkpt lat="47.520500" lon="7.752840">
        <ele>332.873300</ele>
        <time>2021-11-21T10:18:00.294Z</time>
      </trkpt>
      <trkpt lat="47.520691" lon="7.752581">
        <ele>332.489753</ele>
        <time>2021-11-21T10:18:03.518Z</time>
      </trkpt>
      <trkpt lat="47.521128" lon="7.752139">
        <ele>331.706012</ele>
        <time>2021-11-21T10:18:09.273Z</time>
      </trkpt>
      <trkpt lat="47.522153" lon="7.751504">
        <ele>328.911151</ele>
        <time>2021-11-21T10:18:20.860Z</time>
      </trkpt>
      <trkpt lat="47.522660" lon="7.751079">
        <ele>327.036810</ele>
        <time>2021-11-21T10:18:26.708Z</time>
      </trkpt>
      <trkpt lat="47.523810" lon="7.749861">
        <ele>322.293056</ele>
        <time>2021-11-21T10:18:40.688Z</time>
      </trkpt>
      <trkpt lat="47.524595" lon="7.748826">
        <ele>318.759784</ele>
        <time>2021-11-21T10:18:51.298Z</time>
      </trkpt>
      <trkpt lat="47.524786" lon="7.748513">
        <ele>317.998517</ele>
        <time>2021-11-21T10:18:54.205Z</time>
      </trkpt>
      <trkpt lat="47.524939" lon="7.748210">
        <ele>317.315789</ele>
        <time>2021-11-21T10:18:56.928Z</time>
      </trkpt>
      <trkpt lat="47.525034" lon="7.748003">
        <ele>316.864153</ele>
        <time>2021-11-21T10:18:58.704Z</time>
      </trkpt>
      <trkpt lat="47.525102" lon="7.747843">
        <ele>316.523009</ele>
        <time>2021-11-21T10:19:00.107Z</time>
      </trkpt>
      <trkpt lat="47.525175" lon="7.747653">
        <ele>316.128542</ele>
        <time>2021-11-21T10:19:01.607Z</time>
      </trkpt>
      <trkpt lat="47.525493" lon="7.746648">
        <ele>314.159664</ele>
        <time>2021-11-21T10:19:09.489Z</time>
      </trkpt>
      <trkpt lat="47.525698" lon="7.745676">
        <ele>312.810594</ele>
        <time>2021-11-21T10:19:16.943Z</time>
      </trkpt>
      <trkpt lat="47.525754" lon="7.745361">
        <ele>312.379058</ele>
        <time>2021-11-21T10:19:19.347Z</time>
      </trkpt>
      <trkpt lat="47.525761" lon="7.745310">
        <ele>312.310111</ele>
        <time>2021-11-21T10:19:19.734Z</time>
      </trkpt>
      <trkpt lat="47.525817" lon="7.744920">
        <ele>311.781882</ele>
        <time>2021-11-21T10:19:22.787Z</time>
      </trkpt>
      <trkpt lat="47.525836" lon="7.744800">
        <ele>311.618593</ele>
        <time>2021-11-21T10:19:23.700Z</time>
      </trkpt>
      <trkpt lat="47.525969" lon="7.743974">
        <ele>310.589450</ele>
        <time>2021-11-21T10:19:30.207Z</time>
      </trkpt>
      <trkpt lat="47.526222" lon="7.742784">
        <ele>309.623040</ele>
        <time>2021-11-21T10:19:40.074Z</time>
      </trkpt>
      <trkpt lat="47.526364" lon="7.742281">
        <ele>309.200726</ele>
        <time>2021-11-21T10:19:44.709Z</time>
      </trkpt>
      <trkpt lat="47.526782" lon="7.740808">
        <ele>308.502802</ele>
        <time>2021-11-21T10:19:58.126Z</time>
      </trkpt>
      <trkpt lat="47.526990" lon="7.739688">
        <ele>308.298805</ele>
        <time>2021-11-21T10:20:08.916Z</time>
      </trkpt>
      <trkpt lat="47.527038" lon="7.739424">
        <ele>308.250791</ele>
        <time>2021-11-21T10:20:11.855Z</time>
      </trkpt>
      <trkpt lat="47.527103" lon="7.738847">
        <ele>308.326746</ele>
        <time>2021-11-21T10:20:18.748Z</time>
      </trkpt>
      <trkpt lat="47.527349" lon="7.738840">
        <ele>308.515743</ele>
        <time>2021-11-21T10:20:23.376Z</time>
      </trkpt>
      <trkpt lat="47.527567" lon="7.738827">
        <ele>308.683334</ele>
        <time>2021-11-21T10:20:27.452Z</time>
      </trkpt>
      <trkpt lat="47.527841" lon="7.738820">
        <ele>308.893836</ele>
        <time>2021-11-21T10:20:32.090Z</time>
      </trkpt>
      <trkpt lat="47.528292" lon="7.738774">
        <ele>309.241088</ele>
        <time>2021-11-21T10:20:42.955Z</time>
      </trkpt>
      <trkpt lat="47.528341" lon="7.738762">
        <ele>309.279238</ele>
        <time>2021-11-21T10:20:43.938Z</time>
      </trkpt>
      <trkpt lat="47.528601" lon="7.738620">
        <ele>309.492102</ele>
        <time>2021-11-21T10:20:49.234Z</time>
      </trkpt>
      <trkpt lat="47.528842" lon="7.738378">
        <ele>309.584746</ele>
        <time>2021-11-21T10:20:54.584Z</time>
      </trkpt>
      <trkpt lat="47.528896" lon="7.738303">
        <ele>309.588733</ele>
        <time>2021-11-21T10:20:56.226Z</time>
      </trkpt>
      <trkpt lat="47.528997" lon="7.738134">
        <ele>309.596940</ele>
        <time>2021-11-21T10:20:58.573Z</time>
      </trkpt>
      <trkpt lat="47.529534" lon="7.737005">
        <ele>309.647156</ele>
        <time>2021-11-21T10:21:12.241Z</time>
      </trkpt>
      <trkpt lat="47.529603" lon="7.736896">
        <ele>309.652589</ele>
        <time>2021-11-21T10:21:13.392Z</time>
      </trkpt>
      <trkpt lat="47.529741" lon="7.736731">
        <ele>309.662140</ele>
        <time>2021-11-21T10:21:15.594Z</time>
      </trkpt>
      <trkpt lat="47.530193" lon="7.736351">
        <ele>310.012517</ele>
        <time>2021-11-21T10:21:22.660Z</time>
      </trkpt>
      <trkpt lat="47.530882" lon="7.735983">
        <ele>310.743085</ele>
        <time>2021-11-21T10:21:35.480Z</time>
      </trkpt>
      <trkpt lat="47.531325" lon="7.735684">
        <ele>311.228676</ele>
        <time>2021-11-21T10:21:45.593Z</time>
      </trkpt>
      <trkpt lat="47.531389" lon="7.735745">
        <ele>311.304590</ele>
        <time>2021-11-21T10:21:48.339Z</time>
      </trkpt>
      <trkpt lat="47.531710" lon="7.735855">
        <ele>311.923865</ele>
        <time>2021-11-21T10:21:56.125Z</time>
      </trkpt>
      <trkpt lat="47.531874" lon="7.736048">
        <ele>312.495459</ele>
        <time>2021-11-21T10:22:01.463Z</time>
      </trkpt>
      <trkpt lat="47.533153" lon="7.739664">
        <ele>319.180323</ele>
        <time>2021-11-21T10:23:13.922Z</time>
      </trkpt>
      <trkpt lat="47.533191" lon="7.739816">
        <ele>319.410400</ele>
        <time>2021-11-21T10:23:16.104Z</time>
      </trkpt>
      <trkpt lat="47.533352" lon="7.740430">
        <ele>320.114737</ele>
        <time>2021-11-21T10:23:23.299Z</time>
      </trkpt>
      <trkpt lat="47.533707" lon="7.742025">
        <ele>319.604126</ele>
        <time>2021-11-21T10:23:38.299Z</time>
      </trkpt>
      <trkpt lat="47.533870" lon="7.743466">
        <ele>319.165767</ele>
        <time>2021-11-21T10:23:50.377Z</time>
      </trkpt>
      <trkpt lat="47.534043" lon="7.744207">
        <ele>318.934920</ele>
        <time>2021-11-21T10:23:57.460Z</time>
      </trkpt>
      <trkpt lat="47.534097" lon="7.744343">
        <ele>318.888467</ele>
        <time>2021-11-21T10:23:58.908Z</time>
      </trkpt>
      <trkpt lat="47.534179" lon="7.744495">
        <ele>318.831182</ele>
        <time>2021-11-21T10:24:00.787Z</time>
      </trkpt>
      <trkpt lat="47.534370" lon="7.744709">
        <ele>318.726742</ele>
        <time>2021-11-21T10:24:04.081Z</time>
      </trkpt>
      <trkpt lat="47.534429" lon="7.744856">
        <ele>318.676392</ele>
        <time>2021-11-21T10:24:05.843Z</time>
      </trkpt>
      <trkpt lat="47.534874" lon="7.746551">
        <ele>318.646684</ele>
        <time>2021-11-21T10:24:23.394Z</time>
      </trkpt>
      <trkpt lat="47.535912" lon="7.749669">
        <ele>319.250107</ele>
        <time>2021-11-21T10:25:01.734Z</time>
      </trkpt>
      <trkpt lat="47.537134" lon="7.752309">
        <ele>319.918264</ele>
        <time>2021-11-21T10:25:35.887Z</time>
      </trkpt>
      <trkpt lat="47.537371" lon="7.752851">
        <ele>320.681835</ele>
        <time>2021-11-21T10:25:42.535Z</time>
      </trkpt>
      <trkpt lat="47.537564" lon="7.753073">
        <ele>321.109824</ele>
        <time>2021-11-21T10:25:46.350Z</time>
      </trkpt>
      <trkpt lat="47.537715" lon="7.753194">
        <ele>321.410517</ele>
        <time>2021-11-21T10:25:50.195Z</time>
      </trkpt>
      <trkpt lat="47.538052" lon="7.753460">
        <ele>322.079336</ele>
        <time>2021-11-21T10:25:59.280Z</time>
      </trkpt>
      <trkpt lat="47.538359" lon="7.753900">
        <ele>322.827534</ele>
        <time>2021-11-21T10:26:10.511Z</time>
      </trkpt>
      <trkpt lat="47.538494" lon="7.754103">
        <ele>323.618166</ele>
        <time>2021-11-21T10:26:16.316Z</time>
      </trkpt>
      <trkpt lat="47.538723" lon="7.754445">
        <ele>325.319539</ele>
        <time>2021-11-21T10:26:26.509Z</time>
      </trkpt>
      <trkpt lat="47.538792" lon="7.754549">
        <ele>325.834572</ele>
        <time>2021-11-21T10:26:30.371Z</time>
      </trkpt>
      <trkpt lat="47.539079" lon="7.754976">
        <ele>327.962795</ele>
        <time>2021-11-21T10:26:46.069Z</time>
      </trkpt>
      <trkpt lat="47.539230" lon="7.755294">
        <ele>329.335997</ele>
        <time>2021-11-21T10:26:56.729Z</time>
      </trkpt>
      <trkpt lat="47.539346" lon="7.755736">
        <ele>331.010968</ele>
        <time>2021-11-21T10:27:10.020Z</time>
      </trkpt>
      <trkpt lat="47.539595" lon="7.757548">
        <ele>335.399502</ele>
        <time>2021-11-21T10:27:53.942Z</time>
      </trkpt>
      <trkpt lat="47.539722" lon="7.758107">
        <ele>336.623574</ele>
        <time>2021-11-21T10:28:02.950Z</time>
      </trkpt>
      <trkpt lat="47.539949" lon="7.758688">
        <ele>337.716929</ele>
        <time>2021-11-21T10:28:10.162Z</time>
      </trkpt>
      <trkpt lat="47.540447" lon="7.759585">
        <ele>334.989250</ele>
        <time>2021-11-21T10:28:18.686Z</time>
      </trkpt>
      <trkpt lat="47.540567" lon="7.759901">
        <ele>334.137714</ele>
        <time>2021-11-21T10:28:21.072Z</time>
      </trkpt>
      <trkpt lat="47.540921" lon="7.761599">
        <ele>327.537582</ele>
        <time>2021-11-21T10:28:32.195Z</time>
      </trkpt>
      <trkpt lat="47.541004" lon="7.762306">
        <ele>323.380611</ele>
        <time>2021-11-21T10:28:36.415Z</time>
      </trkpt>
      <trkpt lat="47.541023" lon="7.762922">
        <ele>319.808533</ele>
        <time>2021-11-21T10:28:39.999Z</time>
      </trkpt>
      <trkpt lat="47.541219" lon="7.763853">
        <ele>314.340306</ele>
        <time>2021-11-21T10:28:45.622Z</time>
      </trkpt>
      <trkpt lat="47.541334" lon="7.764020">
        <ele>313.081942</ele>
        <time>2021-11-21T10:28:47.089Z</time>
      </trkpt>
      <trkpt lat="47.541377" lon="7.764045">
        <ele>312.720991</ele>
        <time>2021-11-21T10:28:47.461Z</time>
      </trkpt>
      <trkpt lat="47.541364" lon="7.764150">
        <ele>312.157892</ele>
        <time>2021-11-21T10:28:48.073Z</time>
      </trkpt>
      <trkpt lat="47.541443" lon="7.764512">
        <ele>310.151092</ele>
        <time>2021-11-21T10:28:50.383Z</time>
      </trkpt>
      <trkpt lat="47.541552" lon="7.764869">
        <ele>308.084314</ele>
        <time>2021-11-21T10:28:52.677Z</time>
      </trkpt>
      <trkpt lat="47.541697" lon="7.765479">
        <ele>304.673007</ele>
        <time>2021-11-21T10:28:56.559Z</time>
      </trkpt>
      <trkpt lat="47.542317" lon="7.768533">
        <ele>296.116742</ele>
        <time>2021-11-21T10:29:18.032Z</time>
      </trkpt>
      <trkpt lat="47.542450" lon="7.769311">
        <ele>295.988115</ele>
        <time>2021-11-21T10:29:25.747Z</time>
      </trkpt>
      <trkpt lat="47.542720" lon="7.770771">
        <ele>295.745499</ele>
        <time>2021-11-21T10:29:42.291Z</time>
      </trkpt>
      <trkpt lat="47.543108" lon="7.773069">
        <ele>296.140857</ele>
        <time>2021-11-21T10:30:09.143Z</time>
      </trkpt>
      <trkpt lat="47.543145" lon="7.773277">
        <ele>296.187184</ele>
        <time>2021-11-21T10:30:11.269Z</time>
      </trkpt>
      <trkpt lat="47.543350" lon="7.774507">
        <ele>296.399601</ele>
        <time>2021-11-21T10:30:23.732Z</time>
      </trkpt>
      <trkpt lat="47.543402" lon="7.775016">
        <ele>296.475139</ele>
        <time>2021-11-21T10:30:28.795Z</time>
      </trkpt>
      <trkpt lat="47.543449" lon="7.775478">
        <ele>296.543696</ele>
        <time>2021-11-21T10:30:33.488Z</time>
      </trkpt>
      <trkpt lat="47.543482" lon="7.776095">
        <ele>296.634514</ele>
        <time>2021-11-21T10:30:40.196Z</time>
      </trkpt>
      <trkpt lat="47.543527" lon="7.776532">
        <ele>297.050438</ele>
        <time>2021-11-21T10:30:45.355Z</time>
      </trkpt>
      <trkpt lat="47.543707" lon="7.777394">
        <ele>298.405241</ele>
        <time>2021-11-21T10:30:57.639Z</time>
      </trkpt>
      <trkpt lat="47.543933" lon="7.778374">
        <ele>299.960203</ele>
        <time>2021-11-21T10:31:14.938Z</time>
      </trkpt>
      <trkpt lat="47.544100" lon="7.779438">
        <ele>303.217982</ele>
        <time>2021-11-21T10:31:36.792Z</time>
      </trkpt>
      <trkpt lat="47.544359" lon="7.781457">
        <ele>311.574208</ele>
        <time>2021-11-21T10:32:39.099Z</time>
      </trkpt>
      <trkpt lat="47.544461" lon="7.782254">
        <ele>312.291533</ele>
        <time>2021-11-21T10:32:57.333Z</time>
      </trkpt>
      <trkpt lat="47.544469" lon="7.782455">
        <ele>312.469581</ele>
        <time>2021-11-21T10:33:02.303Z</time>
      </trkpt>
      <trkpt lat="47.544474" lon="7.782623">
        <ele>312.618284</ele>
        <time>2021-11-21T10:33:04.911Z</time>
      </trkpt>
      <trkpt lat="47.544490" lon="7.783060">
        <ele>313.005281</ele>
        <time>2021-11-21T10:33:09.150Z</time>
      </trkpt>
      <trkpt lat="47.544555" lon="7.783372">
        <ele>313.294016</ele>
        <time>2021-11-21T10:33:11.914Z</time>
      </trkpt>
      <trkpt lat="47.544627" lon="7.783499">
        <ele>313.440673</ele>
        <time>2021-11-21T10:33:13.401Z</time>
      </trkpt>
      <trkpt lat="47.544950" lon="7.784008">
        <ele>313.289126</ele>
        <time>2021-11-21T10:33:20.565Z</time>
      </trkpt>
      <trkpt lat="47.545054" lon="7.784227">
        <ele>312.239908</ele>
        <time>2021-11-21T10:33:23.176Z</time>
      </trkpt>
      <trkpt lat="47.545240" lon="7.784746">
        <ele>309.937410</ele>
        <time>2021-11-21T10:33:28.331Z</time>
      </trkpt>
      <trkpt lat="47.545250" lon="7.784778">
        <ele>309.799236</ele>
        <time>2021-11-21T10:33:28.604Z</time>
      </trkpt>
      <trkpt lat="47.545624" lon="7.785548">
        <ele>306.082167</ele>
        <time>2021-11-21T10:33:36.768Z</time>
      </trkpt>
      <trkpt lat="47.545672" lon="7.785654">
        <ele>305.582017</ele>
        <time>2021-11-21T10:33:37.777Z</time>
      </trkpt>
      <trkpt lat="47.545856" lon="7.785973">
        <ele>303.937865</ele>
        <time>2021-11-21T10:33:41.618Z</time>
      </trkpt>
      <trkpt lat="47.546102" lon="7.786217">
        <ele>302.986735</ele>
        <time>2021-11-21T10:33:45.604Z</time>
      </trkpt>
      <trkpt lat="47.546417" lon="7.786331">
        <ele>302.254084</ele>
        <time>2021-11-21T10:33:50.185Z</time>
      </trkpt>
      <trkpt lat="47.546464" lon="7.786335">
        <ele>302.147716</ele>
        <time>2021-11-21T10:33:50.951Z</time>
      </trkpt>
      <trkpt lat="47.546526" lon="7.786353">
        <ele>302.004966</ele>
        <time>2021-11-21T10:33:51.952Z</time>
      </trkpt>
      <trkpt lat="47.546913" lon="7.786470">
        <ele>301.112544</ele>
        <time>2021-11-21T10:33:58.121Z</time>
      </trkpt>
      <trkpt lat="47.546952" lon="7.786540">
        <ele>300.974118</ele>
        <time>2021-11-21T10:33:59.059Z</time>
      </trkpt>
      <trkpt lat="47.546959" lon="7.786598">
        <ele>300.884260</ele>
        <time>2021-11-21T10:33:59.761Z</time>
      </trkpt>
      <trkpt lat="47.546897" lon="7.787133">
        <ele>300.056400</ele>
        <time>2021-11-21T10:34:06.937Z</time>
      </trkpt>
      <trkpt lat="47.546765" lon="7.788195">
        <ele>299.712203</ele>
        <time>2021-11-21T10:34:22.252Z</time>
      </trkpt>
      <trkpt lat="47.546695" lon="7.788763">
        <ele>299.976076</ele>
        <time>2021-11-21T10:34:30.752Z</time>
      </trkpt>
      <trkpt lat="47.546673" lon="7.788921">
        <ele>300.049804</ele>
        <time>2021-11-21T10:34:33.364Z</time>
      </trkpt>
      <trkpt lat="47.546253" lon="7.791998">
        <ele>301.715831</ele>
        <time>2021-11-21T10:35:25.540Z</time>
      </trkpt>
      <trkpt lat="47.546027" lon="7.793254">
        <ele>302.068644</ele>
        <time>2021-11-21T10:35:45.201Z</time>
      </trkpt>
      <trkpt lat="47.545969" lon="7.793663">
        <ele>301.979104</ele>
        <time>2021-11-21T10:35:50.353Z</time>
      </trkpt>
      <trkpt lat="47.545928" lon="7.794337">
        <ele>301.834115</ele>
        <time>2021-11-21T10:35:58.617Z</time>
      </trkpt>
      <trkpt lat="47.545921" lon="7.794468">
        <ele>301.805960</ele>
        <time>2021-11-21T10:36:00.199Z</time>
      </trkpt>
      <trkpt lat="47.545947" lon="7.794710">
        <ele>301.753459</ele>
        <time>2021-11-21T10:36:03.016Z</time>
      </trkpt>
      <trkpt lat="47.546019" lon="7.795020">
        <ele>301.683220</ele>
        <time>2021-11-21T10:36:07.065Z</time>
      </trkpt>
      <trkpt lat="47.546165" lon="7.795511">
        <ele>301.597268</ele>
        <time>2021-11-21T10:36:13.978Z</time>
      </trkpt>
      <trkpt lat="47.546170" lon="7.795612">
        <ele>301.592207</ele>
        <time>2021-11-21T10:36:15.022Z</time>
      </trkpt>
      <trkpt lat="47.546154" lon="7.795747">
        <ele>301.585358</ele>
        <time>2021-11-21T10:36:16.832Z</time>
      </trkpt>
      <trkpt lat="47.546105" lon="7.795928">
        <ele>301.575612</ele>
        <time>2021-11-21T10:36:20.026Z</time>
      </trkpt>
      <trkpt lat="47.546038" lon="7.796107">
        <ele>301.565384</ele>
        <time>2021-11-21T10:36:22.331Z</time>
      </trkpt>
      <trkpt lat="47.545889" lon="7.796500">
        <ele>301.542858</ele>
        <time>2021-11-21T10:36:29.214Z</time>
      </trkpt>
      <trkpt lat="47.545789" lon="7.796747">
        <ele>301.528465</ele>
        <time>2021-11-21T10:36:32.809Z</time>
      </trkpt>
      <trkpt lat="47.545788" lon="7.796748">
        <ele>301.528375</ele>
        <time>2021-11-21T10:36:32.883Z</time>
      </trkpt>
      <trkpt lat="47.545728" lon="7.796950">
        <ele>301.517347</ele>
        <time>2021-11-21T10:36:36.204Z</time>
      </trkpt>
      <trkpt lat="47.545689" lon="7.797076">
        <ele>301.510419</ele>
        <time>2021-11-21T10:36:37.655Z</time>
      </trkpt>
      <trkpt lat="47.545670" lon="7.797142">
        <ele>301.506834</ele>
        <time>2021-11-21T10:36:38.700Z</time>
      </trkpt>
      <trkpt lat="47.545645" lon="7.797258">
        <ele>301.500748</ele>
        <time>2021-11-21T10:36:40.506Z</time>
      </trkpt>
      <trkpt lat="47.545637" lon="7.797310">
        <ele>301.498083</ele>
        <time>2021-11-21T10:36:41.853Z</time>
      </trkpt>
      <trkpt lat="47.545558" lon="7.798144">
        <ele>301.433679</ele>
        <time>2021-11-21T10:36:53.101Z</time>
      </trkpt>
      <trkpt lat="47.545511" lon="7.798680">
        <ele>301.371063</ele>
        <time>2021-11-21T10:37:01.169Z</time>
      </trkpt>
      <trkpt lat="47.545581" lon="7.798713">
        <ele>301.358456</ele>
        <time>2021-11-21T10:37:02.655Z</time>
      </trkpt>
      <trkpt lat="47.545731" lon="7.798810">
        <ele>301.330366</ele>
        <time>2021-11-21T10:37:06.719Z</time>
      </trkpt>
      <trkpt lat="47.545807" lon="7.798846">
        <ele>301.316672</ele>
        <time>2021-11-21T10:37:08.057Z</time>
      </trkpt>
      <trkpt lat="47.546418" lon="7.798980">
        <ele>301.210667</ele>
        <time>2021-11-21T10:37:20.113Z</time>
      </trkpt>
      <trkpt lat="47.547540" lon="7.799538">
        <ele>300.711820</ele>
        <time>2021-11-21T10:37:40.753Z</time>
      </trkpt>
      <trkpt lat="47.547912" lon="7.799646">
        <ele>300.523976</ele>
        <time>2021-11-21T10:37:48.134Z</time>
      </trkpt>
      <trkpt lat="47.548459" lon="7.799691">
        <ele>300.270172</ele>
        <time>2021-11-21T10:37:59.072Z</time>
      </trkpt>
      <trkpt lat="47.548535" lon="7.799720">
        <ele>300.264887</ele>
        <time>2021-11-21T10:38:00.592Z</time>
      </trkpt>
      <trkpt lat="47.548514" lon="7.799795">
        <ele>300.261196</ele>
        <time>2021-11-21T10:38:01.656Z</time>
      </trkpt>
      <trkpt lat="47.548519" lon="7.799896">
        <ele>300.256593</ele>
        <time>2021-11-21T10:38:03.011Z</time>
      </trkpt>
      <trkpt lat="47.548545" lon="7.800404">
        <ele>300.233437</ele>
        <time>2021-11-21T10:38:09.801Z</time>
      </trkpt>
      <trkpt lat="47.548560" lon="7.800672">
        <ele>300.221213</ele>
        <time>2021-11-21T10:38:13.494Z</time>
      </trkpt>
      <trkpt lat="47.548569" lon="7.800838">
        <ele>300.213644</ele>
        <time>2021-11-21T10:38:15.738Z</time>
      </trkpt>
      <trkpt lat="47.548576" lon="7.800968">
        <ele>300.207716</ele>
        <time>2021-11-21T10:38:17.513Z</time>
      </trkpt>
      <trkpt lat="47.548596" lon="7.801213">
        <ele>300.196499</ele>
        <time>2021-11-21T10:38:20.893Z</time>
      </trkpt>
      <trkpt lat="47.548607" lon="7.801690">
        <ele>300.174805</ele>
        <time>2021-11-21T10:38:27.393Z</time>
      </trkpt>
      <trkpt lat="47.548626" lon="7.802129">
        <ele>300.154810</ele>
        <time>2021-11-21T10:38:33.312Z</time>
      </trkpt>
      <trkpt lat="47.548626" lon="7.802129">
        <ele>300.154810</ele>
        <time>2021-11-21T10:38:33.316Z</time>
      </trkpt>
      <trkpt lat="47.548626" lon="7.802129">
        <ele>300.154810</ele>
        <time>2021-11-21T10:38:33.324Z</time>
      </trkpt>
      <trkpt lat="47.548877" lon="7.802168">
        <ele>300.091804</ele>
        <time>2021-11-21T10:38:38.315Z</time>
      </trkpt>
      <trkpt lat="47.549410" lon="7.802226">
        <ele>299.937640</ele>
        <time>2021-11-21T10:38:48.729Z</time>
      </trkpt>
      <trkpt lat="47.549481" lon="7.802234">
        <ele>299.917100</ele>
        <time>2021-11-21T10:38:50.067Z</time>
      </trkpt>
      <trkpt lat="47.549879" lon="7.802247">
        <ele>299.802264</ele>
        <time>2021-11-21T10:38:57.532Z</time>
      </trkpt>
      <trkpt lat="47.550146" lon="7.802262">
        <ele>299.725190</ele>
        <time>2021-11-21T10:39:02.607Z</time>
      </trkpt>
      <trkpt lat="47.550134" lon="7.803051">
        <ele>299.594636</ele>
        <time>2021-11-21T10:39:12.831Z</time>
      </trkpt>
      <trkpt lat="47.550196" lon="7.803120">
        <ele>299.580676</ele>
        <time>2021-11-21T10:39:14.290Z</time>
      </trkpt>
      <trkpt lat="47.550981" lon="7.803132">
        <ele>299.439345</ele>
        <time>2021-11-21T10:39:28.937Z</time>
      </trkpt>
      <trkpt lat="47.551163" lon="7.803129">
        <ele>299.406577</ele>
        <time>2021-11-21T10:39:32.340Z</time>
      </trkpt>
      <trkpt lat="47.551598" lon="7.803160">
        <ele>299.328174</ele>
        <time>2021-11-21T10:39:40.925Z</time>
      </trkpt>
      <trkpt lat="47.551666" lon="7.803144">
        <ele>299.315778</ele>
        <time>2021-11-21T10:39:45.670Z</time>
      </trkpt>
      <trkpt lat="47.551732" lon="7.803125">
        <ele>299.332402</ele>
        <time>2021-11-21T10:39:50.336Z</time>
      </trkpt>
      <trkpt lat="47.551744" lon="7.803277">
        <ele>299.410856</ele>
        <time>2021-11-21T10:39:52.053Z</time>
      </trkpt>
      <trkpt lat="47.551751" lon="7.803369">
        <ele>299.458319</ele>
        <time>2021-11-21T10:39:53.178Z</time>
      </trkpt>
      <trkpt lat="47.551692" lon="7.803510">
        <ele>299.543367</ele>
        <time>2021-11-21T10:39:55.741Z</time>
      </trkpt>
      <trkpt lat="47.551741" lon="7.804294">
        <ele>299.947005</ele>
        <time>2021-11-21T10:40:08.727Z</time>
      </trkpt>
      <trkpt lat="47.551744" lon="7.804473">
        <ele>300.038798</ele>
        <time>2021-11-21T10:40:11.313Z</time>
      </trkpt>
      <trkpt lat="47.551731" lon="7.804667">
        <ele>300.138741</ele>
        <time>2021-11-21T10:40:15.225Z</time>
      </trkpt>
      <trkpt lat="47.551709" lon="7.805000">
        <ele>300.310269</ele>
        <time>2021-11-21T10:40:19.783Z</time>
      </trkpt>
      <trkpt lat="47.551692" lon="7.805292">
        <ele>300.460519</ele>
        <time>2021-11-21T10:40:24.933Z</time>
      </trkpt>
      <trkpt lat="47.551681" lon="7.805477">
        <ele>300.555727</ele>
        <time>2021-11-21T10:40:27.520Z</time>
      </trkpt>
      <trkpt lat="47.551671" lon="7.806117">
        <ele>300.700271</ele>
        <time>2021-11-21T10:40:37.591Z</time>
      </trkpt>
      <trkpt lat="47.551651" lon="7.806246">
        <ele>300.708374</ele>
        <time>2021-11-21T10:40:40.447Z</time>
      </trkpt>
      <trkpt lat="47.551895" lon="7.806278">
        <ele>300.730591</ele>
        <time>2021-11-21T10:40:44.026Z</time>
      </trkpt>
      <trkpt lat="47.552015" lon="7.806307">
        <ele>300.741618</ele>
        <time>2021-11-21T10:40:46.834Z</time>
      </trkpt>
      <trkpt lat="47.552068" lon="7.806445">
        <ele>300.751338</ele>
        <time>2021-11-21T10:40:48.290Z</time>
      </trkpt>
      <trkpt lat="47.552398" lon="7.808880">
        <ele>300.378080</ele>
        <time>2021-11-21T10:41:10.475Z</time>
      </trkpt>
      <trkpt lat="47.552566" lon="7.810386">
        <ele>299.714837</ele>
        <time>2021-11-21T10:41:23.486Z</time>
      </trkpt>
      <trkpt lat="47.552711" lon="7.812955">
        <ele>298.480504</ele>
        <time>2021-11-21T10:41:45.921Z</time>
      </trkpt>
      <trkpt lat="47.552762" lon="7.814282">
        <ele>298.296255</ele>
        <time>2021-11-21T10:41:57.262Z</time>
      </trkpt>
      <trkpt lat="47.552844" lon="7.816432">
        <ele>298.784079</ele>
        <time>2021-11-21T10:42:20.430Z</time>
      </trkpt>
      <trkpt lat="47.552368" lon="7.816478">
        <ele>299.459615</ele>
        <time>2021-11-21T10:42:32.956Z</time>
      </trkpt>
      <trkpt lat="47.551537" lon="7.816539">
        <ele>300.637907</ele>
        <time>2021-11-21T10:42:56.897Z</time>
      </trkpt>
      <trkpt lat="47.550839" lon="7.816590">
        <ele>301.241813</ele>
        <time>2021-11-21T10:43:15.610Z</time>
      </trkpt>
      <trkpt lat="47.550457" lon="7.816559">
        <ele>301.556199</ele>
        <time>2021-11-21T10:43:25.036Z</time>
      </trkpt>
      <trkpt lat="47.550240" lon="7.817600">
        <ele>302.160496</ele>
        <time>2021-11-21T10:43:40.484Z</time>
      </trkpt>
      <trkpt lat="47.549870" lon="7.819908">
        <ele>301.344506</ele>
        <time>2021-11-21T10:44:09.160Z</time>
      </trkpt>
      <trkpt lat="47.549781" lon="7.820506">
        <ele>301.272275</ele>
        <time>2021-11-21T10:44:16.997Z</time>
      </trkpt>
      <trkpt lat="47.549636" lon="7.821487">
        <ele>301.459103</ele>
        <time>2021-11-21T10:44:30.386Z</time>
      </trkpt>
      <trkpt lat="47.549580" lon="7.821865">
        <ele>301.531100</ele>
        <time>2021-11-21T10:44:35.934Z</time>
      </trkpt>
      <trkpt lat="47.549309" lon="7.823603">
        <ele>302.651639</ele>
        <time>2021-11-21T10:45:04.355Z</time>
      </trkpt>
      <trkpt lat="47.548993" lon="7.825343">
        <ele>304.801981</ele>
        <time>2021-11-21T10:45:39.324Z</time>
      </trkpt>
      <trkpt lat="47.548679" lon="7.826710">
        <ele>306.909311</ele>
        <time>2021-11-21T10:46:08.498Z</time>
      </trkpt>
      <trkpt lat="47.548237" lon="7.826410">
        <ele>307.971739</ele>
        <time>2021-11-21T10:46:22.266Z</time>
      </trkpt>
      <trkpt lat="47.547666" lon="7.826091">
        <ele>309.251977</ele>
        <time>2021-11-21T10:46:39.650Z</time>
      </trkpt>
      <trkpt lat="47.547233" lon="7.825872">
        <ele>310.140123</ele>
        <time>2021-11-21T10:46:52.418Z</time>
      </trkpt>
      <trkpt lat="47.547050" lon="7.825786">
        <ele>310.512796</ele>
        <time>2021-11-21T10:46:57.557Z</time>
      </trkpt>
      <trkpt lat="47.546879" lon="7.825705">
        <ele>310.861286</ele>
        <time>2021-11-21T10:47:02.536Z</time>
      </trkpt>
      <trkpt lat="47.546693" lon="7.825618">
        <ele>311.239907</ele>
        <time>2021-11-21T10:47:07.804Z</time>
      </trkpt>
      <trkpt lat="47.546589" lon="7.825597">
        <ele>311.443652</ele>
        <time>2021-11-21T10:47:10.727Z</time>
      </trkpt>
      <trkpt lat="47.546574" lon="7.826239">
        <ele>312.285340</ele>
        <time>2021-11-21T10:47:23.014Z</time>
      </trkpt>
      <trkpt lat="47.546592" lon="7.826850">
        <ele>313.188882</ele>
        <time>2021-11-21T10:47:34.816Z</time>
      </trkpt>
      <trkpt lat="47.546721" lon="7.828140">
        <ele>315.125188</ele>
        <time>2021-11-21T10:48:01.109Z</time>
      </trkpt>
      <trkpt lat="47.546823" lon="7.829336">
        <ele>316.855989</ele>
        <time>2021-11-21T10:48:24.409Z</time>
      </trkpt>
      <trkpt lat="47.546946" lon="7.830852">
        <ele>318.913361</ele>
        <time>2021-11-21T10:48:53.652Z</time>
      </trkpt>
      <trkpt lat="47.547020" lon="7.831965">
        <ele>320.362304</ele>
        <time>2021-11-21T10:49:14.490Z</time>
      </trkpt>
      <trkpt lat="47.547190" lon="7.835066">
        <ele>324.138881</ele>
        <time>2021-11-21T10:50:11.581Z</time>
      </trkpt>
      <trkpt lat="47.547240" lon="7.836221">
        <ele>325.566591</ele>
        <time>2021-11-21T10:50:33.056Z</time>
      </trkpt>
      <trkpt lat="47.547276" lon="7.837287">
        <ele>326.864825</ele>
        <time>2021-11-21T10:50:53.166Z</time>
      </trkpt>
      <trkpt lat="47.547300" lon="7.838688">
        <ele>328.531848</ele>
        <time>2021-11-21T10:51:19.913Z</time>
      </trkpt>
      <trkpt lat="47.547332" lon="7.840572">
        <ele>330.068462</ele>
        <time>2021-11-21T10:51:52.541Z</time>
      </trkpt>
      <trkpt lat="47.547339" lon="7.841072">
        <ele>330.323893</ele>
        <time>2021-11-21T10:52:00.318Z</time>
      </trkpt>
      <trkpt lat="47.547362" lon="7.841665">
        <ele>330.627269</ele>
        <time>2021-11-21T10:52:09.088Z</time>
      </trkpt>
      <trkpt lat="47.547448" lon="7.842262">
        <ele>330.915117</ele>
        <time>2021-11-21T10:52:17.484Z</time>
      </trkpt>
      <trkpt lat="47.547354" lon="7.842839">
        <ele>331.037594</ele>
        <time>2021-11-21T10:52:25.366Z</time>
      </trkpt>
      <trkpt lat="47.547313" lon="7.843735">
        <ele>331.222901</ele>
        <time>2021-11-21T10:52:37.689Z</time>
      </trkpt>
      <trkpt lat="47.547295" lon="7.844722">
        <ele>331.426635</ele>
        <time>2021-11-21T10:52:52.436Z</time>
      </trkpt>
      <trkpt lat="47.547274" lon="7.845536">
        <ele>332.241952</ele>
        <time>2021-11-21T10:53:05.888Z</time>
      </trkpt>
      <trkpt lat="47.547124" lon="7.848795">
        <ele>336.197473</ele>
        <time>2021-11-21T10:54:08.042Z</time>
      </trkpt>
      <trkpt lat="47.547143" lon="7.849985">
        <ele>337.798525</ele>
        <time>2021-11-21T10:54:30.894Z</time>
      </trkpt>
      <trkpt lat="47.547141" lon="7.850355">
        <ele>338.172172</ele>
        <time>2021-11-21T10:54:37.993Z</time>
      </trkpt>
      <trkpt lat="47.546945" lon="7.851719">
        <ele>339.203931</ele>
        <time>2021-11-21T10:55:02.526Z</time>
      </trkpt>
      <trkpt lat="47.546582" lon="7.856413">
        <ele>340.676947</ele>
        <time>2021-11-21T10:56:10.838Z</time>
      </trkpt>
      <trkpt lat="47.546537" lon="7.857497">
        <ele>340.860956</ele>
        <time>2021-11-21T10:56:26.146Z</time>
      </trkpt>
      <trkpt lat="47.546487" lon="7.859119">
        <ele>341.194554</ele>
        <time>2021-11-21T10:56:49.594Z</time>
      </trkpt>
      <trkpt lat="47.546526" lon="7.861665">
        <ele>341.224680</ele>
        <time>2021-11-21T10:57:26.768Z</time>
      </trkpt>
      <trkpt lat="47.546592" lon="7.863006">
        <ele>340.733749</ele>
        <time>2021-11-21T10:57:43.235Z</time>
      </trkpt>
      <trkpt lat="47.546877" lon="7.864345">
        <ele>339.274752</ele>
        <time>2021-11-21T10:57:58.404Z</time>
      </trkpt>
      <trkpt lat="47.546885" lon="7.864500">
        <ele>339.071708</ele>
        <time>2021-11-21T10:58:00.083Z</time>
      </trkpt>
      <trkpt lat="47.546894" lon="7.864837">
        <ele>338.631192</ele>
        <time>2021-11-21T10:58:03.563Z</time>
      </trkpt>
      <trkpt lat="47.546889" lon="7.865225">
        <ele>338.124314</ele>
        <time>2021-11-21T10:58:07.684Z</time>
      </trkpt>
      <trkpt lat="47.546819" lon="7.865489">
        <ele>337.753840</ele>
        <time>2021-11-21T10:58:10.761Z</time>
      </trkpt>
      <trkpt lat="47.546510" lon="7.865766">
        <ele>337.076093</ele>
        <time>2021-11-21T10:58:16.456Z</time>
      </trkpt>
      <trkpt lat="47.546327" lon="7.865959">
        <ele>336.815224</ele>
        <time>2021-11-21T10:58:19.787Z</time>
      </trkpt>
      <trkpt lat="47.546096" lon="7.866147">
        <ele>336.509147</ele>
        <time>2021-11-21T10:58:23.853Z</time>
      </trkpt>
      <trkpt lat="47.545240" lon="7.866887">
        <ele>335.358195</ele>
        <time>2021-11-21T10:58:40.527Z</time>
      </trkpt>
      <trkpt lat="47.545160" lon="7.866985">
        <ele>335.237642</ele>
        <time>2021-11-21T10:58:42.483Z</time>
      </trkpt>
      <trkpt lat="47.545003" lon="7.867278">
        <ele>335.094409</ele>
        <time>2021-11-21T10:58:48.151Z</time>
      </trkpt>
      <trkpt lat="47.544568" lon="7.867693">
        <ele>335.701330</ele>
        <time>2021-11-21T10:59:00.942Z</time>
      </trkpt>
      <trkpt lat="47.544469" lon="7.867776">
        <ele>335.834767</ele>
        <time>2021-11-21T10:59:03.804Z</time>
      </trkpt>
      <trkpt lat="47.544410" lon="7.867825">
        <ele>335.914109</ele>
        <time>2021-11-21T10:59:05.892Z</time>
      </trkpt>
      <trkpt lat="47.544246" lon="7.867967">
        <ele>336.136935</ele>
        <time>2021-11-21T10:59:10.576Z</time>
      </trkpt>
      <trkpt lat="47.544214" lon="7.867988">
        <ele>336.177990</ele>
        <time>2021-11-21T10:59:11.424Z</time>
      </trkpt>
      <trkpt lat="47.543801" lon="7.868269">
        <ele>336.711104</ele>
        <time>2021-11-21T10:59:23.027Z</time>
      </trkpt>
      <trkpt lat="47.543657" lon="7.868359">
        <ele>336.894438</ele>
        <time>2021-11-21T10:59:27.377Z</time>
      </trkpt>
      <trkpt lat="47.543201" lon="7.868657">
        <ele>337.128886</ele>
        <time>2021-11-21T10:59:37.812Z</time>
      </trkpt>
      <trkpt lat="47.543105" lon="7.868711">
        <ele>337.128886</ele>
        <time>2021-11-21T10:59:40.459Z</time>
      </trkpt>
      <trkpt lat="47.543049" lon="7.868759">
        <ele>337.128886</ele>
        <time>2021-11-21T10:59:41.837Z</time>
      </trkpt>
      <trkpt lat="47.542722" lon="7.869201">
        <ele>337.128886</ele>
        <time>2021-11-21T10:59:51.437Z</time>
      </trkpt>
      <trkpt lat="47.542696" lon="7.869257">
        <ele>337.128886</ele>
        <time>2021-11-21T10:59:52.182Z</time>
      </trkpt>
      <trkpt lat="47.542657" lon="7.869354">
        <ele>337.128886</ele>
        <time>2021-11-21T10:59:53.591Z</time>
      </trkpt>
      <trkpt lat="47.542509" lon="7.869557">
        <ele>337.128886</ele>
        <time>2021-11-21T10:59:57.595Z</time>
      </trkpt>
      <trkpt lat="47.542456" lon="7.869630">
        <ele>337.128886</ele>
        <time>2021-11-21T10:59:58.704Z</time>
      </trkpt>
    </trkseg>
  </trk>
</gpx>